[[{"header":{"parameterUnit":"m.s-1","parameterCategory":1,"la1":30.6,"la2":29.2853,"lo1":-89.7004,"lo2":-87.6739,"dy":0.0162,"dx":0.0183,"nx":112,"ny":82,"refTime":"2024-05-19T12:00:00:Z","depth":0,"parameterNumber":2,"parameterNumberName":"U-component_of_WINDS"},"data":[0.0,0.0,0.0,0.0,0.0,0.0,0.0,0.0,0.0,0.0,0.0,0.0,0.0,0.0,0.0,0.0,0.0,0.0,0.0,0.0,0.0,0.0,0.0,0.0,0.0,0.0,0.0,0.0,0.0,0.0,0.0,0.0,0.0,0.0,0.0,0.0,0.0,0.0,0.0,0.0,0.0,0.0,0.0,0.0,0.0,0.0,0.0,0.0,0.0,0.0,0.0,0.0,0.0,0.0,0.0,0.0,0.0,0.0,0.0,0.0,0.0,0.0,0.0,0.0,0.0,0.0,0.0,0.0,0.0,0.0,0.0,0.0,0.0,0.0,0.0,0.0,0.0,0.0,0.0,0.0,0.0,0.0,0.0,0.0,0.0,0.0,0.0,0.0,0.0,0.0,-0.1819,-0.1496,-0.131,-0.1039,-0.0622,-0.0588,-0.0417,-0.0028,0.0,0.0,0.0,0.0,0.0,0.0,0.0,0.0,0.0,0.0,0.0,0.0,0.0,0.0,0.0,0.0,0.0,0.0,0.0,0.0,0.0,0.0,0.0,0.0,0.0,0.0,0.0,0.0,0.0,0.0,0.0,0.0,0.0,0.0,0.0,0.0,0.0,0.0,0.0,0.0,0.0,0.0,0.0,0.0,0.0,0.0,0.0,0.0,0.0,0.0,0.0,0.0,0.0,0.0,0.0,0.0,0.0,0.0,0.0,0.0,0.0,0.0,0.0,0.0,0.0,0.0,0.0,0.0,0.0,0.0,0.0,0.0,0.0,0.0,0.0,0.0,0.0,0.0,0.0,0.0,0.0,0.0,0.0,0.0,0.0,0.0,0.0,0.0,0.0,0.0,0.0,0.0,0.0,0.0,0.0,0.0,0.0,0.0,0.0,0.0,0.0,0.0,0.0,0.0,-0.1454,-0.089,-0.0815,-0.0605,-0.0151,-0.0101,-0.008,0.0,0.0,0.0,0.0,0.0,0.0,0.0,0.0,0.0,0.0,0.0,0.0,0.0,0.0,0.0,0.0,0.0,0.0,0.0,0.0,0.0,0.0,0.0,0.0,0.0,0.0,0.0,0.0,0.0,0.0,0.0,0.0,0.0,0.0,0.0,0.0,0.0,0.0,0.0,0.0,0.0,0.0,0.0,0.0,0.0,0.0,0.0,0.0,0.0,0.0,0.0,0.0,0.0,0.0,0.0,0.0,0.0,0.0,0.0,0.0,0.0,0.0,0.0,0.0,0.0,0.0,0.0,0.0,0.0,0.0,0.0,0.0,0.0,0.0,0.0,0.0,0.0,0.0,0.0,0.0,0.0,0.0,0.0,0.0,0.0,0.0,0.0,0.0,0.0,0.0,0.0,0.0,0.0,0.0,0.0,0.0,0.0,0.0,0.0,0.0,0.0,0.0,0.0,0.0,-0.1422,-0.1087,-0.0731,-0.0471,-0.0235,-0.0017,0.0,0.0,0.0,0.0,0.0,0.0,0.0,0.0,0.0,0.0,0.0,0.0,0.0,0.0,0.0,0.0,0.0,0.0,0.0,0.0,0.0,0.0,0.0,0.0,0.0,0.0,0.0,0.0,0.0,0.0,0.0,0.0,0.0,0.0,0.0,0.0,0.0,0.0,0.0,0.0,0.0,0.0,0.0,0.0,0.0,0.0,0.0,0.0,0.0,0.0,0.0,0.0,0.0,0.0,0.0,0.0,0.0,0.0,0.0,0.0,0.0,0.0,0.0,0.0,0.0,0.0,0.0,0.0,0.0,0.0,0.0,0.0,0.0,0.0,0.0,0.0,0.0,0.0,0.0,0.0,0.0,0.0,0.0,0.0,0.0,0.0,0.0,0.0,0.0,0.0,0.0,0.0,0.0,0.0,0.0,0.0,0.0,0.0,0.0,0.0,0.0,0.0,0.0,0.0,0.0,0.0,-0.1047,-0.0718,-0.0549,-0.0219,0.0,0.0,0.0,0.0,0.0,0.0,0.0,0.0,0.0,0.0,0.0,0.0,0.0,0.0,0.0,0.0,0.0,0.0,0.0,0.0,0.0,0.0,0.0,0.0,0.0,0.0,0.0,0.0,0.0,0.0,0.0,0.0,0.0,0.0,0.0,0.0,0.0,0.0,0.0,0.0,0.0,0.0,0.0,0.0,0.0,0.0,0.0,0.0,0.0,0.0,0.0,0.0,0.0,0.0,0.0,0.0,0.0,0.0,0.0,0.0,0.0,0.0,0.0,0.0,0.0,0.0,0.0,0.0,0.0,0.0,0.0,0.0,0.0,0.0,0.0,0.0,0.0,0.0,0.0,0.0,0.0,0.0,0.0,0.0,0.0,0.0,0.0,0.0,0.0,0.0,0.0,0.0,0.0,0.0,0.0,0.0,0.0,0.0,0.0,0.0,0.0,0.0,0.0,0.0,0.0,0.0,0.0,0.0,-0.0648,-0.0329,-0.0083,-0.0017,0.0,0.0,0.0,0.0,0.0,0.0,0.0,0.0,0.0,0.0,0.0,0.0,0.0,0.0,0.0,0.0,0.0,0.0,0.0,0.0,0.0,0.0,0.0,0.0,0.0,0.0,0.0,0.0,0.0,0.0,0.0,0.0,0.0,0.0,0.0,0.0,0.0,0.0,0.0,0.0,0.0,0.0,0.0,0.0,0.0,0.0,0.0,0.0,0.0,0.0,0.0,0.0,0.0,0.0,0.0,0.0,0.0,0.0,0.0,0.0,0.0,0.0,0.0,0.0,0.0,0.0,0.0,0.0,0.0,0.0,0.0,0.0,0.0,0.0,0.0,0.0,0.0,0.0,0.0,0.0,0.0,0.0,0.0,0.0,0.0,0.0,0.0,0.0,0.0,0.0,0.0,0.0,0.0,0.0,0.0,0.0,0.0,0.0,0.0,0.0,0.0,0.0,0.0,0.0,0.0,0.0,0.0,0.0,-0.0607,-0.0299,0.0,0.0,0.0,0.0,0.0,0.0,0.0,0.0,0.0,0.0,0.0,0.0,0.0,0.0,0.0,0.0,0.0,0.0,0.0,0.0,0.0,0.0,0.0,0.0,0.0,0.0,0.0,0.0,0.0,0.0,0.0,0.0,0.0,0.0,0.0,0.0,0.0,0.0,0.0,0.0,0.0,0.0,0.0,0.0,0.0,0.0,0.0,0.0,0.0,0.0,0.0,0.0,0.0,0.0,0.0,0.0,0.0,0.0,0.0,0.0,0.0,0.0,0.0,0.0,0.0,0.0,0.0,0.0,0.0,0.0,0.0,0.0,0.0,0.0,0.0,0.0,0.0,0.0,0.0,0.0,0.0,0.0,0.0,0.0,0.0,0.0,0.0,0.0,0.0,0.0,0.0,0.0,0.0,0.0,0.0,0.0,0.0,0.0,0.0,0.0,0.0,0.0,0.0,0.0,0.0,0.0,0.0,0.0,0.0,-0.0917,-0.0527,-0.0209,0.0,0.0,0.0,0.0,0.0,0.0,0.0,0.0,0.0,0.0,0.0,0.0,0.0,0.0,0.0,0.0,0.0,0.0,0.0,0.0,0.0,0.0,0.0,0.0,0.0,0.0,0.0,0.0,0.0,0.0,0.0,0.0,0.0,0.0,0.0,0.0,0.0,0.0,0.0,0.0,0.0,0.0,0.0,0.0,0.0,0.0,0.0,0.0,0.0,0.0,0.0,0.0,0.0,0.0,0.0,0.0,0.0,0.0,0.0,0.0,0.0,0.0,0.0,0.0,0.0,0.0,0.0,0.0,0.0,0.0,0.0,0.0,0.0,0.0,0.0,0.0,0.0,0.0,0.0,0.0,0.0,0.0,0.0,0.0,0.0,0.0,0.0,0.0,0.0,0.0,0.0,0.0,0.0,0.0,0.0,0.0,0.0,0.0,0.0,0.0,0.0,0.0,0.0,0.0,0.0,0.0,0.0,0.0,0.0,-0.0895,-0.0375,0.0,0.0,0.0,0.0,0.0,0.0,0.0,0.0,0.0,0.0,0.0,0.0,0.0,0.0,0.0,0.0,0.0,0.0,0.0,0.0,0.0,0.0,0.0,0.0,0.0,0.0,0.0,0.0,0.0,0.0,0.0,0.0,0.0,0.0,0.0,0.0,0.0,0.0,0.0,0.0,0.0,0.0,0.0,0.0,0.0,0.0,0.0,0.0,0.0,0.0,0.0,0.0,0.0,0.0,0.0,0.0,0.0,0.0,0.0,0.0,0.0,0.0,0.0,0.0,0.0,0.0,0.0,0.0,0.0,0.0,0.0,0.0,0.0,0.0,0.0,0.0,0.0,0.0,0.0,0.0,0.0,0.0,0.0,0.0,0.0,0.0,0.0,0.0,0.0,0.0,0.0,0.0,0.0,0.0,0.0,0.0,0.0,0.0,0.0,0.0,0.0,0.0,0.0,0.0,0.0,0.0,0.0,0.0,0.0,0.0,-0.0895,-0.0375,0.0,0.0,0.0,0.0,0.0,0.0,0.0,0.0,0.0,0.0,0.0,0.0,0.0,0.0,0.0,0.0,0.0,0.0,0.0,0.0,0.0,0.0,0.0,0.0,0.0,0.0,0.0,0.0,0.0,0.0,0.0,0.0,0.0,0.0,0.0,0.0,0.0,0.0,0.0,0.0,0.0,0.0,0.0,0.0,0.0,0.0,0.0,0.0,0.0,0.0,0.0,0.0,0.0,0.0,0.0,0.0,0.0,0.0,0.0,0.0,0.0,0.0,0.0,0.0,0.0,0.0,0.0,0.0,0.0,0.0,0.0,0.0,0.0,0.0,0.0,0.0,0.0,0.0,0.0,0.0,0.0,0.0,0.0,0.0,0.0,0.0,0.0,0.0,0.0,0.0,0.0,0.0,0.0,0.0,0.0,0.0,0.0,0.0,0.0,0.0,0.0,0.0,0.0,0.0,0.0,0.0,0.0,0.0,0.0,0.0,-0.0923,-0.0543,-0.0208,-0.0017,0.0,0.0,0.0,0.0,0.0,0.0,0.0,0.0,0.0,0.0,0.0,0.0,0.0,0.0,0.0,0.0,0.0,0.0,0.0,0.0,0.0,0.0,0.0,0.0,0.0,0.0,0.0,0.0,0.0,0.0,0.0,0.0,0.0,0.0,0.0,0.0,0.0,0.0,0.0,0.0,0.0,0.0,0.0,0.0,0.0,0.0,0.0,0.0,0.0,0.0,0.0,0.0,0.0,0.0,0.0,0.0,0.0,0.0,0.0,0.0,0.0,0.0,0.0,0.0,0.0,0.0,0.0,0.0,0.0,0.0,0.0,0.0,0.0,0.0,0.0,0.0,0.0,0.0,0.0,0.0,0.0,0.0,0.0,0.0,0.0,0.0,0.0,0.0,0.0,0.0,0.0,0.0,0.0,0.0,0.0,0.0,0.0,0.0,0.0,0.0,0.0,0.0,0.0,0.0,0.0,0.0,0.0,0.0,-0.1043,-0.081,-0.0548,-0.0128,-0.0037,0.0,0.0,0.0,0.0,0.0,0.0,0.0,0.0,0.0,0.0,0.0,0.0,0.0,0.0,0.0,0.0,0.0,0.0,0.0,0.0,0.0,0.0,0.0,0.0,0.0,0.0,0.0,0.0,0.0,0.0,0.0,0.0,0.0,0.0,0.0,0.0,0.0,0.0,0.0,0.0,0.0,0.0,0.0,0.0,0.0,0.0,0.0,0.0,0.0,0.0,0.0,0.0,0.0,0.0,0.0,0.0,0.0,0.0,0.0,0.0,0.0,0.0,0.0,0.0,0.0,-0.7751,0.0,0.0,0.0,0.0,0.0,0.0,0.0,0.0,0.0,0.0,0.0,0.0,0.0,0.0,0.0,0.0,0.0,0.0,0.0,0.0,0.0,0.0,0.0,0.0,0.0,0.0,0.0,0.0,0.0,0.0,0.0,0.0,0.0,0.0,0.0,0.0,0.0,0.0,0.0,0.0,0.0,-0.1601,-0.1082,-0.0703,-0.071,-0.029,0.0,0.0,0.0,0.0,0.0,0.0196,0.0,0.0,0.0,0.0,0.0,0.0,0.0,0.0,0.0,0.0,0.0,0.0,0.0,0.0,0.0,0.0,0.0,0.0,0.0,0.0,0.0,0.0,0.0,0.0,0.0,0.0,0.0,0.0,0.0,0.0,0.0,0.0,0.0,0.0,0.0,0.0,0.0,0.0,0.0,0.0,0.0,0.0,0.0,0.0,0.0,0.0,0.0,0.0,0.0,0.0,0.0,0.0,0.0,0.0,0.0,0.0,0.0,0.0,0.0,0.0,-0.8395,0.0,0.0,0.0,0.0,0.0,0.0,0.0,0.0,0.0,0.0,0.0,0.0,0.0,0.0,0.0,0.0,0.0,0.0,0.0,0.0,0.0,0.0,0.0,0.0,0.0,0.0,0.0,0.0,0.0,0.0,0.0,0.0,0.0,0.0,0.0,0.0,0.0,0.0,0.0,0.0,-0.1813,-0.1583,-0.1285,-0.0946,-0.0628,-0.0318,-0.0019,0.0,0.0,0.0,0.0128,0.0,0.0,0.0,0.0,0.0,0.0,0.0,0.0,0.0,0.0,0.0,0.0,0.0,0.0,0.0,0.0,0.0,0.0,0.0,0.0,0.0,0.0,0.0,0.0,0.0,0.0,0.0,0.0,0.0,0.0,0.0,0.0,0.0,0.0,0.0,0.0,0.0,0.0,0.0,0.0,0.0,0.0,0.0,0.0,0.0,0.0,0.0,0.0,0.0,0.0,0.0,0.0,0.0,-1.3029,-1.3024,-1.3063,-1.2792,-1.2726,-1.2755,-1.1374,-1.0308,-0.9491,-0.8825,0.0,0.0,0.0,0.0,0.0,0.0,0.0,0.0,0.0,0.0,0.0,0.0,0.0,0.0,0.0,0.0,0.0,0.0,0.0,0.0,0.0,0.0,0.0,0.0,-0.748,-0.6941,-0.5454,0.0,0.0,0.0,0.0,0.0,0.0,0.0,0.0,0.0,0.0,0.0,-0.2009,-0.2051,-0.1831,-0.1138,-0.087,-0.0542,-0.004,0.0,0.0,0.0,0.0,0.0,0.0,0.0,0.0,0.0,0.0,0.0,0.0,0.0,0.0,0.0,0.0,0.0,0.0,0.0,0.0,0.0,0.0,0.0,0.0,0.0,0.0,0.0,0.0,0.0,0.0,0.0,0.0,0.0,0.0,0.0,0.0,0.0,-0.8882,-0.9554,0.0,0.0,0.0,0.0,0.0,0.0,0.0,0.0,0.0,0.0,0.0,0.0,0.0,-1.2471,-1.2534,-1.436,-1.5305,-1.5382,-1.6442,-1.6543,-1.5775,-1.574,-1.53,-1.4557,-1.4331,0.0,-1.1263,-1.1159,0.0,0.0,0.0,0.0,0.0,0.0,0.0,0.0,0.0,0.0,0.0,0.0,0.0,0.0,0.0,0.0,0.0,0.0,0.0,0.0,0.0,0.0,-0.919,-0.8858,-0.8154,-0.7504,0.0,-0.6301,-0.5225,-0.4347,-0.4015,0.0,0.0,0.0,0.0,0.0,0.0,0.0,-0.2725,-0.2131,-0.1669,-0.1674,-0.0733,-0.0088,0.0,0.0,0.0,0.0,0.0,0.0,0.0,0.0,0.0,0.0,0.0,0.0,0.0,0.0,0.0,0.0,0.0,0.0,0.0,0.0,0.0,0.0,0.0,0.0,0.0,0.0,0.0,0.0,0.0,0.0,0.0,0.0,0.0,0.0,0.0,0.0,0.0,-0.8859,-0.9578,-0.986,-0.9935,-0.9839,0.0,0.0,0.0,0.0,0.0,0.0,0.0,0.0,0.0,-1.3451,-1.4468,-1.4993,-1.4993,-1.6248,-1.7056,-1.7416,-1.7701,-1.7637,-1.7286,-1.7014,-1.6481,-1.5793,-1.5793,-1.5078,-1.3822,-1.2893,-1.1889,-1.0922,0.0,0.0,0.0,0.0,-1.0036,-0.9538,-1.0135,-0.9965,-0.9455,-0.9162,0.0,0.0,0.0,0.0,0.0,0.0,0.0,-0.8838,0.0,0.0,-1.0342,-1.0449,-1.0153,-0.9764,-0.9461,-0.8521,-0.7164,0.0,-0.4926,-0.4577,-0.3359,0.0,0.0,0.0,0.0,-0.2964,-0.3006,-0.2474,-0.2024,-0.1821,-0.1029,-0.0375,-0.0021,0.0,0.0,0.0,0.0,0.0,0.0,0.0,0.0025,0.0,0.0,0.0,0.0,0.0,0.0,0.0,0.0,0.0,0.0,0.0,0.0,0.0,0.0,0.0,0.0,0.0,0.0,0.0,0.0,0.0,0.0,0.0,0.0,0.0,0.0,0.0,0.0,-1.0108,-1.0648,-1.0648,-1.1341,-1.1435,0.0,0.0,0.0,0.0,0.0,0.0,-1.375,-1.4275,-1.4843,-1.5515,-1.6637,-1.7219,-1.7219,-1.7878,-1.8446,-1.8957,-1.8558,-1.8339,-1.8302,-1.7747,-1.7209,-1.6689,-1.6552,-1.6262,-1.5806,-1.4406,-1.3441,-1.2793,-1.2395,-1.2156,-1.2062,-1.2469,-1.215,-1.1606,-1.2205,-1.194,-1.1193,-1.0488,-1.0196,-0.9903,-0.8841,0.0,0.0,0.0,0.0,-0.9668,-1.043,-1.084,-1.1183,-1.1528,-1.1487,-1.129,-1.0883,-0.9955,-0.8564,0.0,-0.5968,-0.5509,-0.4195,0.0,0.0,0.0,0.0,-0.3624,-0.3416,-0.3017,-0.2518,-0.1868,-0.1252,-0.0663,-0.0043,0.0,0.0,0.0,0.0,0.0,0.0,0.0,0.0,0.0,0.0,0.0,0.0,0.0,0.0,0.0,0.0,0.0,0.0,0.0,0.0,0.0,0.0,0.0,0.0,0.0,0.0,0.0,0.0,0.0,0.0,0.0,0.0,0.0,0.0,0.0,0.0,0.0,0.0,-1.2639,-1.3807,0.0,0.0,0.0,0.0,-1.3648,-1.4274,-1.5201,-1.6443,-1.6532,-1.6861,-1.7518,-1.8222,-1.8612,-1.8612,-1.9256,-1.9618,-1.9648,-1.9612,-1.9358,-1.8836,-1.8302,-1.7767,-1.7229,-1.671,-1.6475,-1.64,-1.5819,-1.4959,-1.4015,-1.3972,-1.3627,-1.3134,-1.3222,-1.3228,-1.311,-1.265,-1.2447,-1.2393,-1.2153,-1.1816,-1.1389,-1.0889,-1.0469,0.0,0.0,-1.0801,-1.0918,-1.1398,-1.1557,-1.1577,-1.1596,-1.1214,-1.0838,-1.0816,-0.98,-0.8724,0.0,-0.719,-0.6271,-0.5358,0.0,-0.5072,-0.4573,-0.4681,-0.4663,-0.4211,-0.3748,-0.3033,-0.1917,-0.1252,-0.0649,-0.0045,0.0,0.0,0.0,0.0,0.0,0.0,0.0,0.0,0.0,0.0013,0.0,0.0,0.0,0.0,0.0,0.0,0.0,0.0,0.0,0.0,0.0,0.0,0.0,0.0,0.0,0.0,0.0,0.0,0.0,0.0,0.0,0.0,0.0,0.0,0.0,0.0,0.0,0.0,-1.4689,-1.55,0.0,-1.4481,-1.5157,-1.5666,-1.5666,-1.6293,-1.7056,-1.7938,-1.7997,-1.8296,-1.8972,-1.9211,-1.9348,-1.9348,-1.9588,-1.9708,-1.9708,-1.9708,-1.9424,-1.8893,-1.8688,-1.8322,-1.7787,-1.725,-1.7013,-1.698,-1.6443,-1.5994,-1.563,-1.563,-1.5517,-1.5327,-1.5352,-1.5113,-1.4749,-1.4562,-1.3983,-1.3219,-1.2441,-1.1924,-1.1577,-1.1398,-1.1242,-1.1222,-1.1609,-1.1736,-1.1833,-1.2318,-1.2436,-1.2436,-1.2436,-1.2285,-1.2144,-1.2144,-1.1417,-1.0668,-1.0285,-0.8707,-0.7218,-0.6514,-0.6389,-0.6155,-0.5423,-0.5359,-0.5145,-0.4422,-0.3843,-0.3215,-0.245,-0.1496,-0.0806,-0.0605,-0.0228,0.0,0.0,0.0,0.0,0.0,0.0,0.0,0.0,0.0,0.0026,0.0,0.0,0.0,0.0,0.0,0.0,0.0,0.0,0.0,0.0,0.0,0.0,0.0,0.0,0.0,0.0,0.0,0.0,0.0,0.0,0.0,0.0,0.0,0.0,0.0,0.0,-1.5859,-1.6069,-1.7056,-1.7295,-1.6204,-1.7086,-1.7624,-1.7384,-1.7997,-1.8568,-1.9016,-1.9031,-1.9226,-1.9693,-1.9708,-1.9708,-1.9708,-1.9708,-1.9708,-1.9708,-1.9708,-1.9512,-1.9169,-1.8987,-1.8612,-1.8066,-1.7524,-1.7188,-1.6993,-1.6659,-1.65,-1.65,-1.65,-1.65,-1.65,-1.65,-1.6238,-1.5864,-1.5676,-1.4926,-1.395,-1.3049,-1.2571,-1.2298,-1.2093,-1.2034,-1.2093,-1.2363,-1.2451,-1.252,-1.2827,-1.2905,-1.2905,-1.2905,-1.2905,-1.2905,-1.2905,-1.232,-1.1758,-1.1577,-1.0026,-0.8508,-0.7777,-0.7643,-0.7344,-0.6448,-0.63,-0.5989,-0.512,-0.4487,-0.3807,-0.3045,-0.2093,-0.1429,-0.1228,-0.0806,-0.0549,-0.0549,-0.0481,-0.0436,-0.0436,-0.0436,-0.0376,-0.0246,-0.0075,0.0,0.0,0.0,0.0,0.0,0.0,0.0,0.0,0.0,0.0,0.0,0.0,0.0,0.0,0.0,0.0,0.0,0.0,0.0,0.0,0.0,0.0,0.0,0.0,0.0,-1.4901,-1.6518,-1.7488,-1.6876,-1.8506,-1.8927,-1.698,-1.8568,-1.9438,-1.8777,-1.9331,-1.9708,-1.9708,-1.9708,-1.9708,-1.9738,-1.9738,-1.9738,-1.9738,-1.9753,-1.9753,-1.9738,-1.9753,-1.9768,-1.975,-1.9228,-1.8688,-1.8161,-1.7605,-1.706,-1.6556,-1.6522,-1.6522,-1.65,-1.65,-1.65,-1.65,-1.65,-1.65,-1.6402,-1.582,-1.5208,-1.4629,-1.4027,-1.3815,-1.3684,-1.3104,-1.2905,-1.2905,-1.2905,-1.2905,-1.2905,-1.2905,-1.2905,-1.2905,-1.2905,-1.2905,-1.2905,-1.2905,-1.2344,-1.1839,-1.1839,-1.1096,-1.0138,-0.9104,-0.8927,-0.8599,-0.767,-0.7511,0.0,-0.6333,-0.5685,-0.4848,-0.3654,-0.3023,-0.2475,-0.1873,-0.1694,-0.1609,-0.1605,-0.1425,-0.1308,-0.1305,-0.1305,-0.111,-0.0711,-0.0248,-0.0014,0.0,0.0,0.0,0.0,0.0,0.0,0.0,0.0,0.0,0.0,0.0,0.0,0.0,0.0,0.0,0.0,0.0,0.0,0.0,0.0,0.0,0.0,0.0,-1.7287,-1.6938,-1.7773,-1.8553,-1.8837,-1.9346,-1.9465,-1.8927,-1.9393,-1.9633,-1.9453,-1.9603,-1.9708,-1.9708,-1.9708,-1.9914,-2.0423,-2.0438,-2.0438,-2.0438,-2.0902,-2.0902,-2.0438,-2.0917,-2.1141,-2.1141,-2.099,-2.0571,-1.9953,-1.9426,-1.8632,-1.7687,-1.7245,-1.6858,-1.65,-1.65,-1.65,-1.65,-1.65,-1.65,-1.6402,-1.582,-1.5499,-1.5253,-1.4652,-1.4167,-1.3768,-1.3589,-1.3238,-1.2905,-1.2905,-1.2905,-1.2905,-1.2905,-1.2905,-1.2905,-1.2905,-1.2905,-1.2905,-1.2905,-1.2749,-1.2608,-1.2608,-1.24,-1.1652,-0.9861,-0.94,-0.9002,-0.8258,-0.7943,0.0,-0.6602,-0.5956,-0.5234,-0.4264,-0.3287,-0.263,-0.2475,-0.2014,-0.1701,-0.1609,-0.1549,-0.145,-0.1308,-0.1305,-0.1114,-0.0706,-0.0574,-0.0342,0.0,0.0,0.0,0.0,0.0,0.0,0.0,0.0,0.0,0.0,0.0,0.0,0.0,0.0,0.0,0.0,0.0,0.0,0.0,0.0,0.0,0.0,-1.7563,-1.8586,-1.8762,-1.8987,-1.9256,-1.9648,-1.9708,-1.9708,-1.9708,-1.9944,-2.0124,-2.0124,-2.0378,-2.0546,-2.0546,-2.0546,-2.0707,-2.1111,-2.1126,-2.1126,-2.1126,-2.15,-2.15,-2.1126,-2.1515,-2.1695,-2.1695,-2.1695,-2.135,-2.0744,-2.0158,-1.9404,-1.8513,-1.7674,-1.7165,0.0,0.0,0.0,0.0,0.0,-1.65,-1.6445,-1.6095,-1.5986,-1.5886,-1.5276,-1.4675,-1.412,-1.3886,-1.3372,-1.2905,-1.2905,-1.2905,-1.2905,-1.2905,-1.2905,-1.2905,-1.2905,-1.2905,-1.2905,-1.2905,-1.2905,-1.2905,-1.2905,-1.2905,0.0,-1.0897,-1.0273,-0.9734,-0.8944,-0.8413,-0.7883,-0.7232,-0.6649,-0.6039,-0.5398,-0.4495,-0.382,-0.3448,-0.3034,0.0,0.0,0.0,-0.2159,-0.1979,-0.1783,0.0,0.0,0.0,0.0,0.0,0.0,0.0,0.0,0.0,0.0,0.0,0.0,0.0,0.0,0.0,0.0,0.0,0.0,0.0,0.0,0.0,0.0,0.0,0.0,0.0,0.0,-1.877,-1.9309,-2.0278,-1.9993,-1.9708,-1.9708,-1.9768,-1.9813,-1.9813,-2.0423,-2.0808,-2.0808,-2.1365,-2.1695,-2.1695,0.0,0.0,0.0,0.0,-2.1799,-2.1799,-2.1874,-2.1874,-2.1799,-2.1874,-2.1904,-2.1904,-2.1904,-2.1626,-2.108,-2.0464,-1.988,-1.9229,-1.8142,-1.7599,-1.7413,-1.6773,-1.65,-1.65,-1.65,-1.65,-1.65,-1.65,0.0,0.0,-1.5886,-1.5298,-1.4698,-1.4073,-1.3481,-1.2992,-1.2929,-1.2905,-1.2905,-1.2905,-1.2905,-1.2905,-1.2905,-1.2905,-1.2905,-1.2905,-1.2905,-1.2905,-1.2905,-1.2905,-1.2691,-1.2055,-1.1291,-1.0488,-0.9574,-0.888,-0.8317,-0.7992,-0.7483,-0.7014,-0.67,-0.6087,0.0,-0.4609,-0.4409,-0.4066,-0.343,-0.3205,-0.3044,-0.2919,-0.2525,-0.2247,-0.2138,-0.1265,-0.0807,-0.0802,-0.0255,0.0,0.0,0.0,0.0,0.0,0.0,0.0,0.0,0.0,0.0,0.0,0.0,0.0,0.0,0.0,0.0,0.0,0.0,0.0,-1.9139,-1.9971,-2.068,-2.1044,-2.0281,-1.9708,-1.9708,-2.0183,-2.0494,-2.0494,-2.1111,-2.1515,-2.1515,-2.162,-2.1695,-2.1695,-2.1695,-2.1934,-2.2493,-2.2508,-2.2508,-2.2508,-2.2981,-2.2981,-2.2508,0.0,0.0,-2.3236,-2.3236,-2.292,-2.235,-2.2204,-2.1549,-2.0484,-1.9734,-1.886,-1.794,-1.6889,-1.65,-1.65,-1.65,-1.65,-1.65,-1.65,-1.65,-1.6466,-1.6358,-1.592,-1.532,-1.4721,-1.4107,0.0,-1.3041,-1.2905,-1.2905,-1.2905,-1.2905,-1.2905,-1.2905,-1.2905,-1.2905,-1.2905,-1.2905,-1.2905,-1.2905,-1.2905,-1.2856,-1.2715,-1.1633,-1.0543,-0.9826,-0.9146,-0.8617,-0.8348,-0.7791,-0.7308,-0.702,-0.6214,-0.5639,-0.5457,-0.5237,-0.4791,-0.4074,-0.3439,-0.3087,-0.306,-0.2981,-0.2539,-0.1736,-0.1525,-0.1009,-0.0177,-0.0059,0.0,0.0,0.0,0.0,0.0,0.0,0.0,0.0,0.0,0.0,0.0,0.0,0.0,0.0,0.0,-1.6499,0.0,0.0,-2.002,-2.0736,-2.1131,-2.1456,-2.1762,-2.1174,-2.0711,-2.0711,-2.0707,-2.0823,-2.1171,-2.1799,-2.2209,-2.2209,-2.2473,-2.2652,-2.2652,-2.2652,-2.2802,-2.3152,-2.3152,-2.3152,-2.3152,-2.3445,-2.3445,-2.3152,-2.3445,-2.3595,-2.3595,-2.3595,-2.3443,-2.3128,-2.2834,-2.2366,-2.1691,-2.0452,-1.9455,-1.8557,-1.7678,-1.734,-1.734,-1.734,-1.734,-1.734,-1.734,-1.734,-1.7325,-1.7036,-1.6512,-1.5875,-1.5335,-1.4526,-1.3732,-1.3443,-1.3128,-1.2905,-1.2905,-1.2905,-1.2905,-1.2905,-1.2905,-1.2905,-1.2905,-1.2905,-1.2905,-1.2905,-1.2905,-1.2905,-1.2905,-1.2015,-1.1191,-1.0838,-0.9943,-0.9252,-0.9129,-0.8545,-0.805,-0.7777,-0.7321,-0.6813,-0.6207,-0.5633,-0.5021,-0.435,-0.3961,-0.3593,-0.3216,-0.3236,-0.2992,-0.247,-0.1885,-0.1375,-0.0901,-0.0294,0.0,0.0,0.0,0.0,0.0,0.0,0.0,0.0,0.0,0.0,0.0,0.0,-1.4917,-1.5881,-1.6979,-1.8099,-1.9208,-2.0054,-2.0951,-2.2115,-2.2118,-2.2087,-2.2443,-2.2035,-2.1784,-2.2039,-2.15,-2.1306,-2.1829,-2.2493,-2.2882,-2.2882,-2.3325,-2.3595,-2.3595,-2.3595,-2.3595,-2.3595,-2.3595,-2.3595,-2.3595,-2.3595,-2.3595,-2.3595,-2.3595,-2.3595,-2.3595,-2.3595,-2.3595,-2.3573,-2.3076,-2.2807,-2.2575,-2.0994,-1.997,-1.937,-1.8756,-1.8518,-1.8493,-1.8279,-1.8204,-1.8204,-1.8204,-1.8204,-1.8129,-1.7712,-1.7106,-1.6486,-1.5941,-1.4914,-1.3956,-1.3815,-1.3372,-1.2905,-1.2905,-1.2905,-1.2905,-1.2905,-1.2905,-1.2905,-1.2905,-1.2905,-1.2905,-1.2905,-1.2905,-1.2905,-1.2905,-1.2403,-1.1972,-1.1814,-1.0771,-0.9987,-0.9987,-0.951,-0.9068,-0.8705,-0.863,-0.8099,-0.6881,-0.603,-0.5326,-0.4783,-0.4517,-0.4134,-0.3542,-0.3454,-0.335,-0.3178,-0.2291,-0.1756,-0.1627,-0.0657,-0.0116,0.0,0.0,0.0,-1.384,-1.4177,-1.5109,-1.5814,-1.6046,-1.6684,0.0,0.0,-1.7913,-1.897,-1.9311,-1.9656,-2.0385,-2.1268,-2.1971,-2.2267,-2.2669,-2.3001,-2.3173,-2.2323,-2.2113,-2.3251,-2.2853,-2.2508,-2.2583,-2.3131,-2.349,-2.349,-2.3565,-2.3595,-2.3595,-2.3595,-2.3595,-2.3595,-2.3595,-2.3595,-2.3595,-2.3595,-2.3595,-2.3595,-2.3595,-2.3595,-2.3595,-2.3595,-2.3595,-2.3595,-2.353,-2.3201,-2.2649,-2.1829,-2.1158,-2.0524,-1.9864,-1.9623,-1.951,-1.8555,-1.8204,-1.8204,-1.8204,-1.8204,-1.8191,-1.8129,-1.7731,-1.7169,-1.6521,-1.5499,-1.4491,-1.3956,-1.3372,-1.2905,-1.2905,-1.2905,-1.2905,-1.2905,-1.2905,-1.2905,-1.2905,-1.2905,-1.2905,-1.2905,-1.2905,-1.2905,-1.2905,-1.2822,-1.2559,-1.1888,-1.1166,-1.0695,-1.0695,-1.0618,-1.0348,-0.9717,-0.9432,-0.8779,-0.7515,-0.6824,-0.633,-0.6019,-0.5,-0.4361,-0.4275,-0.3833,-0.3328,-0.2786,-0.2634,-0.2058,-0.0992,-0.0875,-0.0531,0.0,0.0,0.0,-1.7352,-1.7238,0.0,0.0,-1.8334,-1.8468,-1.9525,-1.9094,-1.8689,-1.9531,-1.9708,-1.9884,-2.0569,-2.1337,-2.2002,0.0,-2.3024,-2.3401,-2.3466,-2.2797,-2.2478,-2.3017,-2.2523,-2.2418,-2.3152,-2.3445,-2.3595,-2.3595,-2.3595,-2.3595,-2.3595,-2.3595,-2.3595,-2.3595,-2.3595,-2.3595,-2.3595,-2.3595,-2.3595,-2.3595,-2.3595,-2.3595,-2.3595,-2.3595,-2.3595,-2.3595,-2.3595,-2.3465,-2.3143,-2.2132,-2.1544,-2.1221,-2.0207,-1.9798,-1.9748,-1.9296,-1.9133,-1.9133,-1.9133,-1.9133,-1.9083,-1.8757,-1.8506,-1.8219,-1.7647,-1.6385,-1.51,-1.4863,-1.3879,-1.2905,-1.2905,-1.2905,-1.2905,-1.2905,-1.2905,-1.2905,-1.2905,-1.2905,-1.2905,-1.2905,-1.2905,-1.2905,-1.2905,-1.2905,-1.2798,-1.2476,-1.1832,-1.1391,-1.1391,-1.104,-1.0542,-0.9865,-0.9547,-0.9029,-0.8112,-0.7624,-0.7167,-0.6751,-0.5854,-0.5148,-0.4712,-0.4132,-0.3674,-0.335,-0.3075,-0.268,-0.2185,-0.1819,-0.1529,-0.1272,-0.0832,-0.0636,-1.9497,0.0,0.0,-2.0111,-2.021,-2.0126,-1.9994,-1.9725,-1.9524,-1.9684,-1.9708,-1.9884,-2.0569,-2.1311,-2.2041,-2.2768,-2.3365,-2.3751,-2.3806,-2.3161,-2.2703,-2.2703,-2.2119,-2.2128,-2.3236,-2.334,-2.3415,-2.3595,-2.3595,-2.3595,-2.3595,-2.3595,-2.3595,-2.3595,-2.3595,-2.3595,-2.3595,-2.3595,-2.3595,-2.3595,-2.3595,-2.3595,-2.3595,-2.3595,-2.3595,-2.3595,-2.3595,-2.3595,-2.3508,-2.2225,-2.1697,-2.1578,-2.0308,-1.9798,-1.9798,-1.9798,-1.9798,-1.9798,-1.9798,-1.9798,-1.9748,-1.9334,-1.9121,-1.8933,-1.8531,-1.7183,-1.5713,-1.5557,-1.4353,-1.3104,-1.2954,-1.2905,-1.2905,-1.2905,-1.2905,-1.2905,-1.2905,-1.2905,-1.2905,-1.2905,-1.2905,-1.2905,-1.2905,-1.2905,-1.2905,-1.2905,-1.2452,-1.2104,-1.2104,-1.15,-1.0889,-1.0389,-0.9849,-0.9283,-0.872,-0.8292,-0.7848,-0.7344,-0.649,-0.5755,-0.5217,-0.4418,-0.3944,-0.3856,-0.3519,-0.3257,-0.3087,-0.2655,-0.2365,-0.2175,-0.164,-0.139,0.0,0.0,-2.0927,-2.1054,-2.1553,-2.1916,-2.1532,-2.1441,-2.108,-1.9936,-1.9708,-1.9884,-2.0569,-2.1472,-2.2372,-2.3227,-2.3765,-2.4151,-2.4337,-2.3416,-2.2703,-2.2703,-2.2119,-2.1964,0.0,-2.2718,-2.2972,-2.355,-2.3595,-2.3595,-2.3595,-2.3595,-2.3595,-2.3595,-2.3595,-2.3595,-2.3595,-2.3595,-2.3595,-2.3595,-2.3595,-2.3595,-2.3595,-2.3595,-2.3595,-2.3595,-2.3595,-2.3595,-2.3508,-2.2225,-2.1697,-2.1578,-2.0308,-1.9798,-1.9798,-1.9798,-1.9798,-1.9798,-1.9798,-1.9798,-1.9798,-1.9786,-1.9409,-1.9008,-1.8983,-1.7762,-1.6256,-1.5665,-1.4677,-1.3647,-1.3065,-1.2905,-1.2905,-1.2905,-1.2905,-1.2905,-1.2905,-1.2905,-1.2905,-1.2905,-1.2905,-1.2905,-1.2905,-1.2905,-1.2905,-1.2905,-1.2881,-1.2881,-1.2881,-1.2212,-1.1765,-1.174,-1.0585,-0.9672,-0.9382,-0.8774,-0.8237,-0.7902,-0.6683,-0.5999,-0.5965,-0.4701,-0.3994,-0.3987,-0.3969,-0.3682,-0.31,-0.3074,-0.2777,-0.2199,-0.2171,-0.2173,-2.0718,0.0,-2.1699,-2.2436,-2.2961,-2.3259,-2.3125,-2.2467,-2.1711,-2.1018,-2.0722,-2.0543,-2.0448,-2.1321,-2.2299,-2.3061,-2.3409,-2.3768,-2.4317,-2.3416,-2.2538,-2.2104,-2.1829,0.0,0.0,0.0,0.0,-2.355,-2.3595,-2.3595,-2.3595,-2.3595,-2.3595,-2.3595,-2.3595,-2.3595,-2.3595,-2.3595,-2.3595,-2.3595,-2.3595,-2.3595,-2.3595,-2.3595,-2.3595,-2.3573,-2.3179,-2.3009,-2.2897,-2.1643,-2.1088,-2.1028,-2.0144,-1.9798,-1.9798,-1.9798,-1.9798,-1.9798,-1.9798,-1.9798,-1.9798,-1.9798,-1.9685,-1.9547,-1.9547,-1.8597,-1.7369,-1.6692,-1.5446,-1.4157,-1.3491,-1.3096,-1.2905,-1.2905,-1.2905,-1.2905,-1.2905,-1.2905,-1.2905,-1.2905,-1.2905,-1.2905,-1.2905,-1.2905,-1.2905,-1.2905,-1.2905,-1.2905,-1.2905,-1.2691,-1.2344,-1.1839,-1.1391,-1.0721,-0.9758,-0.9453,-0.9085,-0.8543,-0.7645,-0.7101,-0.7007,-0.5708,-0.4939,-0.4855,-0.4523,-0.423,-0.4032,-0.4032,-0.3917,-0.3707,-0.3176,-0.2926,-2.218,-2.2723,-2.2986,-2.3956,-2.4339,-2.4397,-2.4001,-2.3309,-2.2456,-2.152,-2.1146,-2.091,-2.06,-2.1277,-2.2199,-2.3219,-2.3417,-2.3724,-2.4571,-2.3691,-2.2733,-2.2139,-2.1844,-2.1784,0.0,0.0,0.0,-2.355,-2.3595,-2.3595,-2.3595,-2.3595,-2.3595,-2.3595,-2.3595,-2.3595,-2.3595,-2.3595,-2.3595,-2.3595,-2.3595,-2.3595,-2.3595,-2.3595,-2.3595,-2.3573,-2.3201,-2.2897,-2.2626,-2.1547,-2.1004,-2.0721,-2.0055,-1.9798,-1.9798,-1.9798,-1.9798,-1.9798,-1.9798,-1.9798,-1.9798,-1.9798,-1.9798,-1.9798,-1.9798,-1.9168,-1.8232,-1.7257,-1.6137,-1.5028,-1.4073,-1.3511,-1.3214,-1.3214,-1.3065,-1.2905,-1.2905,-1.2905,-1.2905,-1.2905,-1.2905,-1.2905,-1.2905,-1.2905,-1.2905,-1.2905,-1.2905,-1.2905,-1.2905,-1.2905,-1.2725,-1.2236,-1.1972,-1.1366,-1.0236,-0.9935,-0.951,-0.8831,-0.8103,-0.7673,-0.758,-0.6226,-0.546,-0.5373,-0.479,-0.4491,-0.4491,-0.4491,-0.4491,-0.4491,-0.3956,-0.3732,-2.3427,-2.4,-2.4728,-2.5439,-2.5592,-2.5326,-2.4232,-2.3918,-2.3342,-2.1424,-2.1023,-2.0991,0.0,0.0,-2.2087,-2.3621,-2.3786,-2.406,-2.5088,-2.4244,-2.3291,0.0,0.0,0.0,0.0,0.0,0.0,-2.355,0.0,-2.3595,-2.3595,-2.3595,-2.3595,-2.3595,-2.3595,-2.3595,-2.3595,-2.3595,-2.3595,-2.3595,-2.3595,-2.3595,-2.3595,-2.3595,-2.3573,-2.3551,-2.3551,-2.3187,-2.2558,-2.1913,-2.1293,-2.0696,-2.0055,-1.9798,-1.9798,-1.9798,-1.9798,-1.9798,-1.9798,-1.9798,-1.9798,-1.9798,-1.9798,-1.9798,-1.9798,-1.9434,-1.8746,-1.7407,-1.6746,-1.6103,-1.4754,-1.4098,-1.3776,-1.3755,-1.331,-1.2905,-1.2905,-1.2905,-1.2905,-1.2905,-1.2905,-1.2905,-1.2905,-1.2905,-1.2905,-1.2905,-1.2905,-1.2905,-1.2905,-1.2905,-1.2905,-1.2905,-1.227,-1.1591,-1.0914,-1.0244,-0.9562,-0.8883,-0.8156,-0.775,-0.775,-0.6384,-0.5597,-0.5569,-0.4893,-0.4543,-0.4491,-0.4491,-0.4491,-0.4491,-0.4491,-0.4491,-2.3915,-2.4746,-2.5372,-2.5542,-2.5592,-2.5526,-2.5226,-2.4319,-2.3122,-2.1733,-2.129,-2.0874,0.0,0.0,0.0,-2.3278,-2.3634,0.0,-2.5602,-2.5191,0.0,-2.3326,0.0,-2.3443,-2.2759,-2.3122,0.0,0.0,-2.3595,-2.3595,-2.3595,-2.3595,-2.3595,-2.3595,-2.3595,-2.3595,-2.3595,-2.3595,-2.3595,-2.3595,-2.3595,-2.3595,-2.3595,-2.3595,-2.3341,-2.2934,-2.2934,-2.2314,-2.1272,-2.1102,-2.0633,-2.0029,-1.9875,-1.9798,-1.9798,-1.9798,-1.9798,-1.9798,-1.9798,-1.9798,-1.9798,-1.9798,-1.9798,-1.9798,-1.9798,-1.971,-1.9316,-1.7848,-1.7164,-1.6445,-1.4628,-1.3874,-1.3502,-1.3207,-1.3017,-1.2905,-1.2905,-1.2905,-1.2905,-1.2905,-1.2905,-1.2905,-1.2905,-1.2905,-1.2905,-1.2905,-1.2905,-1.2905,-1.2905,-1.2905,-1.2905,-1.2905,-1.2715,-1.2329,-1.1616,-1.0939,-1.0261,-0.9588,-0.8896,-0.8507,-0.8507,-0.7637,-0.688,-0.634,-0.5601,-0.5003,-0.4491,-0.4491,-0.4491,-0.4491,-0.4491,-0.4491,-2.4746,-2.5524,-2.6082,-2.6082,-2.5845,-2.5439,-2.478,-2.3748,-2.2526,-2.1175,-2.078,0.0,0.0,0.0,0.0,0.0,0.0,0.0,-2.5336,-2.553,-2.5134,0.0,-2.4177,0.0,-2.3179,-2.3385,-2.3595,0.0,-2.3595,-2.3595,-2.3595,-2.3595,-2.3595,-2.3595,-2.3595,-2.3595,-2.3595,-2.3595,-2.3595,-2.3595,-2.3595,-2.3595,-2.3595,-2.3595,-2.3421,-2.3098,-2.3098,-2.2369,-2.1186,-2.1186,-2.0645,-1.9798,-1.9798,-1.9798,-1.9798,-1.9798,-1.9798,-1.9798,-1.9798,-1.9798,-1.9798,-1.9798,-1.9798,-1.9798,-1.9798,-1.9798,-1.9501,-1.8015,-1.7489,-1.6995,-1.5238,-1.4365,-1.3847,-1.3595,-1.3218,-1.2905,-1.2905,-1.2905,-1.2905,-1.2905,-1.2905,-1.2905,-1.2905,-1.2905,-1.2905,-1.2905,-1.2905,-1.2905,-1.2905,-1.2905,-1.2905,-1.2905,-1.2905,-1.2608,-1.1864,-1.1191,-1.0517,-0.984,-0.9159,-0.8804,-0.8804,-0.8103,-0.7503,-0.7101,-0.6032,-0.5328,-0.4948,-0.4653,-0.4491,-0.4491,-0.4491,-0.4491,-2.5693,-2.6201,-2.6674,-2.6573,-2.5998,-2.5067,-2.3596,-2.2682,-2.1688,-2.0052,0.0,-1.9782,-1.9596,-2.0382,-2.1292,-2.204,0.0,-2.4486,-2.4844,-2.5452,-2.5501,-2.4617,-2.445,-2.423,-2.3794,-2.3729,-2.3774,-2.3864,-2.3789,-2.3684,-2.3595,-2.3595,-2.3595,-2.3595,-2.3595,-2.364,-2.3729,-2.3729,-2.3729,-2.3729,-2.3729,-2.3729,-2.3729,-2.3729,-2.3731,-2.374,-2.3731,-2.2962,-2.1701,-2.1714,-2.0939,-1.9798,-1.9798,-1.9798,-1.9798,-1.9798,-1.9798,-1.9798,-1.9798,-1.9798,-1.9798,-1.9798,-1.9798,-1.9798,-1.9798,-1.9798,-1.9501,-1.8015,-1.7722,-1.7497,-1.5976,-1.4971,-1.4349,-1.4298,-1.3574,-1.2905,-1.2905,-1.2905,-1.2905,-1.2905,-1.2905,-1.2905,-1.2905,-1.2905,-1.2905,-1.2905,-1.2905,-1.2905,-1.2905,-1.2905,-1.2905,-1.2905,-1.2905,-1.2608,-1.1864,-1.1191,-1.0517,-0.984,-0.9159,-0.8804,-0.8804,-0.8182,-0.7803,-0.7696,-0.6438,-0.5706,-0.5487,-0.4924,-0.4598,-0.4491,-0.4491,-0.4491,-2.6167,-2.659,-2.6539,-2.5947,-2.5236,-2.4305,-2.2835,-2.1921,0.0,0.0,-1.8674,-1.8724,-1.7501,-1.8877,-2.0471,-2.1258,0.0,0.0,0.0,0.0,-2.5022,0.0,0.0,0.0,0.0,0.0,0.0,0.0,-2.4739,-2.4171,-2.3625,-2.3595,-2.3595,-2.3595,-2.3595,-2.3879,-2.4425,-2.4425,-2.4425,-2.4425,-2.4425,-2.4425,-2.4425,-2.4425,-2.4458,-2.4524,-2.4468,0.0,-2.1785,-2.1725,-2.0939,-1.9798,-1.9798,-1.9798,-1.9798,-1.9798,-1.9798,-1.9798,-1.9798,-1.9798,-1.9798,-1.9798,-1.9798,-1.9798,-1.9798,-1.9798,-1.9501,-1.8015,-1.762,-1.7246,-1.5439,-1.4567,-1.4083,-1.3728,-1.3283,-1.2905,-1.2905,-1.2905,-1.2905,-1.2905,-1.2905,-1.2905,-1.2905,-1.2905,-1.2905,-1.2905,-1.2905,-1.2905,-1.2905,-1.2905,-1.2905,-1.2905,-1.2905,-1.2608,-1.1864,-1.1191,-1.0517,-0.984,-0.9159,-0.8804,-0.8804,-0.8672,-0.8321,-0.7723,-0.745,-0.6713,-0.5515,-0.5378,-0.503,-0.4491,-0.4491,-0.4491,-2.6387,-2.6691,-2.6522,-2.5795,-2.505,-2.4017,-2.2155,0.0,0.0,0.0,-1.7518,-1.7534,-1.6834,0.0,0.0,0.0,0.0,0.0,0.0,0.0,0.0,0.0,0.0,0.0,0.0,0.0,0.0,0.0,-2.5292,-2.4978,-2.4657,-2.4328,-2.3969,-2.361,-2.3939,-2.4276,-2.4605,-2.4948,-2.5113,-2.5113,-2.5113,-2.5113,-2.5113,-2.5113,-2.5138,-2.5138,-2.4774,-2.3715,-2.2235,-2.1863,-2.0939,-1.9798,-1.9798,-1.9798,-1.9798,-1.9798,-1.9798,-1.9798,-1.9798,-1.9798,-1.9798,-1.9798,-1.9798,-1.9798,-1.9798,-1.9798,-1.9553,-1.8474,-1.7895,-1.7302,-1.6025,-1.5091,-1.4424,-1.4219,-1.3682,-1.3145,-1.2954,-1.2905,-1.2905,-1.2905,-1.2905,-1.2905,-1.2905,-1.2905,-1.2905,-1.2905,-1.2905,-1.2774,-1.2369,-1.232,-1.232,-1.232,-1.232,-1.203,-1.1341,-1.0669,-1.0141,-0.9814,-0.9159,-0.8804,-0.8804,-0.8804,-0.8646,-0.8289,-0.7889,-0.7343,-0.6659,-0.6253,-0.5905,-0.5582,-0.5582,-0.5386,-2.6251,-2.6573,-2.6488,-2.5592,-2.4931,-2.3881,-2.1495,-1.9887,0.0,0.0,-1.6451,-1.6451,-1.6451,0.0,0.0,0.0,0.0,0.0,0.0,0.0,0.0,0.0,0.0,0.0,0.0,0.0,0.0,0.0,-2.5899,-2.5749,-2.5615,-2.5098,-2.456,-2.4044,-2.453,-2.4889,-2.5023,-2.5555,-2.5809,-2.5809,-2.5809,-2.5809,-2.5809,-2.5809,-2.5804,-2.5758,-2.4957,-2.3894,-2.2613,-2.1835,-2.083,-1.9798,-1.9798,-1.9798,-1.9798,-1.9798,-1.9798,-1.9798,-1.9798,-1.9798,-1.9798,-1.9798,-1.9798,-1.9798,-1.9798,-1.9798,-1.9643,-1.89,-1.8178,-1.744,-1.668,-1.5654,-1.4736,-1.4578,-1.3994,-1.3389,-1.2993,-1.2905,-1.2905,-1.2905,-1.2905,-1.2905,-1.2905,-1.2905,-1.2905,-1.2905,-1.2905,-1.2691,-1.2104,-1.1888,-1.1789,-1.1789,-1.1789,-1.1541,-1.0864,-1.0312,-0.9891,-0.9614,-0.908,-0.8804,-0.8804,-0.8804,-0.8804,-0.8804,-0.8242,-0.7857,-0.7696,-0.7128,-0.675,-0.6588,-0.6588,-0.6199,-2.5507,-2.6184,-2.6353,-2.4948,-2.4541,-2.3729,-2.0775,0.0,0.0,-1.6136,-1.5697,-1.5697,-1.5697,-1.6915,0.0,0.0,0.0,0.0,0.0,0.0,0.0,0.0,0.0,0.0,0.0,0.0,0.0,-2.7375,-2.6866,-2.6243,-2.5621,-2.5555,-2.5495,-2.5435,-2.5495,-2.5809,-2.6408,-2.6467,-2.6497,-2.6497,-2.6497,-2.6497,-2.6497,-2.6497,-2.6465,-2.6344,-2.5191,-2.3909,0.0,-2.137,-2.0446,-1.9798,-1.9798,-1.9798,-1.9798,-1.9798,-1.9798,-1.9798,-1.9798,-1.9798,-1.9798,-1.9798,-1.9798,-1.9798,-1.9798,-1.9798,-1.9643,-1.89,-1.8178,-1.744,-1.668,-1.5654,-1.459,-1.3809,-1.3564,-1.3389,-1.2993,-1.2905,-1.2905,-1.2905,-1.2905,-1.2905,-1.2905,-1.2905,-1.2905,-1.2905,-1.2905,-1.2881,-1.2798,-1.2212,-1.1789,-1.1789,-1.1789,-1.1541,-1.0864,-1.0737,-1.0192,-0.8962,-0.8831,-0.8804,-0.8804,-0.8804,-0.8804,-0.8804,-0.8725,-0.8374,-0.7696,-0.7643,-0.7262,-0.6588,-0.6588,-0.6199,-2.5287,-2.5812,-2.5795,-2.4762,-2.4491,-2.3712,-2.069,0.0,-1.7743,-1.5967,-1.5257,-1.5061,-1.5511,-1.6441,-1.7619,0.0,-1.9232,-1.9832,-2.1772,0.0,0.0,0.0,0.0,0.0,0.0,0.0,0.0,-2.757,-2.7345,-2.7091,-2.6821,-2.6033,-2.5615,-2.5615,-2.5989,-2.6318,-2.6587,-2.7001,-2.7001,-2.6587,-2.6587,-2.6587,-2.6587,-2.6587,-2.6558,-2.6438,-2.5218,-2.3904,0.0,-2.1309,-2.0396,-1.9798,-1.9798,-1.9798,-1.9798,-1.9798,-1.9798,-1.9798,-1.9798,-1.9798,-1.9798,-1.9798,-1.9798,-1.9798,-1.9798,-1.9798,-1.9747,-1.9449,-1.8821,-1.8085,-1.7357,-1.6177,-1.501,-1.4414,-1.4082,-1.3743,-1.335,-1.3057,-1.2905,-1.2905,-1.2905,-1.2905,-1.2905,-1.2905,-1.2905,-1.2905,-1.2905,-1.2593,-1.1742,-1.1375,-1.104,-1.0644,-1.0593,-1.0491,-1.0218,-0.984,-0.9361,-0.8831,-0.8804,-0.8804,-0.8804,-0.8804,-0.8804,-0.8804,-0.8804,-0.8646,-0.8374,-0.8374,-0.8209,-0.791,-0.791,-0.7289,-2.4611,-2.5118,-2.5101,-2.4355,-2.4169,-2.3441,0.0,-1.8865,-1.7377,-1.59,-1.5011,-1.4723,-1.546,-1.6197,-1.7179,0.0,-1.8657,-1.9064,-2.0839,0.0,0.0,0.0,0.0,0.0,0.0,0.0,-2.76,-2.76,-2.742,-2.739,-2.7585,-2.6512,-2.5989,-2.6183,-2.6632,-2.6911,-2.6911,-2.7165,-2.7076,-2.6587,-2.6393,-2.6408,-2.6572,-2.6393,-2.6163,-2.5847,-2.4615,-2.331,0.0,-2.0925,-2.0232,-1.9798,-1.9798,-1.9798,-1.9798,-1.9798,-1.9798,-1.9798,-1.9798,-1.9798,-1.9798,-1.9798,-1.9798,-1.9798,-1.9798,-1.9798,-1.9798,-1.9798,-1.9123,-1.8194,-1.7468,-1.633,-1.5273,-1.4727,-1.4328,-1.3958,-1.3437,-1.3096,-1.2905,-1.2905,-1.2905,-1.2905,-1.2905,-1.2905,-1.2905,-1.2905,-1.2905,-1.2461,-1.1241,-1.0914,-1.0618,-1.0141,-0.9736,-0.9588,-0.9788,-0.9361,-0.9008,-0.8804,-0.8804,-0.8804,-0.8804,-0.8804,-0.8804,-0.8804,-0.8804,-0.8804,-0.8804,-0.8804,-0.8804,-0.8804,-0.856,-0.7691,-2.3224,-2.3966,-2.4321,-2.3596,-2.341,-2.2818,0.0,-1.8865,-1.7377,-1.59,-1.5011,-1.4723,-1.546,-1.6197,-1.7179,-1.8657,-1.9507,-1.996,-1.9916,0.0,0.0,0.0,0.0,0.0,0.0,-2.6422,-2.76,-2.76,-2.7001,0.0,-2.7555,-2.6971,-2.6896,-2.7555,-2.7585,-2.7585,-2.7585,-2.6941,-2.6602,-2.6572,-2.5929,-2.5959,-2.6572,-2.5914,-2.5213,-2.4443,-2.3225,-2.1974,0.0,-2.0063,-1.9798,-1.9798,-1.9798,-1.9798,-1.9798,-1.9798,-1.9798,-1.9798,-1.9798,-1.9798,-1.9798,-1.9798,-1.9798,-1.9798,-1.9798,-1.9798,-1.9798,-1.9798,-1.8741,-1.744,-1.6708,-1.595,-1.5167,-1.4319,-1.4114,-1.388,-1.3066,-1.2905,-1.2905,-1.2905,-1.2905,-1.2905,-1.2905,-1.2905,-1.2905,-1.2905,-1.2905,-1.2642,-1.1898,-1.1216,-1.0788,-1.0788,-0.9614,-0.9087,-0.9736,-0.9788,-0.9517,-0.8831,-0.8804,-0.8804,-0.8804,-0.8804,-0.8804,-0.8804,-0.8804,-0.8804,-0.8804,-0.8804,-0.8804,-0.8778,-0.8049,-0.6929,-2.1833,-2.2429,-2.2818,-2.2087,-2.1901,-2.1427,-1.9655,-1.8115,-1.6773,-1.5798,-1.5011,-1.4723,-1.546,-1.6197,-1.7179,-1.8657,-1.9096,0.0,0.0,0.0,0.0,0.0,0.0,0.0,0.0,0.0,-2.76,-2.76,-2.7405,-2.7375,-2.7585,-2.6971,-2.6926,-2.757,-2.76,-2.7375,-2.6926,-2.6716,-2.6138,-2.5217,-2.5008,-2.5023,-2.5217,-2.5008,-2.4549,-2.3849,-2.3045,-2.1935,-2.0641,-2.0037,-1.9798,-1.9798,-1.9798,-1.9798,-1.9798,-1.9798,-1.9798,-1.9798,-1.9798,-1.9798,-1.9798,-1.9798,-1.9798,-1.9798,-1.9798,-1.9798,-1.9798,-1.9798,-1.8741,-1.755,-1.7302,-1.633,-1.5342,-1.504,-1.4533,-1.4036,-1.3773,-1.3281,-1.2905,-1.2905,-1.2905,-1.2905,-1.2905,-1.2905,-1.2905,-1.2905,-1.2905,-1.2461,-1.1266,-1.0939,-1.0618,-1.0167,-0.9335,-0.9087,-0.9736,-0.9387,-0.9035,-0.8804,-0.8804,-0.8804,-0.8804,-0.8804,-0.8804,-0.8804,-0.8804,-0.8804,-0.8804,-0.8804,-0.8804,-0.8778,-0.8049,-0.7182,0.0,-2.0873,-2.1316,-2.0856,-2.0737,-2.0348,-1.8826,-1.7568,-1.64,-1.5392,-1.4825,-1.4695,-1.5305,-1.6126,-1.7045,-1.8128,-1.8872,0.0,0.0,0.0,0.0,0.0,0.0,0.0,0.0,-2.73,-2.76,-2.76,-2.736,-2.7225,-2.7225,-2.6572,-2.6408,-2.6811,-2.6866,-2.6776,-2.6587,-2.6093,-2.5435,-2.4605,-2.4335,-2.435,-2.459,-2.4335,-2.388,-2.3241,-2.2591,-2.1588,0.0,-1.9949,-1.9798,-1.9798,-1.9798,-1.9798,-1.9798,-1.9798,-1.9798,-1.9798,-1.9798,-1.9798,-1.9798,-1.9798,-1.9798,-1.9798,-1.9798,-1.9798,-1.9798,-1.9798,-1.8741,-1.7605,-1.7605,-1.65,-1.5371,-1.5215,-1.4766,-1.426,-1.3938,-1.3486,-1.3066,-1.2935,-1.2905,-1.2905,-1.2905,-1.2905,-1.2905,-1.2905,-1.2905,-1.2486,-1.1316,-1.0965,-1.0542,-0.9865,-0.9211,-0.8962,-0.9387,-0.9035,-0.8804,-0.8804,-0.8804,-0.8804,-0.8804,-0.8804,-0.8804,-0.8804,-0.8804,-0.8804,-0.8804,-0.8804,-0.8646,-0.8374,-0.8209,-0.7423,0.0,0.0,0.0,0.0,-1.9681,-1.9338,-1.7952,-1.7067,0.0,-1.4755,-1.4528,-1.4706,-1.511,-1.6051,-1.6946,-1.7455,-1.8922,0.0,0.0,0.0,0.0,0.0,0.0,0.0,-2.5749,-2.6881,-2.76,-2.76,-2.6986,-2.6587,-2.6587,-2.5929,-2.5555,-2.5615,-2.551,-2.5779,-2.6437,-2.5217,-2.459,-2.453,-2.3909,-2.3939,-2.4515,-2.385,-2.3202,0.0,-2.1935,-2.0953,-1.9798,-1.9798,-1.9798,-1.9798,-1.9798,-1.9798,-1.9798,-1.9798,-1.9798,-1.9798,-1.9798,-1.9798,-1.9798,-1.9798,-1.9798,-1.9798,-1.9798,-1.9798,-1.9798,-1.9798,-1.8741,-1.7605,-1.7605,-1.65,-1.5312,-1.4922,-1.4805,-1.4561,-1.373,-1.3525,-1.3379,-1.2983,-1.2905,-1.2905,-1.2905,-1.2905,-1.2905,-1.2905,-1.2905,-1.2618,-1.1823,-1.1191,-1.0542,-0.9865,-0.9211,-0.8804,-0.8857,-0.8831,-0.8804,-0.8804,-0.8804,-0.8804,-0.8804,-0.8804,-0.8804,-0.8804,-0.8804,-0.8804,-0.8804,-0.8804,-0.8454,-0.7803,-0.848,-0.7658,-1.5433,0.0,-1.7348,-1.6779,-1.6627,-1.6542,0.0,-1.5544,-1.4862,0.0,0.0,0.0,-1.5928,-1.6853,-1.8034,-1.9511,-1.9883,-1.9986,0.0,0.0,0.0,0.0,-2.5764,-2.6581,-2.7091,-2.742,-2.76,-2.76,-2.6986,-2.6587,-2.6587,-2.5495,-2.5068,-2.5576,-2.4597,-2.4403,-2.5053,-2.4769,-2.4335,-2.3834,-2.3684,-2.3684,-2.3812,-2.3194,-2.2546,-2.1894,-2.1288,-2.0534,-1.9798,-1.9798,-1.9798,-1.9798,-1.9798,-1.9798,-1.9798,-1.9798,-1.9798,-1.9798,-1.9798,-1.9798,-1.9798,-1.9798,-1.9798,-1.9798,-1.9798,-1.9798,-1.9798,-1.9798,-1.8741,-1.7605,-1.7605,-1.65,-1.5391,-1.5283,-1.5019,-1.4639,-1.4075,-1.3714,-1.3379,-1.2983,-1.2905,-1.2905,-1.2905,-1.2905,-1.2905,-1.2905,-1.2905,-1.2437,-1.1191,-1.0889,-1.0542,-0.9865,-0.9211,-0.9008,-0.951,-0.908,-0.8804,-0.8804,-0.8804,-0.8804,-0.8804,-0.8804,-0.8804,-0.8804,-0.8804,-0.8804,-0.8804,-0.8804,-0.8725,-0.8533,-0.8725,-0.8209,-1.4005,-1.5561,-1.7101,-1.6712,-1.6864,-1.6984,-1.649,0.0,0.0,0.0,0.0,0.0,0.0,0.0,0.0,0.0,-1.9659,0.0,0.0,0.0,0.0,0.0,-2.6452,-2.721,0.0,-2.733,-2.7151,-2.7151,-2.6243,-2.5689,-2.5689,-2.4694,-2.4328,-2.4672,-2.3984,-2.3924,-2.459,-2.4291,-2.3969,-2.3595,-2.3334,-2.3201,-2.3179,-2.2529,-2.1889,-2.1269,-2.093,-2.0421,-1.9798,-1.9798,-1.9798,-1.9798,-1.9798,-1.9798,-1.9798,-1.9798,-1.9798,-1.9798,-1.9798,-1.9798,-1.9798,-1.9798,-1.9798,-1.9747,-1.9397,-1.9293,-1.9371,-1.9695,-1.8501,-1.7163,-1.7523,-1.65,-1.541,-1.541,-1.5234,-1.4951,-1.4521,-1.4258,-1.3906,-1.3291,-1.3164,-1.3105,-1.2935,-1.2905,-1.2905,-1.2905,-1.2905,-1.251,-1.1391,-1.099,-1.0542,-0.9865,-0.9211,-0.8962,-0.9309,-0.9008,-0.8804,-0.8804,-0.8804,-0.8804,-0.8804,-0.8804,-0.8804,-0.8804,-0.8804,-0.8804,-0.8804,-0.8804,-0.8804,-0.8804,-0.8804,-0.8401,-1.3581,-1.5604,-1.7602,-1.7355,-1.7946,-1.8283,0.0,0.0,0.0,0.0,0.0,0.0,0.0,0.0,0.0,0.0,0.0,0.0,0.0,0.0,0.0,0.0,-2.6587,0.0,-2.7435,-2.6851,-2.6437,-2.6437,-2.5292,-2.4605,-2.4605,-2.3947,-2.3595,-2.3595,-2.3595,-2.3879,-2.444,-2.3872,-2.3595,-2.3595,-2.2987,-2.2694,-2.2672,-2.1913,-2.1269,-2.0795,-2.0696,-2.0321,-1.9798,-1.9798,-1.9798,-1.9798,-1.9798,-1.9798,-1.9798,-1.9798,-1.9798,-1.9798,-1.9798,-1.9798,-1.9798,-1.9798,-1.9798,-1.9669,-1.8927,-1.8608,-1.8661,-1.9281,-1.8043,-1.6652,-1.7274,-1.6415,-1.541,-1.541,-1.541,-1.5293,-1.4873,-1.4813,-1.4531,-1.3672,-1.3506,-1.3379,-1.2983,-1.2905,-1.2905,-1.2905,-1.2905,-1.2593,-1.1774,-1.1166,-1.0491,-0.9744,-0.9133,-0.8804,-0.8804,-0.8804,-0.8804,-0.8804,-0.8804,-0.8804,-0.8804,-0.8804,-0.8804,-0.8804,-0.8804,-0.8804,-0.8804,-0.8804,-0.8804,-0.8804,-0.8804,-0.8401,-1.4378,-1.5829,-1.6629,-1.5339,-1.6035,-1.6749,-1.5676,0.0,0.0,0.0,0.0,0.0,0.0,0.0,0.0,0.0,0.0,-2.1827,0.0,0.0,-2.4223,-2.5442,0.0,-2.6123,-2.6692,-2.6153,-2.5749,-2.5749,-2.5038,-2.4605,-2.4605,-2.3947,-2.3595,-2.3595,-2.3595,-2.3655,-2.3759,-2.3655,-2.3595,-2.3595,-2.2987,-2.2694,-2.2649,-2.1489,-2.0894,-2.0771,-2.0207,-1.9901,-1.9798,-1.9798,-1.9798,-1.9798,-1.9798,-1.9798,-1.9798,-1.9798,-1.9798,-1.9798,-1.9798,-1.9798,-1.9798,-1.9798,-1.9798,-1.9669,-1.8927,-1.8259,-1.7797,-1.7907,-1.7246,-1.6521,-1.6652,-1.6036,-1.541,-1.541,-1.541,-1.5293,-1.4873,-1.4813,-1.4531,-1.3672,-1.3506,-1.3379,-1.2983,-1.2905,-1.2905,-1.2905,-1.2905,-1.2437,-1.1116,-1.0864,-1.0346,-0.9087,-0.8857,-0.8804,-0.8804,-0.8804,-0.8804,-0.8804,-0.8804,-0.8804,-0.8804,-0.8804,-0.8804,-0.8804,-0.8804,-0.8804,-0.8804,-0.8804,-0.8804,-0.8804,-0.8804,-0.8401,-1.3678,-1.5059,-1.6084,-1.5332,-1.6799,-1.8244,-1.7574,0.0,0.0,0.0,0.0,0.0,0.0,0.0,0.0,0.0,0.0,-2.2404,-2.2915,-2.3649,-2.4365,0.0,0.0,-2.5734,-2.6033,-2.5442,-2.5053,-2.5053,-2.444,-2.4073,-2.4073,-2.3774,-2.3595,-2.3595,-2.3595,-2.3595,-2.3595,-2.3595,-2.3443,-2.3113,-2.246,-2.1997,-2.1633,-2.0683,-2.0258,-2.0245,-1.9927,-1.9798,-1.9798,-1.9798,-1.9798,-1.9798,-1.9798,-1.9798,-1.9798,-1.9798,-1.9798,-1.9798,-1.9798,-1.9798,-1.9798,-1.9798,-1.9527,-1.9071,-1.834,-1.7578,-1.6922,-1.6528,-1.6169,-1.6007,-1.6407,-1.595,-1.541,-1.541,-1.541,-1.5361,-1.5166,-1.5117,-1.4941,-1.4316,-1.4014,-1.3685,-1.3291,-1.3027,-1.2774,-1.2369,-1.2632,-1.2264,-1.0499,-1.0593,-1.0295,-0.8936,-0.8804,-0.8804,-0.8804,-0.8804,-0.8804,-0.8804,-0.8804,-0.8804,-0.8804,-0.8804,-0.8804,-0.8804,-0.8804,-0.8804,-0.8804,-0.8804,-0.8804,-0.8804,-0.8804,-0.8401,-1.3315,-1.4511,-1.564,-1.587,0.0,-1.9384,-1.917,0.0,0.0,0.0,0.0,0.0,0.0,0.0,0.0,-2.0763,-2.2039,-2.2912,-2.2912,-2.3759,-2.4425,-2.459,-2.4903,-2.5196,-2.5337,-2.4754,-2.4365,-2.4365,-2.3894,-2.3595,-2.3595,-2.3595,-2.3595,-2.3595,-2.3595,-2.353,-2.3399,-2.3399,-2.3143,-2.2694,-2.2016,-2.139,-2.0771,-2.0105,-1.9798,-1.9798,-1.9798,-1.9798,-1.9798,-1.9798,-1.9798,-1.9798,-1.9798,-1.9798,-1.9798,-1.9798,-1.9798,-1.9798,-1.9798,-1.9798,-1.9773,-1.9618,-1.915,-1.8528,-1.7633,-1.695,-1.635,-1.5613,-1.541,-1.5526,-1.6093,-1.5806,-1.541,-1.541,-1.541,-1.541,-1.541,-1.541,-1.5283,-1.4891,-1.4434,-1.3977,-1.3584,-1.302,-1.2452,-1.1898,-1.2138,-1.1776,-1.002,-1.0244,-1.0115,-0.8936,-0.8804,-0.8804,-0.8804,-0.8804,-0.8804,-0.8804,-0.8804,-0.8804,-0.8804,-0.8804,-0.8804,-0.8804,-0.8804,-0.8804,-0.8804,-0.8804,-0.8804,-0.8804,-0.8804,-0.8315,-1.4458,-1.4964,-1.5149,-1.6338,-1.735,0.0,-1.8252,-1.8238,0.0,0.0,0.0,0.0,0.0,0.0,-2.1515,-2.1605,-2.2697,-2.3535,-2.3535,0.0,-2.3909,-2.453,-2.4081,-2.3999,-2.4605,-2.4066,-2.367,-2.367,-2.3625,-2.3595,-2.3595,-2.3595,-2.3595,-2.3595,-2.3595,-2.3334,-2.2762,-2.2762,-2.274,-2.2694,-2.2016,-2.139,-2.0771,-2.0105,-1.9798,-1.9798,-1.9798,-1.9798,-1.9798,-1.9798,-1.9798,-1.9798,-1.9798,-1.9798,-1.9798,-1.9798,-1.9798,-1.9798,-1.9798,-1.9798,-1.9695,-1.9006,-1.8741,-1.8436,-1.7006,-1.6539,-1.635,-1.5613,-1.541,-1.541,-1.5468,-1.5439,-1.541,-1.541,-1.541,-1.541,-1.541,-1.541,-1.5283,-1.4891,-1.4434,-1.3977,-1.3584,-1.2607,-1.1864,-1.1814,-1.1316,-1.0669,-0.9891,-0.984,-0.9588,-0.8883,-0.8804,-0.8804,-0.8804,-0.8804,-0.8804,-0.8804,-0.8804,-0.8804,-0.8804,-0.8804,-0.8804,-0.8804,-0.8804,-0.8804,-0.8804,-0.8804,-0.8804,-0.8804,-0.8804,-0.8049,-1.3056,-1.405,-1.502,-1.5919,0.0,0.0,0.0,0.0,0.0,0.0,0.0,0.0,0.0,0.0,-2.1695,-2.1695,-2.2772,-2.3595,-2.3595,-2.3595,-2.3684,-2.3954,-2.3759,-2.3699,-2.3947,-2.3744,-2.3595,-2.3595,-2.3595,-2.3595,-2.3595,-2.3595,-2.3595,-2.3595,-2.3595,-2.3312,-2.2694,-2.2694,-2.2291,-2.1513,-2.1259,-2.0794,-2.0182,-1.9927,-1.9798,-1.9798,-1.9798,-1.9798,-1.9798,-1.9798,-1.9798,-1.9798,-1.9798,-1.9798,-1.9798,-1.9798,-1.9798,-1.9798,-1.9798,-1.9798,-1.9669,-1.8939,-1.8394,-1.7825,-1.6821,-1.6179,-1.5748,-1.5468,-1.541,-1.541,-1.541,-1.541,-1.541,-1.541,-1.541,-1.541,-1.541,-1.541,-1.5371,-1.5205,-1.4834,-1.4404,-1.3948,-1.295,-1.1994,-1.1276,-1.0965,-1.0415,-0.9309,-0.9717,-0.9788,-0.8904,-0.8804,-0.8804,-0.8804,-0.8804,-0.8804,-0.8804,-0.8804,-0.8804,-0.8804,-0.8804,-0.8804,-0.8804,-0.8804,-0.8804,-0.8804,-0.8804,-0.8804,-0.8778,-0.8321,-0.7563,-1.2597,-1.3733,-1.496,0.0,0.0,0.0,0.0,0.0,0.0,0.0,0.0,0.0,0.0,0.0,0.0,0.0,-2.2906,-2.3595,-2.3595,-2.3595,-2.3595,-2.3595,-2.3595,-2.3595,-2.3595,-2.3595,-2.3595,-2.3595,-2.3595,-2.3595,-2.3595,-2.3595,-2.3595,-2.3595,-2.3595,-2.3209,-2.2392,-2.2369,-2.1724,-2.0472,-2.0472,-2.0245,-1.9798,-1.9798,-1.9798,-1.9798,-1.9798,-1.9798,-1.9798,-1.9798,-1.9798,-1.9798,-1.9798,-1.9798,-1.9798,-1.9798,-1.9798,-1.9798,-1.9798,-1.9798,-1.9643,-1.8661,-1.8004,-1.7413,-1.6454,-1.5806,-1.541,-1.541,-1.541,-1.541,-1.541,-1.541,-1.541,-1.541,-1.541,-1.541,-1.541,-1.541,-1.541,-1.541,-1.4961,-1.4482,-1.4163,-1.2915,-1.1687,-1.093,-1.044,-0.9877,-0.9031,-0.9513,-0.9733,-0.9146,-0.8998,-0.8978,-0.9078,-0.9085,-0.9085,-0.9085,-0.9085,-0.8998,-0.8818,-0.8804,-0.8804,-0.8804,-0.8804,-0.8804,-0.8804,-0.8804,-0.8804,-0.8778,-0.8049,-0.7316,-1.3615,-1.4288,-1.4975,0.0,0.0,0.0,0.0,0.0,0.0,0.0,0.0,-2.171,-2.171,0.0,0.0,-2.2583,-2.3212,-2.3595,-2.3595,-2.3595,-2.3595,-2.3595,-2.3595,-2.3595,-2.3595,-2.3595,-2.3595,-2.3595,-2.3595,-2.3595,-2.3595,-2.3595,-2.3595,-2.3595,-2.3595,-2.298,-2.1697,-2.1697,-2.1062,-1.9798,-1.9798,-1.9798,-1.9798,-1.9798,-1.9798,-1.9798,-1.9798,-1.9798,-1.9798,-1.9798,-1.9798,-1.9798,-1.9798,-1.9798,-1.9798,-1.9798,-1.9798,-1.9798,-1.9798,-1.9798,-1.9553,-1.807,-1.7578,-1.733,-1.5864,-1.541,-1.541,-1.541,-1.541,-1.541,-1.541,-1.541,-1.541,-1.541,-1.541,-1.541,-1.541,-1.541,-1.541,-1.541,-1.4689,-1.4114,-1.4077,-1.2252,-1.0796,-1.0788,-0.9666,-0.8884,-0.9178,-0.9217,-0.9331,-0.9659,-0.9391,-0.9331,-0.9659,-0.9715,-0.9715,-0.9715,-0.9715,-0.9419,-0.8838,-0.8811,-0.8811,-0.8804,-0.8804,-0.8804,-0.8804,-0.8804,-0.8804,-0.8785,-0.8049,-0.7295,-1.3044,-1.4272,0.0,0.0,0.0,0.0,0.0,0.0,0.0,0.0,0.0,-2.2403,-2.2403,0.0,0.0,-2.2658,-2.3212,-2.3595,-2.3595,-2.3595,-2.3595,-2.3595,-2.3595,-2.3595,-2.3595,-2.3595,-2.3595,-2.3595,-2.3595,-2.3595,-2.3595,-2.3595,-2.3595,-2.3595,-2.3595,-2.298,-2.1697,-2.1697,-2.1062,-1.9798,-1.9798,-1.9798,-1.9798,-1.9798,-1.9798,-1.9798,-1.9798,-1.9798,-1.9798,-1.9798,-1.9798,-1.9798,-1.9798,-1.9798,-1.9798,-1.9798,-1.9798,-1.9721,-1.9202,-1.9044,-1.8768,-1.7302,-1.6838,-1.6652,-1.569,-1.541,-1.541,-1.541,-1.541,-1.541,-1.541,-1.541,-1.541,-1.541,-1.541,-1.541,-1.541,-1.541,-1.541,-1.541,-1.4971,-1.4355,-1.3523,-1.2246,-1.1014,-1.0223,-0.9361,-0.8991,-0.9486,-0.9552,-0.9666,-0.996,-0.9726,-0.9586,-0.9708,-0.9715,-0.9715,-0.9715,-0.9715,-0.9512,-0.9098,-0.9084,-0.8991,-0.8811,-0.8804,-0.8804,-0.8804,-0.8804,-0.8884,-0.905,-0.7589,-0.6998,-1.385,-1.505,0.0,0.0,0.0,0.0,0.0,0.0,0.0,0.0,0.0,-2.2778,-2.3017,-2.2868,0.0,-2.3017,-2.3355,-2.3595,-2.3595,-2.3595,-2.3595,-2.3595,-2.3595,-2.3595,-2.3595,-2.3595,-2.3595,-2.3595,-2.3595,-2.3595,-2.3595,-2.3595,-2.3595,-2.3595,-2.3595,-2.298,-2.1697,-2.1697,-2.1062,-1.9798,-1.9798,-1.9798,-1.9798,-1.9798,-1.9798,-1.9798,-1.9798,-1.9798,-1.9798,-1.9798,-1.9798,-1.9798,-1.9798,-1.9798,-1.9798,-1.9798,-1.9605,-1.9307,-1.8847,-1.8501,-1.807,-1.6866,-1.6492,-1.635,-1.5613,-1.541,-1.541,-1.541,-1.541,-1.541,-1.541,-1.541,-1.541,-1.541,-1.541,-1.541,-1.541,-1.541,-1.541,-1.541,-1.4932,-1.4273,-1.3451,-1.2249,-1.1129,-1.029,-0.968,-0.9452,-0.9806,-0.986,-0.9967,-1.0261,-1.0033,-0.9907,-1.0057,-1.0064,-1.0064,-1.0064,-1.0064,-0.99,-0.957,-0.9451,-0.9251,-0.8958,-0.8951,-0.8898,-0.8804,-0.8804,-0.8931,-0.9183,-0.7836,-0.7272,-1.5335,0.0,0.0,0.0,0.0,0.0,0.0,0.0,0.0,-2.349,0.0,-2.2957,-2.349,-2.3152,-2.2957,-2.3505,-2.3595,-2.3595,-2.3595,-2.3595,-2.3595,-2.3595,-2.3595,-2.3595,-2.3595,-2.3595,-2.3595,-2.3595,-2.3595,-2.3595,-2.3595,-2.3595,-2.3595,-2.3595,-2.3595,-2.298,-2.1697,-2.1697,-2.1062,-1.9798,-1.9798,-1.9798,-1.9798,-1.9798,-1.9798,-1.9798,-1.9798,-1.9798,-1.9798,-1.9798,-1.9798,-1.9798,-1.9798,-1.9798,-1.9798,-1.9721,-1.9281,-1.8688,-1.8555,-1.8058,-1.7385,-1.6652,-1.6397,-1.6255,-1.5613,-1.541,-1.541,-1.541,-1.541,-1.541,-1.541,-1.541,-1.541,-1.541,-1.541,-1.541,-1.541,-1.541,-1.541,-1.541,-1.4718,-1.4008,-1.3573,-1.2302,-1.1171,-1.0691,-1.0328,-1.0083,-1.0083,-1.014,-1.0261,-1.0566,-1.0321,-1.0267,-1.0566,-1.0593,-1.0593,-1.0593,-1.0593,-1.0472,-1.0167,-0.988,-0.9586,-0.9257,-0.9251,-0.9124,-0.8884,-0.8884,-0.9011,-0.9263,-0.8468,-0.7856,0.0,-1.5845,0.0,0.0,0.0,0.0,0.0,0.0,0.0,-2.3565,-2.349,-2.3445,-2.358,-2.349,-2.3445,-2.358,-2.3595,-2.3595,-2.3595,-2.3595,-2.3595,-2.3595,-2.3595,-2.3595,-2.3595,-2.3595,-2.3595,-2.3595,-2.3595,-2.3595,-2.3595,-2.3595,-2.3595,-2.3595,-2.3595,-2.298,-2.1697,-2.1697,-2.1062,-1.9798,-1.9798,-1.9798,-1.9798,-1.9798,-1.9798,-1.9798,-1.9798,-1.9798,-1.9798,-1.9798,-1.9798,-1.9798,-1.9798,-1.9798,-1.9721,-1.915,-1.8847,-1.8528,-1.7385,-1.6866,-1.6624,-1.5892,-1.5642,-1.5613,-1.5439,-1.541,-1.541,-1.541,-1.541,-1.541,-1.541,-1.541,-1.541,-1.541,-1.541,-1.541,-1.541,-1.541,-1.541,-1.541,-1.5,-1.425,-1.3044,-1.2225,-1.134,-1.0092,-1.0016,-1.0083,-1.0083,-1.0321,-1.0519,-1.0586,-1.0539,-1.0519,-1.0586,-1.0593,-1.0593,-1.0593,-1.0593,-1.0566,-1.0499,-1.018,-0.9886,-0.9593,-0.9586,-0.9559,-0.9492,-0.9492,-0.9646,-0.986,-0.8251,-0.7617,0.0,0.0,0.0,0.0,0.0,0.0,0.0,0.0,0.0,-2.3595,-2.3595,-2.3595,-2.3595,-2.3595,-2.3595,-2.3595,-2.3595,-2.3595,-2.3595,-2.3595,-2.3595,-2.3595,-2.3595,-2.3595,-2.3595,-2.3595,-2.3595,-2.3595,-2.3595,-2.3595,-2.3595,-2.3595,-2.3595,-2.3595,-2.3595,-2.298,-2.1697,-2.1697,-2.1062,-1.9798,-1.9798,-1.9798,-1.9798,-1.9798,-1.9798,-1.9798,-1.9798,-1.9798,-1.9798,-1.9798,-1.9798,-1.9798,-1.9798,-1.9798,-1.9721,-1.8953,-1.8474,-1.8004,-1.6894,-1.6265,-1.5921,-1.5526,-1.541,-1.541,-1.541,-1.541,-1.541,-1.541,-1.541,-1.5371,-1.5166,-1.5107,-1.5107,-1.5107,-1.5264,-1.541,-1.541,-1.541,-1.541,-1.541,-1.5068,-1.4355,-1.3021,-1.1943,-1.1033,-1.0251,-1.0265,-1.0327,-1.0327,-1.0492,-1.0593,-1.0593,-1.0593,-1.0593,-1.0593,-1.0593,-1.0593,-1.0593,-1.0593,-1.0593,-1.0593,-1.0445,-1.0194,-0.9893,-0.9886,-0.982,-0.9715,-0.9715,-0.9833,-1.0083,-0.8661,-0.8,0.0,0.0,0.0,0.0,0.0,0.0,0.0,0.0,0.0,-2.3595,-2.3595,-2.3595,-2.3595,-2.3595,-2.3595,-2.3595,-2.3595,-2.3595,-2.3595,-2.3595,-2.3595,-2.3595,-2.3595,-2.3595,-2.3595,-2.3595,-2.3595,-2.3595,-2.3595,-2.3595,-2.3595,-2.3595,-2.3595,-2.3595,-2.3508,-2.2891,-2.1697,-2.1615,-2.0977,-1.9798,-1.9798,-1.9798,-1.9798,-1.9798,-1.9798,-1.9798,-1.9798,-1.9798,-1.9798,-1.9798,-1.9798,-1.9798,-1.9798,-1.9721,-1.9527,-1.8768,-1.8031,-1.7302,-1.6567,-1.5921,-1.541,-1.541,-1.541,-1.541,-1.541,-1.541,-1.541,-1.541,-1.5361,-1.5225,-1.4873,-1.4727,-1.4687,-1.4766,-1.5049,-1.5322,-1.54,-1.541,-1.541,-1.541,-1.5012,-1.4334,-1.3201,-1.1787,-1.0776,-1.0624,-1.0593,-1.0593,-1.0593,-1.0593,-1.0593,-1.0593,-1.0593,-1.0593,-1.0593,-1.0593,-1.0593,-1.0593,-1.0593,-1.0593,-1.0593,-1.0593,-1.0479,-1.02,-1.0194,-1.0074,-0.9863,-0.9863,-0.99,-0.9942,-0.9057,-0.8348,0.0,0.0,0.0,0.0,0.0,0.0,0.0,0.0,0.0,0.0,-2.3595,-2.3595,-2.3595,-2.3595,-2.3595,-2.3595,-2.3595,-2.3595,-2.3595,-2.3595,-2.3595,-2.3595,-2.3595,-2.3595,-2.3595,-2.3595,-2.3595,-2.3595,-2.3595,-2.3595,-2.3595,-2.3595,-2.3595,-2.3595,-2.3098,-2.246,-2.1697,-2.1186,-2.0534,-1.9798,-1.9798,-1.9798,-1.9798,-1.9798,-1.9798,-1.9798,-1.9798,-1.9798,-1.9798,-1.9798,-1.9798,-1.9798,-1.9798,-1.9423,-1.8768,-1.8015,-1.7274,-1.6539,-1.5806,-1.5468,-1.541,-1.541,-1.541,-1.541,-1.541,-1.541,-1.541,-1.541,-1.5146,-1.4882,-1.4805,-1.4502,-1.4289,-1.4697,-1.4834,-1.4971,-1.5332,-1.541,-1.541,-1.541,-1.4797,-1.4002,-1.3152,-1.2235,-1.1406,-1.0713,-1.0593,-1.0593,-1.0593,-1.0593,-1.0593,-1.0593,-1.0593,-1.0593,-1.0593,-1.0593,-1.0593,-1.0593,-1.0593,-1.0593,-1.0593,-1.0593,-1.0573,-1.0533,-1.0533,-1.0512,-1.0472,-1.0472,-1.0109,-0.938,-0.85,-0.7668,-1.373,0.0,0.0,0.0,0.0,0.0,0.0,0.0,-2.3176,-2.3535,-2.3595,-2.3595,-2.3595,-2.3595,-2.3595,-2.3595,-2.3595,-2.3595,-2.3595,-2.3595,-2.3595,-2.3595,-2.3595,-2.3595,-2.3595,-2.3595,-2.3595,-2.3595,-2.3595,-2.3595,-2.3595,-2.3595,-2.3595,-2.3595,-2.3009,-2.2369,-2.1697,-2.0815,-2.0004,-1.9346,-1.966,-1.9798,-1.9798,-1.9798,-1.9798,-1.9798,-1.9798,-1.9798,-1.9798,-1.9798,-1.9798,-1.9798,-1.9798,-1.9345,-1.8608,-1.7868,-1.7146,-1.6407,-1.5671,-1.541,-1.541,-1.541,-1.541,-1.541,-1.541,-1.541,-1.541,-1.541,-1.5283,-1.5078,-1.4844,-1.4648,-1.4551,-1.4736,-1.4813,-1.4902,-1.5322,-1.541,-1.541,-1.541,-1.4746,-1.3936,-1.313,-1.2328,-1.1531,-1.0713,-1.0593,-1.0593,-1.0593,-1.0593,-1.0593,-1.0593,-1.0593,-1.0593,-1.0593,-1.0593,-1.0593,-1.0593,-1.0593,-1.0593,-1.0593,-1.0593,-1.0593,-1.0593,-1.0593,-1.0593,-1.0593,-1.0593,-1.0142,-0.9268,-0.842,-0.7535,0.0,0.0,0.0,0.0,0.0,0.0,0.0,0.0,-2.2628,0.0,-2.337,-2.3415,-2.3565,-2.3595,-2.3595,-2.3595,-2.3595,-2.3595,-2.3595,-2.3595,-2.3595,-2.3595,-2.3595,-2.3595,-2.3595,-2.3595,-2.3595,-2.3595,-2.3595,-2.353,-2.3377,-2.3377,-2.3297,-2.3128,-2.2529,-2.1904,-2.1277,-2.0109,-1.9367,-1.9008,-1.9396,-1.9673,-1.9798,-1.9798,-1.9798,-1.9798,-1.9798,-1.9798,-1.9798,-1.9798,-1.9798,-1.9773,-1.9579,-1.9071,-1.834,-1.7578,-1.6866,-1.6151,-1.5584,-1.541,-1.541,-1.541,-1.541,-1.541,-1.541,-1.541,-1.541,-1.541,-1.5342,-1.5176,-1.4891,-1.4697,-1.4648,-1.4756,-1.4813,-1.4902,-1.5322,-1.541,-1.541,-1.541,-1.4746,-1.3936,-1.313,-1.2328,-1.1531,-1.0713,-1.0593,-1.0593,-1.0593,-1.0593,-1.0593,-1.0593,-1.0593,-1.0593,-1.0593,-1.0593,-1.0593,-1.0593,-1.0593,-1.0593,-1.0593,-1.0593,-1.0593,-1.0593,-1.0593,-1.0593,-1.0593,-1.0593,-1.004,-0.8941,-0.8285,-0.7405,0.0,0.0,0.0,0.0,0.0,0.0,0.0,0.0,0.0,-2.2613,-2.2748,-2.2927,-2.349,-2.3595,-2.3595,-2.3595,-2.3595,-2.3595,-2.3595,-2.3595,-2.3595,-2.3595,-2.3595,-2.3595,-2.3595,-2.3595,-2.3595,-2.3595,-2.3595,-2.3355,-2.2785,-2.2754,-2.2475,-2.1815,-2.121,-2.0629,-2.0072,-1.8898,-1.8529,-1.9008,-1.9033,-1.9309,-1.9798,-1.9798,-1.9798,-1.9798,-1.9798,-1.9798,-1.9798,-1.9798,-1.9798,-1.9721,-1.9044,-1.8313,-1.7578,-1.6838,-1.6093,-1.5439,-1.541,-1.541,-1.541,-1.541,-1.541,-1.541,-1.541,-1.541,-1.541,-1.541,-1.5127,-1.4842,-1.4823,-1.4473,-1.4241,-1.4687,-1.4813,-1.4902,-1.5322,-1.541,-1.541,-1.541,-1.4746,-1.3936,-1.313,-1.2328,-1.1531,-1.0713,-1.0593,-1.0593,-1.0593,-1.0593,-1.0593,-1.0593,-1.0593,-1.0593,-1.0593,-1.0593,-1.0593,-1.0593,-1.0593,-1.0593,-1.0593,-1.0593,-1.0593,-1.0593,-1.0593,-1.0593,-1.0593,-1.0593,-0.9716,-0.8059,-0.8027,-0.7083,0.0,0.0,0.0,0.0,0.0,0.0,0.0,-2.0587,-2.1261,-2.1919,-2.2074,-2.2113,-2.2338,-2.3056,-2.3595,-2.3595,-2.3595,-2.3595,-2.3595,-2.3595,-2.3595,-2.3595,-2.3595,-2.3595,-2.3595,-2.3595,-2.3595,-2.3595,-2.3246,-2.2934,-2.2694,-2.1968,-2.1424,-2.1204,-2.022,-1.9271,-1.8346,-1.8234,-1.8129,-1.7978,-1.8329,-1.8757,-1.9284,-1.9284,-1.9459,-1.9798,-1.9798,-1.9798,-1.9798,-1.9798,-1.9527,-1.9071,-1.8794,-1.7961,-1.6866,-1.6595,-1.6036,-1.541,-1.541,-1.541,-1.541,-1.541,-1.541,-1.541,-1.541,-1.541,-1.541,-1.541,-1.5303,-1.5186,-1.5186,-1.5068,-1.4962,-1.5146,-1.5186,-1.5225,-1.5381,-1.541,-1.541,-1.541,-1.5177,-1.454,-1.3221,-1.2757,-1.212,-1.0807,-1.0593,-1.0593,-1.0593,-1.0593,-1.0593,-1.0593,-1.0593,-1.0593,-1.0593,-1.0593,-1.0593,-1.0593,-1.0593,-1.0593,-1.0593,-1.0593,-1.0593,-1.0593,-1.0593,-1.0593,-1.0593,-1.0593,-0.9709,-0.7994,-0.7994,-0.7055,0.0,0.0,0.0,0.0,0.0,0.0,0.0,0.0,-2.027,-2.1186,-2.1365,-2.144,-2.1665,-2.2383,-2.3026,-2.3251,-2.346,-2.3595,-2.3595,-2.3595,-2.3595,-2.3595,-2.3595,-2.3595,-2.3595,-2.3595,-2.3595,-2.3595,-2.2886,-2.2333,-2.2107,-2.0959,-2.0198,-2.0005,-1.9044,-1.8158,-1.741,-1.7551,-1.7551,-1.741,-1.7752,-1.8216,-1.8719,-1.8719,-1.8945,-1.9271,-1.9459,-1.9635,-1.9773,-1.9527,-1.915,-1.8661,-1.814,-1.7357,-1.6464,-1.6208,-1.5806,-1.541,-1.541,-1.541,-1.541,-1.541,-1.541,-1.541,-1.541,-1.541,-1.541,-1.541,-1.541,-1.541,-1.541,-1.541,-1.541,-1.541,-1.541,-1.541,-1.541,-1.541,-1.541,-1.541,-1.4962,-1.4234,-1.3191,-1.2551,-1.1818,-1.0744,-1.0593,-1.0593,-1.0593,-1.0593,-1.0593,-1.0593,-1.0593,-1.0593,-1.0593,-1.0593,-1.0593,-1.0593,-1.0593,-1.0593,-1.0593,-1.0593,-1.0593,-1.0593,-1.0593,-1.0593,-1.0593,-1.0593,-0.9709,-0.7994,-0.7994,-0.7055,0.0,0.0,0.0,0.0,0.0,0.0,0.0,0.0,-1.9001,-2.0359,-2.0628,-2.0808,-2.1515,-2.165,-2.1874,-2.2538,-2.3152,-2.355,-2.3565,-2.3565,-2.358,-2.3595,-2.3595,-2.3595,-2.3595,-2.3595,-2.3595,-2.3543,-2.2512,-2.1569,-2.0894,-1.9696,-1.8777,-1.8177,-1.7639,-1.7373,-1.7373,-1.6798,-1.6798,-1.7373,-1.7373,-1.7674,-1.8179,-1.8179,-1.8191,-1.8242,-1.877,-1.9284,-1.9722,-1.9006,-1.8688,-1.8528,-1.7062,-1.6492,-1.6379,-1.5661,-1.541,-1.541,-1.541,-1.541,-1.541,-1.541,-1.541,-1.541,-1.541,-1.541,-1.541,-1.541,-1.541,-1.541,-1.541,-1.541,-1.541,-1.541,-1.541,-1.541,-1.541,-1.5381,-1.5352,-1.5352,-1.4085,-1.3009,-1.2978,-1.1663,-1.0624,-1.0593,-1.0593,-1.0593,-1.0593,-1.0593,-1.0593,-1.0593,-1.0593,-1.0593,-1.0593,-1.0593,-1.0593,-1.0593,-1.0593,-1.0593,-1.0593,-1.0593,-1.0593,-1.0593,-1.0593,-1.0593,-1.0561,-1.0593,-0.9716,-0.8027,-0.7994,-0.7055,-1.1062,0.0,0.0,0.0,0.0,0.0,0.0,0.0,-1.7117,-1.8897,-1.8864,-1.8879,-2.0034,-2.0647,-2.1051,-2.1231,-2.1799,-2.2383,-2.2882,-2.2957,-2.3122,-2.355,-2.3595,-2.3595,-2.3595,-2.3595,-2.3271,0.0,-2.1625,-2.0714,-1.9656,-1.8494,-1.759,-1.6999,-1.6835,-1.676,-1.676,-1.6575,-1.6575,-1.676,-1.676,-1.7061,-1.7614,-1.7614,-1.7827,-1.8242,-1.877,-1.9083,-1.9183,-1.8835,-1.8394,-1.7825,-1.6866,-1.6179,-1.569,-1.5468,-1.541,-1.541,-1.541,-1.541,-1.541,-1.541,-1.541,-1.541,-1.541,-1.541,-1.541,-1.541,-1.541,-1.541,-1.541,-1.541,-1.541,-1.541,-1.541,-1.541,-1.541,-1.4932,-1.454,-1.454,-1.4174,-1.3515,-1.232,-1.1772,-1.1257,-1.0688,-1.0593,-1.0593,-1.0593,-1.0593,-1.0593,-1.0593,-1.0593,-1.0593,-1.0593,-1.0593,-1.0593,-1.0593,-1.0593,-1.0593,-1.0593,-1.0593,-1.0593,-1.0593,-1.0593,-1.0301,-0.9658,-1.0301,-1.004,-0.8909,-0.7632,-0.6465,0.0,0.0,0.0,0.0,0.0,0.0,-1.6159,-1.6173,0.0,0.0,-1.8386,-1.8448,-1.9513,-2.0019,-2.0288,-2.0288,-2.0602,-2.1186,-2.2164,-2.2283,-2.2418,-2.2772,-2.2802,-2.2802,-2.2802,-2.2802,-2.2429,-2.1547,-2.0648,-1.9522,-1.8091,-1.7397,-1.6861,-1.65,-1.65,-1.65,-1.65,-1.65,-1.65,-1.65,-1.65,-1.6685,-1.7024,-1.7024,-1.72,-1.7526,-1.8091,-1.8468,-1.8621,-1.8102,-1.7794,-1.7495,-1.6454,-1.5777,-1.541,-1.541,-1.541,-1.541,-1.541,-1.541,-1.541,-1.541,-1.541,-1.541,-1.541,-1.541,-1.541,-1.541,-1.541,-1.541,-1.541,-1.541,-1.541,-1.541,-1.541,-1.5323,-1.4962,-1.454,-1.4213,-1.4213,-1.3657,-1.2901,-1.195,-1.1531,-1.1139,-1.0681,-1.0593,-1.0593,-1.0593,-1.0593,-1.0593,-1.0593,-1.0593,-1.0593,-1.0593,-1.0593,-1.0593,-1.0593,-1.0593,-1.0593,-1.0593,-1.0593,-1.0593,-1.0593,-1.0593,-1.0333,-0.9849,-1.0333,-0.9977,-0.8716,-0.6953,-0.5881,0.0,0.0,0.0,0.0,0.0,0.0,-1.6772,-1.6443,-1.6188,0.0,-1.8373,-1.8597,-1.9348,-1.9483,-1.9483,-1.9483,-1.9543,-2.0067,-2.1395,-2.159,-2.162,-2.168,-2.1695,-2.1695,-2.1695,-2.1655,-2.1355,-2.0763,-1.9537,-1.8135,-1.6577,-1.65,-1.65,-1.65,-1.65,-1.65,-1.65,-1.65,-1.65,-1.65,-1.65,-1.65,-1.65,-1.65,-1.65,-1.6525,-1.7137,-1.7629,-1.7928,-1.712,-1.7116,-1.7468,-1.5968,-1.541,-1.541,-1.541,-1.541,-1.541,-1.541,-1.541,-1.541,-1.541,-1.541,-1.541,-1.541,-1.541,-1.541,-1.541,-1.541,-1.541,-1.541,-1.541,-1.5381,-1.5294,-1.5264,-1.505,-1.4243,-1.3995,-1.3936,-1.3936,-1.2779,-1.1764,-1.1679,-1.1076,-1.0593,-1.0593,-1.0593,-1.0593,-1.0593,-1.0593,-1.0593,-1.0593,-1.0593,-1.0593,-1.0593,-1.0593,-1.0593,-1.0593,-1.0593,-1.0593,-1.0593,-1.0593,-1.0593,-1.0593,-1.0396,-1.0396,-1.0593,-1.0498,-0.9614,-0.7962,-0.6305,-0.5491,-1.5589,0.0,0.0,0.0,0.0,0.0,-1.4692,-1.4797,-1.526,0.0,-1.6383,-1.6728,-1.7878,-1.8087,-1.8087,-1.8087,-1.8553,-1.9361,-2.0703,-2.0897,-2.1111,-2.1635,-2.1695,-2.1695,-2.1695,-2.1304,-2.0612,-1.9536,-1.7927,-1.6846,-1.6522,-1.65,-1.65,-1.65,-1.65,-1.65,-1.65,-1.65,-1.65,-1.65,-1.65,-1.65,-1.65,-1.65,-1.65,-1.6525,-1.7137,-1.7163,-1.6739,-1.678,-1.7116,-1.7468,-1.5968,-1.541,-1.541,-1.541,-1.541,-1.541,-1.541,-1.541,-1.541,-1.541,-1.541,-1.541,-1.541,-1.541,-1.541,-1.541,-1.541,-1.541,-1.541,-1.541,-1.5235,-1.4599,-1.4421,-1.4204,-1.3403,-1.2718,-1.2258,-1.2258,-1.2012,-1.1586,-1.0958,-1.0713,-1.0593,-1.0593,-1.0593,-1.0593,-1.0593,-1.0593,-1.0593,-1.0593,-1.0593,-1.0593,-1.0593,-1.0593,-1.0593,-1.0593,-1.0593,-1.0593,-1.0593,-1.0593,-1.0593,-1.0593,-0.9224,-0.9192,-1.0593,-0.9888,-0.9005,-0.7962,-0.6915,-0.6075,-1.6922,0.0,0.0,-1.6398,0.0,0.0,0.0,-1.5008,-1.517,-1.6473,-1.6248,-1.6278,-1.7893,-1.7637,-1.7413,-1.8087,-1.8493,-1.8942,-1.9615,-1.9989,-2.0333,-2.0647,-2.0711,-2.0597,-2.0337,-2.0069,-1.9435,-1.8289,-1.7127,-1.65,-1.65,-1.65,-1.65,-1.65,-1.65,-1.65,-1.65,-1.65,-1.65,-1.65,-1.65,-1.65,-1.65,-1.65,-1.65,-1.6513,-1.6823,-1.6739,-1.6385,-1.6151,-1.6188,-1.6326,-1.5654,-1.541,-1.541,-1.541,-1.541,-1.541,-1.541,-1.541,-1.541,-1.541,-1.541,-1.541,-1.541,-1.541,-1.541,-1.541,-1.541,-1.541,-1.541,-1.5108,-1.4688,-1.4302,-1.3876,-1.3394,-1.2573,-1.2081,-1.1679,-1.1288,-1.1195,-1.1076,-1.0688,-1.0593,-1.0593,-1.0593,-1.0593,-1.0593,-1.0593,-1.0593,-1.0593,-1.0593,-1.0593,-1.0593,-1.0593,-1.0593,-1.0593,-1.0593,-1.0593,-1.0593,-1.0593,-1.0593,-1.0396,-0.9951,-0.9102,-0.8871,-0.9288,-0.8415,-0.7994,-0.7962,-0.6658,-0.5815,0.0,0.0,0.0,0.0,0.0,-1.6503,0.0,0.0,0.0,-1.7026,-1.6518,0.0,0.0,0.0,0.0,0.0,0.0,0.0,0.0,-1.9001,0.0,-1.9513,-1.9633,-1.9479,-1.8949,-1.8569,-1.8032,-1.7216,-1.6624,-1.6359,-1.6488,-1.65,-1.65,-1.65,-1.65,-1.65,-1.65,-1.65,-1.65,-1.65,-1.65,-1.65,-1.65,-1.65,-1.65,-1.6488,-1.638,-1.6229,-1.6009,-1.5405,-1.5035,-1.4894,-1.5167,-1.5293,-1.5303,-1.5381,-1.541,-1.541,-1.541,-1.541,-1.541,-1.541,-1.541,-1.541,-1.541,-1.541,-1.541,-1.541,-1.541,-1.541,-1.541,-1.4805,-1.4154,-1.4004,-1.3364,-1.2543,-1.1741,-1.1562,-1.1375,-1.0713,-1.0593,-1.0593,-1.0593,-1.0593,-1.0593,-1.0593,-1.0593,-1.0593,-1.0593,-1.0593,-1.0593,-1.0593,-1.0593,-1.0593,-1.0593,-1.0593,-1.0593,-1.0593,-1.0593,-1.0593,-1.0593,-1.0593,-1.0174,-0.9306,-0.9139,-0.8716,-0.7994,-0.6948,-0.6887,-0.7702,-0.6145,-0.5395,0.0,0.0,0.0,0.0,-1.8493,0.0,0.0,0.0,-1.6398,-1.6084,0.0,0.0,0.0,0.0,0.0,0.0,0.0,0.0,-1.6936,-1.8012,-1.8807,-1.8807,-1.9348,-1.9479,-1.8949,-1.7385,-1.6472,-1.6583,-1.594,-1.5812,-1.6471,-1.65,-1.65,-1.65,-1.65,-1.65,-1.65,-1.65,-1.65,-1.65,-1.65,-1.65,-1.65,-1.65,-1.65,-1.6466,-1.593,-1.5378,-1.4856,-1.4612,-1.4168,-1.3765,-1.4549,-1.4882,-1.4902,-1.5273,-1.541,-1.541,-1.541,-1.541,-1.541,-1.541,-1.541,-1.541,-1.541,-1.541,-1.541,-1.541,-1.541,-1.541,-1.541,-1.4805,-1.4025,-1.3312,-1.2512,-1.171,-1.0895,-1.0744,-1.0713,-1.0624,-1.0593,-1.0593,-1.0593,-1.0593,-1.0593,-1.0593,-1.0593,-1.0593,-1.0593,-1.0593,-1.0593,-1.0593,-1.0593,-1.0593,-1.0593,-1.0593,-1.0593,-1.0593,-1.0593,-1.0593,-1.0593,-1.0593,-1.0174,-0.9306,-0.8549,-0.8091,-0.7994,-0.6338,-0.6009,-0.6817,-0.5848,-0.5395,0.0,0.0,0.0,0.0,0.0,0.0,-1.6398,0.0,-1.6637,0.0,0.0,0.0,0.0,0.0,0.0,0.0,-1.6532,0.0,0.0,0.0,-1.7667,0.0,0.0,0.0,-1.7913,-1.6362,-1.5718,-1.6455,-1.5633,-1.5513,-1.6459,-1.65,-1.65,-1.65,-1.65,-1.65,-1.65,-1.65,-1.65,-1.65,-1.65,-1.65,-1.65,-1.65,-1.6315,-1.5952,-1.5698,-1.5073,-1.4165,-1.4098,-1.3695,-1.3203,-1.3809,-1.4346,-1.4805,-1.498,-1.5205,-1.541,-1.541,-1.541,-1.541,-1.541,-1.541,-1.541,-1.541,-1.541,-1.541,-1.541,-1.541,-1.541,-1.541,-1.4451,-1.3425,-1.307,-1.2027,-1.1014,-1.0681,-1.0593,-1.0593,-1.0593,-1.0593,-1.0593,-1.0593,-1.0593,-1.0593,-1.0593,-1.0593,-1.0593,-1.0593,-1.0593,-1.0593,-1.0593,-1.0593,-1.0593,-1.0593,-1.0593,-1.0593,-1.0593,-1.0593,-1.0364,-0.9856,-0.9849,-0.9198,-0.7827,-0.7437,-0.6985,-0.6502,-0.5752,-0.5591,-0.5943,-0.5557,-0.5395,-2.0064,0.0,0.0,0.0,0.0,0.0,0.0,0.0,0.0,0.0,0.0,0.0,0.0,0.0,0.0,0.0,0.0,-1.6488,0.0,-1.6189,0.0,0.0,0.0,0.0,0.0,-1.5508,-1.4986,-1.6143,-1.5063,-1.4917,-1.622,-1.6274,-1.6337,-1.6488,-1.65,-1.65,-1.65,-1.65,-1.65,-1.65,-1.65,-1.65,-1.65,-1.65,-1.6173,-1.5588,-1.5432,-1.4744,-1.3802,-1.3613,-1.331,-1.2944,-1.334,-1.3955,-1.4619,-1.4746,-1.5049,-1.541,-1.541,-1.541,-1.541,-1.541,-1.541,-1.541,-1.541,-1.541,-1.541,-1.541,-1.541,-1.541,-1.541,-1.4213,-1.3009,-1.3009,-1.1756,-1.0593,-1.0593,-1.0593,-1.0593,-1.0593,-1.0593,-1.0593,-1.0593,-1.0593,-1.0593,-1.0593,-1.0593,-1.0593,-1.0593,-1.0593,-1.0593,-1.0593,-1.0593,-1.0593,-1.0593,-1.0364,-1.0136,-0.9907,-0.9875,-0.962,-0.8973,-0.8941,-0.8226,-0.6719,-0.6687,-0.6268,-0.5395,-0.5395,-0.5395,-0.5395,-0.5395,-0.5395,0.0,-2.1156,0.0,-1.8386,0.0,0.0,0.0,0.0,-1.7848,0.0,0.0,0.0,0.0,0.0,0.0,0.0,0.0,0.0,0.0,0.0,0.0,0.0,0.0,0.0,0.0,-1.488,-1.4098,-1.5425,-1.3948,-1.3771,-1.5625,-1.5718,-1.5969,-1.6475,-1.65,-1.65,-1.65,-1.65,-1.65,-1.65,-1.65,-1.65,-1.65,-1.65,-1.6173,-1.5565,-1.4994,-1.4376,-1.3755,-1.3176,-1.2929,-1.2944,-1.334,-1.3753,-1.4182,-1.4629,-1.5049,-1.541,-1.541,-1.541,-1.541,-1.541,-1.541,-1.541,-1.541,-1.541,-1.541,-1.541,-1.541,-1.541,-1.541,-1.4213,-1.3009,-1.3009,-1.1756,-1.0593,-1.0593,-1.0593,-1.0593,-1.0593,-1.0593,-1.0593,-1.0593,-1.0593,-1.0593,-1.0593,-1.0593,-1.0593,-1.0593,-1.0593,-1.0593,-1.0593,-1.0593,-1.0593,-1.0593,-0.9817,-0.8973,-0.8124,-0.8091,-0.8059,-0.8059,-0.8027,-0.7632,-0.6719,-0.6687,-0.6268,-0.5395,-0.5395,-0.5395,-0.5395,-0.5395,-0.5395,-2.0715,-2.1181,-2.1263,-1.948,-1.954,-1.9552,-1.7772,0.0,0.0,0.0,0.0,0.0,0.0,0.0,0.0,0.0,0.0,0.0,0.0,0.0,0.0,0.0,0.0,0.0,0.0,0.0,-1.399,-1.4531,-1.4029,-1.427,-1.5638,-1.6045,-1.63,-1.6488,-1.65,-1.65,-1.65,-1.65,-1.65,-1.65,-1.65,-1.65,-1.65,-1.65,-1.5942,-1.4983,-1.4789,-1.4131,-1.32,-1.2968,-1.2905,-1.2944,-1.334,-1.3743,-1.4163,-1.4629,-1.5049,-1.541,-1.541,-1.541,-1.541,-1.541,-1.541,-1.541,-1.541,-1.541,-1.541,-1.541,-1.541,-1.541,-1.541,-1.4213,-1.3009,-1.3009,-1.1756,-1.0593,-1.0593,-1.0593,-1.0593,-1.0593,-1.0593,-1.0593,-1.0593,-1.0593,-1.0593,-1.0593,-1.0593,-1.0593,-1.0593,-1.0593,-1.0593,-1.0593,-1.0593,-1.0593,-1.0593,-0.9786,-0.9172,-0.8877,-0.8323,-0.773,-0.7177,-0.7144,-0.6724,-0.5848,-0.5848,-0.5686,-0.5395,-0.5395,-0.5395,-0.5395,-0.5395,-0.5395,-2.0976,-2.134,-2.1302,-1.9767,-1.9706,-1.9686,-1.8397,-1.8779,-1.914,0.0,0.0,0.0,0.0,0.0,0.0,0.0,0.0,0.0,0.0,-1.2401,0.0,0.0,0.0,0.0,0.0,0.0,-1.3095,-1.3959,-1.3522,0.0,0.0,-1.5919,-1.6287,-1.6488,-1.65,-1.65,-1.65,-1.65,-1.65,-1.65,-1.65,-1.65,-1.65,-1.65,-1.5832,-1.4698,-1.4698,-1.4025,-1.2905,-1.2905,-1.2905,-1.2964,-1.3506,-1.387,-1.4163,-1.4629,-1.5049,-1.541,-1.541,-1.541,-1.541,-1.541,-1.541,-1.541,-1.541,-1.541,-1.541,-1.541,-1.541,-1.541,-1.541,-1.4213,-1.3009,-1.3009,-1.1756,-1.0593,-1.0593,-1.0593,-1.0593,-1.0593,-1.0593,-1.0593,-1.0593,-1.0593,-1.0593,-1.0593,-1.0593,-1.0593,-1.0593,-1.0593,-1.0593,-1.0593,-1.0593,-1.0466,-1.0174,-0.9332,-0.8716,-0.8388,-0.7572,-0.6826,-0.6268,-0.6235,-0.5976,-0.5395,-0.5395,-0.5395,-0.5395,-0.5395,-0.5395,-0.5395,-0.5395,-0.5395]},{"header":{"parameterUnit":"m.s-1","parameterCategory":1,"la1":30.6,"la2":29.2853,"lo1":-89.7004,"lo2":-87.6739,"dy":0.0162,"dx":0.0183,"nx":112,"ny":82,"refTime":"2024-05-19T12:00:00:Z","depth":0,"parameterNumber":3,"parameterNumberName":"V-component_of_WINDS"},"data":[0.0,0.0,0.0,0.0,0.0,0.0,0.0,0.0,0.0,0.0,0.0,0.0,0.0,0.0,0.0,0.0,0.0,0.0,0.0,0.0,0.0,0.0,0.0,0.0,0.0,0.0,0.0,0.0,0.0,0.0,0.0,0.0,0.0,0.0,0.0,0.0,0.0,0.0,0.0,0.0,0.0,0.0,0.0,0.0,0.0,0.0,0.0,0.0,0.0,0.0,0.0,0.0,0.0,0.0,0.0,0.0,0.0,0.0,0.0,0.0,0.0,0.0,0.0,0.0,0.0,0.0,0.0,0.0,0.0,0.0,0.0,0.0,0.0,0.0,0.0,0.0,0.0,0.0,0.0,0.0,0.0,0.0,0.0,0.0,0.0,0.0,0.0,0.0,0.0,0.0,1.1992,1.3,1.4433,1.5336,1.5398,1.5399,1.4682,1.3008,0.0,0.0,0.0,0.0,0.0,0.0,0.0,0.0,0.0,0.0,0.0,0.0,0.0,0.0,0.0,0.0,0.0,0.0,0.0,0.0,0.0,0.0,0.0,0.0,0.0,0.0,0.0,0.0,0.0,0.0,0.0,0.0,0.0,0.0,0.0,0.0,0.0,0.0,0.0,0.0,0.0,0.0,0.0,0.0,0.0,0.0,0.0,0.0,0.0,0.0,0.0,0.0,0.0,0.0,0.0,0.0,0.0,0.0,0.0,0.0,0.0,0.0,0.0,0.0,0.0,0.0,0.0,0.0,0.0,0.0,0.0,0.0,0.0,0.0,0.0,0.0,0.0,0.0,0.0,0.0,0.0,0.0,0.0,0.0,0.0,0.0,0.0,0.0,0.0,0.0,0.0,0.0,0.0,0.0,0.0,0.0,0.0,0.0,0.0,0.0,0.0,0.0,0.0,0.0,1.3142,1.4817,1.5232,1.5398,1.5409,1.539,1.4687,1.3008,0.0,0.0,0.0,0.0,0.0,0.0,0.0,0.0,0.0,0.0,0.0,0.0,0.0,0.0,0.0,0.0,0.0,0.0,0.0,0.0,0.0,0.0,0.0,0.0,0.0,0.0,0.0,0.0,0.0,0.0,0.0,0.0,0.0,0.0,0.0,0.0,0.0,0.0,0.0,0.0,0.0,0.0,0.0,0.0,0.0,0.0,0.0,0.0,0.0,0.0,0.0,0.0,0.0,0.0,0.0,0.0,0.0,0.0,0.0,0.0,0.0,0.0,0.0,0.0,0.0,0.0,0.0,0.0,0.0,0.0,0.0,0.0,0.0,0.0,0.0,0.0,0.0,0.0,0.0,0.0,0.0,0.0,0.0,0.0,0.0,0.0,0.0,0.0,0.0,0.0,0.0,0.0,0.0,0.0,0.0,0.0,0.0,0.0,0.0,0.0,0.0,0.0,0.0,1.2242,1.3433,1.5217,1.5403,1.5408,1.5391,1.5391,1.4687,1.3008,1.2891,0.0,0.0,0.0,0.0,0.0,0.0,0.0,0.0,0.0,0.0,0.0,0.0,0.0,0.0,0.0,0.0,0.0,0.0,0.0,0.0,0.0,0.0,0.0,0.0,0.0,0.0,0.0,0.0,0.0,0.0,0.0,0.0,0.0,0.0,0.0,0.0,0.0,0.0,0.0,0.0,0.0,0.0,0.0,0.0,0.0,0.0,0.0,0.0,0.0,0.0,0.0,0.0,0.0,0.0,0.0,0.0,0.0,0.0,0.0,0.0,0.0,0.0,0.0,0.0,0.0,0.0,0.0,0.0,0.0,0.0,0.0,0.0,0.0,0.0,0.0,0.0,0.0,0.0,0.0,0.0,0.0,0.0,0.0,0.0,0.0,0.0,0.0,0.0,0.0,0.0,0.0,0.0,0.0,0.0,0.0,0.0,0.0,0.0,0.0,0.0,0.0,0.0,1.2946,1.3692,1.5244,1.5409,1.5391,1.5391,1.5215,1.4473,1.2988,1.2715,0.0,0.0,0.0,0.0,0.0,0.0,0.0,0.0,0.0,0.0,0.0,0.0,0.0,0.0,0.0,0.0,0.0,0.0,0.0,0.0,0.0,0.0,0.0,0.0,0.0,0.0,0.0,0.0,0.0,0.0,0.0,0.0,0.0,0.0,0.0,0.0,0.0,0.0,0.0,0.0,0.0,0.0,0.0,0.0,0.0,0.0,0.0,0.0,0.0,0.0,0.0,0.0,0.0,0.0,0.0,0.0,0.0,0.0,0.0,0.0,0.0,0.0,0.0,0.0,0.0,0.0,0.0,0.0,0.0,0.0,0.0,0.0,0.0,0.0,0.0,0.0,0.0,0.0,0.0,0.0,0.0,0.0,0.0,0.0,0.0,0.0,0.0,0.0,0.0,0.0,0.0,0.0,0.0,0.0,0.0,0.0,0.0,0.0,0.0,0.0,0.0,0.0,1.35,1.4371,1.5293,1.5391,1.5391,1.5391,1.4668,1.3828,1.2949,1.2148,0.0,0.0,0.0,0.0,0.0,0.0,0.0,0.0,0.0,0.0,0.0,0.0,0.0,0.0,0.0,0.0,0.0,0.0,0.0,0.0,0.0,0.0,0.0,0.0,0.0,0.0,0.0,0.0,0.0,0.0,0.0,0.0,0.0,0.0,0.0,0.0,0.0,0.0,0.0,0.0,0.0,0.0,0.0,0.0,0.0,0.0,0.0,0.0,0.0,0.0,0.0,0.0,0.0,0.0,0.0,0.0,0.0,0.0,0.0,0.0,0.0,0.0,0.0,0.0,0.0,0.0,0.0,0.0,0.0,0.0,0.0,0.0,0.0,0.0,0.0,0.0,0.0,0.0,0.0,0.0,0.0,0.0,0.0,0.0,0.0,0.0,0.0,0.0,0.0,0.0,0.0,0.0,0.0,0.0,0.0,0.0,0.0,0.0,0.0,0.0,0.0,0.0,1.3561,1.443,0.0,1.5391,1.5391,1.5391,1.5098,1.4336,1.2988,0.0,0.0,0.0,0.0,0.0,0.0,0.0,0.0,0.0,0.0,0.0,0.0,0.0,0.0,0.0,0.0,0.0,0.0,0.0,0.0,0.0,0.0,0.0,0.0,0.0,0.0,0.0,0.0,0.0,0.0,0.0,0.0,0.0,0.0,0.0,0.0,0.0,0.0,0.0,0.0,0.0,0.0,0.0,0.0,0.0,0.0,0.0,0.0,0.0,0.0,0.0,0.0,0.0,0.0,0.0,0.0,0.0,0.0,0.0,0.0,0.0,0.0,0.0,0.0,0.0,0.0,0.0,0.0,0.0,0.0,0.0,0.0,0.0,0.0,0.0,0.0,0.0,0.0,0.0,0.0,0.0,0.0,0.0,0.0,0.0,0.0,0.0,0.0,0.0,0.0,0.0,0.0,0.0,0.0,0.0,0.0,0.0,0.0,0.0,0.0,0.0,0.0,1.2721,1.3798,1.4745,0.0,1.5391,1.5391,1.5391,1.5156,1.4394,1.2988,0.0,0.0,0.0,0.0,0.0,0.0,0.0,0.0,0.0,0.0,0.0,0.0,0.0,0.0,0.0,0.0,0.0,0.0,0.0,0.0,0.0,0.0,0.0,0.0,0.0,0.0,0.0,0.0,0.0,0.0,0.0,0.0,0.0,0.0,0.0,0.0,0.0,0.0,0.0,0.0,0.0,0.0,0.0,0.0,0.0,0.0,0.0,0.0,0.0,0.0,0.0,0.0,0.0,0.0,0.0,0.0,0.0,0.0,0.0,0.0,0.0,0.0,0.0,0.0,0.0,0.0,0.0,0.0,0.0,0.0,0.0,0.0,0.0,0.0,0.0,0.0,0.0,0.0,0.0,0.0,0.0,0.0,0.0,0.0,0.0,0.0,0.0,0.0,0.0,0.0,0.0,0.0,0.0,0.0,0.0,0.0,0.0,0.0,0.0,0.0,0.0,0.0,1.2801,1.4311,1.5391,1.5391,1.5391,1.5391,1.5391,1.4609,1.3769,0.0,0.0,0.0,0.0,0.0,0.0,0.0,0.0,0.0,0.0,0.0,0.0,0.0,0.0,0.0,0.0,0.0,0.0,0.0,0.0,0.0,0.0,0.0,0.0,0.0,0.0,0.0,0.0,0.0,0.0,0.0,0.0,0.0,0.0,0.0,0.0,0.0,0.0,0.0,0.0,0.0,0.0,0.0,0.0,0.0,0.0,0.0,0.0,0.0,0.0,0.0,0.0,0.0,0.0,0.0,0.0,0.0,0.0,0.0,0.0,0.0,0.0,0.0,0.0,0.0,0.0,0.0,0.0,0.0,0.0,0.0,0.0,0.0,0.0,0.0,0.0,0.0,0.0,0.0,0.0,0.0,0.0,0.0,0.0,0.0,0.0,0.0,0.0,0.0,0.0,0.0,0.0,0.0,0.0,0.0,0.0,0.0,0.0,0.0,0.0,0.0,0.0,0.0,1.2801,1.4311,1.5391,1.5391,1.5391,1.5391,1.5391,1.5156,1.4414,1.2988,0.0,0.0,0.0,0.0,0.0,0.0,0.0,0.0,0.0,0.0,0.0,0.0,0.0,0.0,0.0,0.0,0.0,0.0,0.0,0.0,0.0,0.0,0.0,0.0,0.0,0.0,0.0,0.0,0.0,0.0,0.0,0.0,0.0,0.0,0.0,0.0,0.0,0.0,0.0,0.0,0.0,0.0,0.0,0.0,0.0,0.0,0.0,0.0,0.0,0.0,0.0,0.0,0.0,0.0,0.0,0.0,0.0,0.0,0.0,0.0,0.0,0.0,0.0,0.0,0.0,0.0,0.0,0.0,0.0,0.0,0.0,0.0,0.0,0.0,0.0,0.0,0.0,0.0,0.0,0.0,0.0,0.0,0.0,0.0,0.0,0.0,0.0,0.0,0.0,0.0,0.0,0.0,0.0,0.0,0.0,0.0,0.0,0.0,0.0,0.0,0.0,0.0,1.2799,1.4638,1.5917,1.5918,1.5918,1.5918,1.5918,1.5605,1.4687,1.3008,0.0,0.0,0.0,0.0,0.0,0.0,0.0,0.0,0.0,0.0,0.0,0.0,0.0,0.0,0.0,0.0,0.0,0.0,0.0,0.0,0.0,0.0,0.0,0.0,0.0,0.0,0.0,0.0,0.0,0.0,0.0,0.0,0.0,0.0,0.0,0.0,0.0,0.0,0.0,0.0,0.0,0.0,0.0,0.0,0.0,0.0,0.0,0.0,0.0,0.0,0.0,0.0,0.0,0.0,0.0,0.0,0.0,0.0,0.0,0.0,0.0,0.0,0.0,0.0,0.0,0.0,0.0,0.0,0.0,0.0,0.0,0.0,0.0,0.0,0.0,0.0,0.0,0.0,0.0,0.0,0.0,0.0,0.0,0.0,0.0,0.0,0.0,0.0,0.0,0.0,0.0,0.0,0.0,0.0,0.0,0.0,0.0,0.0,0.0,0.0,0.0,0.0,1.2888,1.5135,1.6729,1.6796,1.6816,1.6797,1.6719,1.5977,1.4766,1.3008,0.0,0.0,0.0,0.0,0.0,0.0,0.0,0.0,0.0,0.0,0.0,0.0,0.0,0.0,0.0,0.0,0.0,0.0,0.0,0.0,0.0,0.0,0.0,0.0,0.0,0.0,0.0,0.0,0.0,0.0,0.0,0.0,0.0,0.0,0.0,0.0,0.0,0.0,0.0,0.0,0.0,0.0,0.0,0.0,0.0,0.0,0.0,0.0,0.0,0.0,0.0,0.0,0.0,0.0,0.0,0.0,0.0,0.0,0.0,0.0,0.9278,0.0,0.0,0.0,0.0,0.0,0.0,0.0,0.0,0.0,0.0,0.0,0.0,0.0,0.0,0.0,0.0,0.0,0.0,0.0,0.0,0.0,0.0,0.0,0.0,0.0,0.0,0.0,0.0,0.0,0.0,0.0,0.0,0.0,0.0,0.0,0.0,0.0,0.0,0.0,0.0,0.0,1.3656,1.547,1.6939,1.7583,1.7693,1.7441,1.6758,1.6523,1.541,1.3047,1.285,0.0,0.0,0.0,0.0,0.0,0.0,0.0,0.0,0.0,0.0,0.0,0.0,0.0,0.0,0.0,0.0,0.0,0.0,0.0,0.0,0.0,0.0,0.0,0.0,0.0,0.0,0.0,0.0,0.0,0.0,0.0,0.0,0.0,0.0,0.0,0.0,0.0,0.0,0.0,0.0,0.0,0.0,0.0,0.0,0.0,0.0,0.0,0.0,0.0,0.0,0.0,0.0,0.0,0.0,0.0,0.0,0.0,0.0,0.0,0.0,1.0139,0.0,0.0,0.0,0.0,0.0,0.0,0.0,0.0,0.0,0.0,0.0,0.0,0.0,0.0,0.0,0.0,0.0,0.0,0.0,0.0,0.0,0.0,0.0,0.0,0.0,0.0,0.0,0.0,0.0,0.0,0.0,0.0,0.0,0.0,0.0,0.0,0.0,0.0,0.0,0.0,1.3886,1.5898,1.7551,1.8433,1.8564,1.8239,1.7402,1.6934,1.5781,1.3613,1.3085,0.0,0.0,0.0,0.0,0.0,0.0,0.0,0.0,0.0,0.0,0.0,0.0,0.0,0.0,0.0,0.0,0.0,0.0,0.0,0.0,0.0,0.0,0.0,0.0,0.0,0.0,0.0,0.0,0.0,0.0,0.0,0.0,0.0,0.0,0.0,0.0,0.0,0.0,0.0,0.0,0.0,0.0,0.0,0.0,0.0,0.0,0.0,0.0,0.0,0.0,0.0,0.0,0.0,1.1887,1.2605,1.3586,1.3869,1.448,1.5201,1.3555,1.2257,1.1286,1.0898,0.0,0.0,0.0,0.0,0.0,0.0,0.0,0.0,0.0,0.0,0.0,0.0,0.0,0.0,0.0,0.0,0.0,0.0,0.0,0.0,0.0,0.0,0.0,0.0,1.4602,1.4758,1.3046,0.0,0.0,0.0,0.0,0.0,0.0,0.0,0.0,0.0,0.0,0.0,1.4293,1.6553,1.8386,1.9302,1.9434,1.9113,1.8301,1.7422,1.6172,1.4434,1.3555,1.2402,0.0,0.0,0.0,0.0,0.0,0.0,0.0,0.0,0.0,0.0,0.0,0.0,0.0,0.0,0.0,0.0,0.0,0.0,0.0,0.0,0.0,0.0,0.0,0.0,0.0,0.0,0.0,0.0,0.0,0.0,0.0,0.0,0.7403,0.7999,0.0,0.0,0.0,0.0,0.0,0.0,0.0,0.0,0.0,0.0,0.0,0.0,0.0,1.0418,1.0494,1.1996,1.2814,1.2935,1.395,1.4961,1.5879,1.5913,1.6444,1.731,1.7041,0.0,1.3393,1.3328,0.0,0.0,0.0,0.0,0.0,0.0,0.0,0.0,0.0,0.0,0.0,0.0,0.0,0.0,0.0,0.0,0.0,0.0,0.0,0.0,0.0,0.0,1.6119,1.5499,1.5748,1.6047,0.0,1.4277,1.3014,1.3086,1.2639,0.0,0.0,0.0,0.0,0.0,0.0,0.0,1.596,1.7842,1.9323,2.0145,2.0358,2.0078,1.9199,1.832,1.707,1.5332,1.4414,1.3535,1.2598,1.1094,0.0,0.0,0.0,0.0,0.0,0.0,0.0,0.0,0.0,0.0,0.0,0.0,0.0,0.0,0.0,0.0,0.0,0.0,0.0,0.0,0.0,0.0,0.0,0.0,0.0,0.0,0.0,0.0,0.0,0.74,0.8001,0.8273,0.8336,0.8238,0.0,0.0,0.0,0.0,0.0,0.0,0.0,0.0,0.0,1.1286,1.214,1.2608,1.2608,1.3634,1.4312,1.4613,1.5421,1.634,1.7324,1.7618,1.8144,1.8822,1.8822,1.7969,1.6473,1.5366,1.4169,1.3017,0.0,0.0,0.0,0.0,1.3687,1.4275,1.5495,1.6182,1.6417,1.591,0.0,0.0,0.0,0.0,0.0,0.0,0.0,1.5308,0.0,0.0,1.7958,1.8053,1.8222,1.8411,1.8568,1.7618,1.633,0.0,1.4828,1.4244,1.2162,0.0,0.0,0.0,0.0,1.5162,1.6942,1.833,1.9465,2.0309,2.0482,2.0211,1.9375,1.8496,1.7461,1.6211,1.4844,1.3945,1.3594,1.2402,1.1523,0.0,0.0,0.0,0.0,0.0,0.0,0.0,0.0,0.0,0.0,0.0,0.0,0.0,0.0,0.0,0.0,0.0,0.0,0.0,0.0,0.0,0.0,0.0,0.0,0.0,0.0,0.0,0.0,0.8463,0.8915,0.8915,0.9516,0.9617,0.0,0.0,0.0,0.0,0.0,0.0,1.1538,1.2005,1.2483,1.3019,1.3991,1.4513,1.4513,1.5035,1.5512,1.5906,1.6311,1.699,1.7907,1.8458,1.8987,1.9497,1.9639,1.9423,1.8837,1.7207,1.6054,1.5246,1.4739,1.4455,1.4406,1.516,1.5763,1.6384,1.78,1.8608,1.8908,1.8121,1.7704,1.7196,1.5351,0.0,0.0,0.0,0.0,1.6745,1.802,1.8775,1.9321,1.9866,2.0048,2.0159,2.036,2.0243,1.9405,0.0,1.697,1.6404,1.3668,0.0,0.0,0.0,0.0,1.6181,1.778,1.8783,1.9624,2.0324,2.047,2.0263,1.9687,1.8633,1.7715,1.707,1.5391,1.4434,1.4434,1.3633,1.2812,1.1953,0.0,0.0,0.0,0.0,0.0,0.0,0.0,0.0,0.0,0.0,0.0,0.0,0.0,0.0,0.0,0.0,0.0,0.0,0.0,0.0,0.0,0.0,0.0,0.0,0.0,0.0,0.0,0.0,0.0,1.0582,1.156,0.0,0.0,0.0,0.0,1.1477,1.1977,1.2755,1.3858,1.3964,1.4211,1.4765,1.5324,1.5618,1.5618,1.6158,1.6425,1.645,1.6493,1.679,1.7374,1.7907,1.8438,1.8968,1.9479,1.9678,1.9588,1.8852,1.7788,1.6592,1.6577,1.6204,1.5827,1.681,1.7201,1.7438,1.8843,1.935,1.9547,2.0632,2.0467,1.9676,1.886,1.8132,0.0,0.0,1.8707,1.891,1.9693,1.9917,1.9951,1.9985,2.0179,2.0384,2.0395,2.0838,2.074,0.0,1.837,1.7525,1.5899,0.0,1.5726,1.5817,1.6599,1.7555,1.8611,1.9507,2.0144,2.0379,2.047,2.0517,2.0527,1.8984,1.7988,1.7949,1.6309,1.5332,1.5332,1.4492,1.3652,1.2852,1.1973,0.0,0.0,0.0,0.0,0.0,0.0,0.0,0.0,0.0,0.0,0.0,0.0,0.0,0.0,0.0,0.0,0.0,0.0,0.0,0.0,0.0,0.0,0.0,0.0,0.0,0.0,0.0,0.0,1.2271,1.3006,0.0,1.2124,1.2747,1.3204,1.3204,1.3702,1.4343,1.5085,1.5135,1.5387,1.5919,1.612,1.6199,1.6199,1.64,1.65,1.65,1.65,1.6774,1.7312,1.7504,1.7887,1.8419,1.8949,1.9188,1.9192,1.9295,1.9061,1.8627,1.8627,1.8493,1.8347,1.8706,1.9,1.9308,1.9814,2.0346,2.085,2.112,2.0653,1.9951,1.9693,1.9423,1.9389,2.0158,2.0378,2.0547,2.1282,2.1485,2.1485,2.1485,2.1549,2.1629,2.1629,2.1933,2.1873,2.0799,2.0514,1.9966,1.833,1.8043,1.7938,1.7601,1.7805,1.8396,1.9445,1.9886,2.0155,2.0322,2.0434,2.0511,2.0538,1.8983,1.8008,1.8008,1.6367,1.5391,1.5391,1.5098,1.4531,1.3691,1.3379,1.2109,0.0,0.0,0.0,0.0,0.0,0.0,0.0,0.0,0.0,0.0,0.0,0.0,0.0,0.0,0.0,0.0,0.0,0.0,0.0,0.0,0.0,0.0,0.0,0.0,0.0,0.0,1.3308,1.3483,1.4343,1.4544,1.3596,1.4368,1.4821,1.4651,1.5135,1.558,1.5957,1.5969,1.6132,1.6488,1.65,1.65,1.65,1.65,1.65,1.65,1.65,1.6701,1.7034,1.7209,1.7585,1.8145,1.8669,1.9006,1.9207,1.9548,1.9708,1.9708,1.9708,1.9708,1.9708,1.9708,1.9874,2.0124,2.0246,2.0781,2.1379,2.1347,2.0974,2.0569,2.0735,2.0792,2.0893,2.1414,2.1566,2.1684,2.2161,2.2296,2.2296,2.2296,2.2296,2.2296,2.2296,2.2514,2.2526,2.2004,2.1874,2.1461,2.0195,1.9975,1.9774,1.92,1.9105,1.9287,1.9798,1.9931,2.0052,2.0221,2.0342,2.0438,2.0451,1.8928,1.796,1.796,1.6321,1.5365,1.5365,1.5365,1.4976,1.4119,1.3828,1.2715,1.0723,0.0,0.0,0.0,0.0,0.0,0.0,0.0,0.0,0.0,0.0,0.0,0.0,0.0,0.0,0.0,0.0,0.0,0.0,0.0,0.0,0.0,0.0,0.0,1.2475,1.3891,1.4739,1.4223,1.5563,1.5881,1.4343,1.558,1.6274,1.5756,1.622,1.65,1.65,1.65,1.65,1.6525,1.6525,1.6525,1.6525,1.6538,1.6538,1.6525,1.6538,1.655,1.6572,1.7086,1.7618,1.8161,1.8674,1.9199,1.9687,1.969,1.969,1.9708,1.9708,1.9708,1.9708,1.9708,1.9708,1.9764,2.0158,2.06,2.1039,2.1445,2.1582,2.1688,2.2135,2.2296,2.2296,2.2296,2.2296,2.2296,2.2296,2.2296,2.2296,2.2296,2.2296,2.2296,2.2296,2.25,2.2682,2.2682,2.2316,2.1866,2.1448,2.1354,2.1151,2.0653,2.0566,0.0,1.9711,1.9745,1.9906,2.008,2.0225,2.0338,2.0383,1.8889,1.7936,1.7897,1.6285,1.5335,1.5296,1.5296,1.4939,1.4162,1.3357,1.2519,1.168,0.0,0.0,0.0,0.0,0.0,0.0,0.0,0.0,0.0,0.0,0.0,0.0,0.0,0.0,0.0,0.0,0.0,0.0,0.0,0.0,0.0,0.0,1.372,1.415,1.4947,1.5567,1.5806,1.6233,1.6333,1.5881,1.6237,1.6437,1.6287,1.6412,1.65,1.65,1.65,1.671,1.7137,1.7149,1.7149,1.7149,1.7539,1.7539,1.7149,1.7551,1.7739,1.7739,1.7888,1.828,1.8811,1.8515,1.896,1.9817,1.9322,1.935,1.9708,1.9708,1.9708,1.9708,1.9708,1.9708,1.9764,2.0158,2.0382,2.0566,2.1023,2.1353,2.1612,2.1748,2.2032,2.2296,2.2296,2.2296,2.2296,2.2296,2.2296,2.2296,2.2296,2.2296,2.2296,2.2296,2.2363,2.2398,2.2398,2.2313,2.2383,2.2952,2.2553,2.221,2.231,2.1822,0.0,2.0547,2.0602,2.0515,2.006,2.0183,2.0319,2.0338,1.9368,1.8516,1.7936,1.6863,1.5969,1.5335,1.5296,1.5213,1.5042,1.4207,1.3648,0.0,0.0,0.0,0.0,0.0,0.0,0.0,0.0,0.0,0.0,0.0,0.0,0.0,0.0,0.0,0.0,0.0,0.0,0.0,0.0,0.0,0.0,1.4001,1.4817,1.5159,1.5687,1.6158,1.645,1.65,1.65,1.65,1.6735,1.6886,1.6886,1.7099,1.7202,1.7202,1.7202,1.7375,1.7714,1.7727,1.7727,1.7727,1.8041,1.8041,1.7727,1.8053,1.8204,1.8204,1.8204,1.8518,1.905,1.8963,1.9404,2.0203,1.9803,1.9834,0.0,0.0,0.0,0.0,0.0,1.9708,1.9729,1.9965,2.0052,2.0106,2.055,2.1007,2.1384,2.1536,2.1928,2.2296,2.2296,2.2296,2.2296,2.2296,2.2296,2.2296,2.2296,2.2296,2.2296,2.2296,2.2296,2.2296,2.2296,2.2296,0.0,2.3171,2.3006,2.2794,2.278,2.2502,2.2031,2.1306,2.1331,2.1147,2.0412,2.0489,2.0487,2.0196,1.9432,0.0,0.0,0.0,1.6677,1.5834,1.5798,0.0,0.0,0.0,0.0,0.0,0.0,0.0,0.0,1.3672,1.3789,0.0,0.0,0.0,0.0,0.0,0.0,0.0,0.0,0.0,0.0,0.0,0.0,0.0,0.0,0.0,0.0,1.4931,1.5601,1.5666,1.6154,1.65,1.65,1.655,1.6588,1.6588,1.7137,1.7498,1.7498,1.7928,1.8204,1.8204,0.0,0.0,0.0,0.0,1.8292,1.8292,1.8355,1.8355,1.8292,1.8355,1.838,1.838,1.838,1.8676,1.9232,1.9633,2.0142,2.0711,2.0641,2.0697,2.0752,1.9989,1.9708,1.9708,1.9708,1.9708,1.9708,1.9708,0.0,0.0,2.0106,2.0533,2.0991,2.1414,2.1838,2.2223,2.2282,2.2296,2.2296,2.2296,2.2296,2.2296,2.2296,2.2296,2.2296,2.2296,2.2296,2.2296,2.2296,2.2296,2.2374,2.2612,2.296,2.308,2.2692,2.2909,2.285,2.2033,2.2046,2.183,2.1008,2.097,0.0,2.0164,1.9388,1.8924,1.897,1.8177,1.7372,1.666,1.6646,1.6646,1.666,1.6769,1.7188,1.7912,1.7967,1.8047,1.8086,1.5664,1.543,0.0,0.0,0.0,0.0,0.0,0.0,0.0,0.0,0.0,0.0,0.0,0.0,0.0,0.0,0.0,1.439,1.4778,1.5198,1.6112,1.6387,1.65,1.65,1.6936,1.7234,1.7234,1.7714,1.8053,1.8053,1.8141,1.8204,1.8204,1.8204,1.8405,1.8832,1.8845,1.8845,1.8845,1.9284,1.9284,1.8845,0.0,0.0,1.9497,1.9497,1.9837,2.039,1.9558,1.979,2.0754,2.0258,2.0627,2.138,2.0172,1.9708,1.9708,1.9708,1.9708,1.9708,1.9708,1.9708,1.9711,1.98,2.0104,2.0516,2.0975,2.1415,0.0,2.2194,2.2296,2.2296,2.2296,2.2296,2.2296,2.2296,2.2296,2.2296,2.2296,2.2296,2.2296,2.2296,2.2296,2.2324,2.236,2.2832,2.327,2.3433,2.3749,2.3676,2.2859,2.2869,2.2659,2.1849,2.132,2.0954,2.082,2.007,1.9397,1.8862,1.8114,1.7622,1.7468,1.7462,1.7512,1.763,1.7649,1.7764,1.7987,1.7988,1.8359,1.9023,1.7812,1.7793,0.0,0.0,0.0,0.0,0.0,0.0,0.0,0.0,0.0,0.0,0.0,1.289,0.0,0.0,1.4579,1.584,1.6288,1.6538,1.6812,1.7146,1.734,1.734,1.7375,1.7511,1.7765,1.8292,1.8594,1.8594,1.8857,1.9007,1.9007,1.9007,1.9133,1.9384,1.9384,1.9384,1.9384,1.9673,1.9673,1.9384,1.9673,1.9798,1.9798,1.9798,1.9978,2.0283,2.0025,2.0227,2.081,2.0812,2.0955,2.116,2.0835,2.0711,2.0711,2.0711,2.0711,2.0711,2.0711,2.0711,2.0647,2.0303,2.0482,2.0783,2.0676,2.1086,2.1658,2.1884,2.212,2.2296,2.2296,2.2296,2.2296,2.2296,2.2296,2.2296,2.2296,2.2296,2.2296,2.2296,2.2296,2.2296,2.2296,2.2656,2.3009,2.3177,2.3639,2.3792,2.3399,2.3557,2.3379,2.2585,2.2203,2.169,2.0955,2.0226,1.9682,1.9421,1.9045,1.8701,1.8353,1.835,1.8371,1.8449,1.8518,1.8778,1.9198,1.9275,1.9746,2.0586,2.0156,2.0195,0.0,0.0,0.0,0.0,0.0,0.0,0.0,0.0,1.2242,1.2633,1.3355,1.4268,1.5416,1.5668,1.604,1.7123,1.7593,1.7726,1.7495,1.7883,1.8279,1.8493,1.8041,1.7877,1.8317,1.8832,1.9158,1.9158,1.9572,1.9798,1.9798,1.9798,1.9798,1.9798,1.9798,1.9798,1.9798,1.9798,1.9798,1.9798,1.9798,1.9798,1.9798,1.9798,1.9798,1.9824,2.0371,2.0671,2.0868,2.1457,2.1462,2.1139,2.1815,2.2069,2.2039,2.1784,2.1695,2.1695,2.1695,2.1695,2.1605,2.1062,2.1031,2.1101,2.0634,2.0957,2.1491,2.1582,2.1928,2.2296,2.2296,2.2296,2.2296,2.2296,2.2296,2.2296,2.2296,2.2296,2.2296,2.2296,2.2296,2.2296,2.2296,2.249,2.2634,2.2695,2.323,2.3599,2.3599,2.3837,2.3779,2.3206,2.3005,2.2326,2.0867,2.0275,1.9966,1.9922,1.9964,1.9768,1.9227,1.9223,1.9242,1.9251,1.9357,1.9825,2.0678,2.0771,2.1289,2.2148,2.2148,2.2246,1.1613,1.148,1.1751,1.2052,1.2037,1.2487,0.0,0.0,1.4377,1.5707,1.6061,1.6348,1.703,1.6173,1.578,1.7086,1.6812,1.6788,1.7862,1.8117,1.8555,1.951,1.9133,1.8845,1.8907,1.9409,1.971,1.971,1.9773,1.9798,1.9798,1.9798,1.9798,1.9798,1.9798,1.9798,1.9798,1.9798,1.9798,1.9798,1.9798,1.9798,1.9798,1.9798,1.9798,1.9798,1.9875,2.0258,2.0845,2.1452,2.2006,2.2546,2.3155,2.3385,2.3251,2.2113,2.1695,2.1695,2.1695,2.1695,2.168,2.1605,2.1225,2.0828,2.1098,2.1138,2.1134,2.1491,2.1928,2.2296,2.2296,2.2296,2.2296,2.2296,2.2296,2.2296,2.2296,2.2296,2.2296,2.2296,2.2296,2.2296,2.2296,2.2321,2.2426,2.2656,2.3021,2.3265,2.3265,2.33,2.3379,2.3605,2.2984,2.2005,2.0647,2.0619,2.0387,1.9686,1.9869,1.9979,1.9898,2.0067,2.0157,2.014,2.018,2.0659,2.1637,2.1662,2.2142,2.3047,2.3047,2.3437,1.2899,1.3019,0.0,0.0,1.3443,1.3917,1.4915,1.512,1.5372,1.6316,1.65,1.6685,1.7297,1.7163,1.7267,0.0,1.8273,1.8489,1.9002,1.8834,1.882,1.9271,1.8857,1.877,1.9384,1.9673,1.9798,1.9798,1.9798,1.9798,1.9798,1.9798,1.9798,1.9798,1.9798,1.9798,1.9798,1.9798,1.9798,1.9798,1.9798,1.9798,1.9798,1.9798,1.9798,1.9798,1.9798,1.9952,2.0295,2.128,2.1875,2.2216,2.3194,2.3595,2.3535,2.2996,2.2802,2.2802,2.2802,2.2802,2.2742,2.2403,2.2104,2.1809,2.1598,2.1548,2.1615,2.1779,2.205,2.2296,2.2296,2.2296,2.2296,2.2296,2.2296,2.2296,2.2296,2.2296,2.2296,2.2296,2.2296,2.2296,2.2296,2.2296,2.2335,2.245,2.273,2.291,2.291,2.3081,2.3335,2.3671,2.2978,2.2347,2.1989,2.1604,2.1266,2.1012,2.1199,2.114,2.0721,2.1382,2.1525,2.1004,2.1539,2.2025,2.2433,2.2485,2.2937,2.3775,2.3814,2.4288,1.3494,0.0,0.0,1.4082,1.4516,1.4995,1.517,1.555,1.5987,1.6407,1.65,1.6685,1.7297,1.7412,1.769,1.8561,1.8879,1.9147,1.9451,1.922,1.9008,1.9008,1.8519,1.8568,1.9497,1.9585,1.9648,1.9798,1.9798,1.9798,1.9798,1.9798,1.9798,1.9798,1.9798,1.9798,1.9798,1.9798,1.9798,1.9798,1.9798,1.9798,1.9798,1.9798,1.9798,1.9798,1.9798,1.9798,1.9901,2.1183,2.1697,2.1815,2.3106,2.3595,2.3595,2.3595,2.3595,2.3595,2.3595,2.3595,2.3535,2.3092,2.2838,2.2613,2.2134,2.1894,2.1827,2.1962,2.2049,2.2135,2.2268,2.2296,2.2296,2.2296,2.2296,2.2296,2.2296,2.2296,2.2296,2.2296,2.2296,2.2296,2.2296,2.2296,2.2296,2.2296,2.2463,2.2586,2.2586,2.2878,2.3153,2.3403,2.3063,2.2833,2.2866,2.2401,2.2085,2.1948,2.2175,2.2054,2.1525,2.2341,2.2509,2.187,2.2539,2.2993,2.3253,2.3306,2.375,2.4552,2.4613,2.4961,0.0,0.0,1.4653,1.4504,1.4882,1.5453,1.6115,1.6268,1.6322,1.647,1.65,1.6685,1.7297,1.6291,1.5958,1.7662,1.7465,1.7466,1.859,1.8878,1.9008,1.9008,1.8519,1.843,0.0,1.902,1.9233,1.9761,1.9798,1.9798,1.9798,1.9798,1.9798,1.9798,1.9798,1.9798,1.9798,1.9798,1.9798,1.9798,1.9798,1.9798,1.9798,1.9798,1.9798,1.9798,1.9798,1.9798,1.9901,2.1183,2.1697,2.1815,2.3106,2.3595,2.3595,2.3595,2.3595,2.3595,2.3595,2.3595,2.3595,2.358,2.3182,2.2703,2.2673,2.2033,2.1426,2.1861,2.1811,2.1735,2.218,2.2296,2.2296,2.2296,2.2296,2.2296,2.2296,2.2296,2.2296,2.2296,2.2296,2.2296,2.2296,2.2296,2.2296,2.2296,2.231,2.231,2.231,2.255,2.2721,2.2733,2.3294,2.335,2.2581,2.2783,2.263,2.1858,2.2118,2.2293,2.2262,2.2602,2.2797,2.2759,2.2802,2.3245,2.4157,2.4161,2.4609,2.5452,2.5454,2.5474,1.2915,0.0,1.3958,1.385,1.4522,1.5213,1.5452,1.5586,1.5774,1.6274,1.5793,1.548,1.6084,1.5777,1.5723,1.664,1.7322,1.7951,1.8617,1.8878,1.887,1.8506,1.8317,0.0,0.0,0.0,0.0,1.9761,1.9798,1.9798,1.9798,1.9798,1.9798,1.9798,1.9798,1.9798,1.9798,1.9798,1.9798,1.9798,1.9798,1.9798,1.9798,1.9798,1.9798,1.9824,2.0283,2.0446,2.0572,2.1833,2.2369,2.2452,2.3275,2.3595,2.3595,2.3595,2.3595,2.3595,2.3595,2.3595,2.3595,2.3595,2.346,2.3295,2.3295,2.2965,2.2738,2.324,2.2846,2.2383,2.2904,2.2682,2.2296,2.2296,2.2296,2.2296,2.2296,2.2296,2.2296,2.2296,2.2296,2.2296,2.2296,2.2296,2.2296,2.2296,2.2296,2.2296,2.2296,2.2374,2.25,2.2682,2.291,2.3124,2.3271,2.3397,2.3437,2.3391,2.3618,2.3501,2.2918,2.3777,2.4009,2.3468,2.4111,2.462,2.493,2.493,2.5087,2.5375,2.5408,2.5438,1.3065,1.3452,1.3811,1.3936,1.448,1.5024,1.507,1.5173,1.5326,1.5671,1.5188,1.4812,1.5208,1.5072,1.5079,1.5698,1.6511,1.7355,1.8182,1.8468,1.8573,1.8495,1.8329,1.8279,0.0,0.0,0.0,1.9761,1.9798,1.9798,1.9798,1.9798,1.9798,1.9798,1.9798,1.9798,1.9798,1.9798,1.9798,1.9798,1.9798,1.9798,1.9798,1.9798,1.9798,1.9824,2.0258,2.0572,2.087,2.1927,2.2475,2.2762,2.3377,2.3595,2.3595,2.3595,2.3595,2.3595,2.3595,2.3595,2.3595,2.3595,2.3595,2.3595,2.3595,2.3356,2.3231,2.3916,2.3154,2.228,2.2965,2.2597,2.2046,2.2046,2.218,2.2296,2.2296,2.2296,2.2296,2.2296,2.2296,2.2296,2.2296,2.2296,2.2296,2.2296,2.2296,2.2296,2.2296,2.2296,2.2377,2.2537,2.2634,2.2923,2.3471,2.3621,2.3837,2.418,2.4393,2.4244,2.368,2.4515,2.4757,2.4236,2.4935,2.5308,2.5308,2.5308,2.5308,2.5308,2.5337,2.5352,1.3525,1.3821,1.4241,1.4687,1.4813,1.4844,1.5032,1.5055,1.4942,1.469,1.4618,1.4596,0.0,0.0,1.4003,1.4867,1.5117,1.5737,1.7323,1.7736,1.8156,0.0,0.0,0.0,0.0,0.0,0.0,1.9761,0.0,1.9798,1.9798,1.9798,1.9798,1.9798,1.9798,1.9798,1.9798,1.9798,1.9798,1.9798,1.9798,1.9798,1.9798,1.9798,1.9824,1.985,1.985,2.0245,2.0944,2.1534,2.2146,2.2785,2.3377,2.3595,2.3595,2.3595,2.3595,2.3595,2.3595,2.3595,2.3595,2.3595,2.3595,2.3595,2.3595,2.3212,2.2944,2.3904,2.2839,2.1663,2.2557,2.2236,2.1676,2.1643,2.1988,2.2296,2.2296,2.2296,2.2296,2.2296,2.2296,2.2296,2.2296,2.2296,2.2296,2.2296,2.2296,2.2296,2.2296,2.2296,2.2296,2.2296,2.2541,2.281,2.3141,2.3488,2.3816,2.4161,2.4375,2.4486,2.4486,2.4797,2.4986,2.4992,2.5173,2.5279,2.5308,2.5308,2.5308,2.5308,2.5308,2.5308,1.3773,1.4287,1.4648,1.4784,1.4813,1.4812,1.4859,1.436,1.3927,1.4013,1.34,1.2886,0.0,0.0,0.0,1.378,1.4625,0.0,1.6626,1.7313,0.0,1.8142,0.0,1.8689,1.8971,1.9359,0.0,0.0,1.9798,1.9798,1.9798,1.9798,1.9798,1.9798,1.9798,1.9798,1.9798,1.9798,1.9798,1.9798,1.9798,1.9798,1.9798,1.9798,2.0067,2.056,2.056,2.1175,2.2221,2.2383,2.2815,2.3399,2.353,2.3595,2.3595,2.3595,2.3595,2.3595,2.3595,2.3595,2.3595,2.3595,2.3595,2.3595,2.3595,2.349,2.3589,2.4622,2.4175,2.3487,2.393,2.3495,2.2807,2.2255,2.2209,2.2296,2.2296,2.2296,2.2296,2.2296,2.2296,2.2296,2.2296,2.2296,2.2296,2.2296,2.2296,2.2296,2.2296,2.2296,2.2296,2.2296,2.236,2.2531,2.2797,2.3129,2.3459,2.3806,2.4114,2.4275,2.4275,2.4501,2.4704,2.4849,2.5005,2.5152,2.5308,2.5308,2.5308,2.5308,2.5308,2.5308,1.4287,1.4736,1.5059,1.5059,1.4922,1.4687,1.4307,1.3711,1.317,1.2881,1.2363,0.0,0.0,0.0,0.0,0.0,0.0,0.0,1.6102,1.6738,1.7395,0.0,1.851,0.0,1.9321,1.9623,1.9798,0.0,1.9798,1.9798,1.9798,1.9798,1.9798,1.9798,1.9798,1.9798,1.9798,1.9798,1.9798,1.9798,1.9798,1.9798,1.9798,1.9798,2.0003,2.0346,2.0346,2.1088,2.2276,2.2276,2.2778,2.3595,2.3595,2.3595,2.3595,2.3595,2.3595,2.3595,2.3595,2.3595,2.3595,2.3595,2.3595,2.3595,2.3595,2.3595,2.3815,2.491,2.4519,2.3936,2.4564,2.3907,2.2988,2.2569,2.2385,2.2296,2.2296,2.2296,2.2296,2.2296,2.2296,2.2296,2.2296,2.2296,2.2296,2.2296,2.2296,2.2296,2.2296,2.2296,2.2296,2.2296,2.2296,2.2398,2.2669,2.3009,2.3346,2.3682,2.4016,2.419,2.419,2.4393,2.4543,2.4662,2.4885,2.5065,2.5163,2.5259,2.5308,2.5308,2.5308,2.5308,1.4834,1.5127,1.54,1.5342,1.501,1.4473,1.3623,1.3096,1.2553,1.1636,0.0,1.1479,1.1371,1.1768,1.2262,1.2725,0.0,1.4423,1.56,1.6137,1.6959,1.8382,1.8635,1.9016,1.9834,1.9911,1.9949,2.0024,1.9962,1.9874,1.9798,1.9798,1.9798,1.9798,1.9798,1.9836,1.9911,1.9911,1.9911,1.9911,1.9911,1.9911,1.9911,1.9911,2.0001,2.0142,2.0001,2.0675,2.194,2.1762,2.2455,2.3595,2.3595,2.3595,2.3595,2.3595,2.3595,2.3595,2.3595,2.3595,2.3595,2.3595,2.3595,2.3595,2.3595,2.3595,2.3815,2.491,2.4448,2.3863,2.4837,2.4017,2.2908,2.2825,2.2536,2.2296,2.2296,2.2296,2.2296,2.2296,2.2296,2.2296,2.2296,2.2296,2.2296,2.2296,2.2296,2.2296,2.2296,2.2296,2.2296,2.2296,2.2296,2.2398,2.2669,2.3009,2.3346,2.3682,2.4016,2.419,2.419,2.4366,2.4469,2.4503,2.4783,2.4962,2.501,2.5187,2.5269,2.5308,2.5308,2.5308,1.5107,1.5352,1.5322,1.498,1.457,1.3997,1.3184,1.2656,0.0,0.0,1.0781,1.0811,1.0079,1.0898,1.1848,1.2242,0.0,0.0,0.0,0.0,1.6444,0.0,0.0,0.0,0.0,0.0,0.0,0.0,2.0805,2.0327,1.9823,1.9798,1.9798,1.9798,1.9798,2.0037,2.0541,2.0541,2.0541,2.0541,2.0541,2.0541,2.0541,2.0541,2.1074,2.1888,2.0943,0.0,2.3108,2.2108,2.2455,2.3595,2.3595,2.3595,2.3595,2.3595,2.3595,2.3595,2.3595,2.3595,2.3595,2.3595,2.3595,2.3595,2.3595,2.3595,2.3815,2.491,2.5048,2.4976,2.538,2.4854,2.4028,2.3422,2.2777,2.2296,2.2296,2.2296,2.2296,2.2296,2.2296,2.2296,2.2296,2.2296,2.2296,2.2296,2.2296,2.2296,2.2296,2.2296,2.2296,2.2296,2.2296,2.2398,2.2669,2.3009,2.3346,2.3682,2.4016,2.419,2.419,2.4237,2.4339,2.4495,2.4559,2.473,2.5004,2.5034,2.5146,2.5308,2.5308,2.5308,1.5234,1.541,1.5312,1.4893,1.4463,1.3831,1.2759,0.0,0.0,0.0,1.0088,1.0098,0.967,0.0,0.0,0.0,0.0,0.0,0.0,0.0,0.0,0.0,0.0,0.0,0.0,0.0,0.0,0.0,2.127,2.1006,2.069,2.0413,2.0112,1.9811,2.0087,2.0415,2.0691,2.0981,2.1119,2.1119,2.1119,2.1119,2.1119,2.1119,2.1422,2.19,2.1066,2.1589,2.2975,2.2055,2.2455,2.3595,2.3595,2.3595,2.3595,2.3595,2.3595,2.3595,2.3595,2.3595,2.3595,2.3595,2.3595,2.3595,2.3595,2.3595,2.3773,2.4572,2.4973,2.5293,2.5707,2.5429,2.4983,2.4628,2.3697,2.2767,2.2381,2.2296,2.2296,2.2296,2.2296,2.2296,2.2296,2.2296,2.2296,2.2296,2.2296,2.2349,2.2487,2.2514,2.2514,2.2514,2.2514,2.2625,2.2935,2.3277,2.3533,2.3692,2.4016,2.419,2.419,2.419,2.4247,2.433,2.4462,2.4591,2.4745,2.485,2.4955,2.505,2.505,2.5072,1.5156,1.5342,1.5293,1.4775,1.4358,1.3753,1.2379,1.1453,0.0,0.0,0.9474,0.9474,0.9474,0.0,0.0,0.0,0.0,0.0,0.0,0.0,0.0,0.0,0.0,0.0,0.0,0.0,0.0,0.0,2.1732,2.1606,2.1493,2.1106,2.0654,2.0175,2.0629,2.093,2.1043,2.1443,2.1656,2.1656,2.1656,2.1656,2.1656,2.1656,2.1844,2.2048,2.1363,2.1799,2.2961,2.2219,2.2583,2.3595,2.3595,2.3595,2.3595,2.3595,2.3595,2.3595,2.3595,2.3595,2.3595,2.3595,2.3595,2.3595,2.3595,2.3595,2.3724,2.4246,2.4792,2.5316,2.587,2.5798,2.5524,2.5187,2.4239,2.319,2.2448,2.2296,2.2296,2.2296,2.2296,2.2296,2.2296,2.2296,2.2296,2.2296,2.2296,2.2374,2.2586,2.2656,2.2708,2.2708,2.2708,2.2835,2.3165,2.3437,2.366,2.3795,2.4046,2.419,2.419,2.419,2.419,2.419,2.4367,2.4452,2.4503,2.4654,2.476,2.4804,2.4804,2.4864,1.4727,1.5117,1.5215,1.4367,1.4133,1.3665,1.2025,0.0,0.0,0.9316,0.9062,0.9062,0.9062,0.9766,0.0,0.0,0.0,0.0,0.0,0.0,0.0,0.0,0.0,0.0,0.0,0.0,0.0,2.292,2.2493,2.202,2.1546,2.1443,2.1393,2.1343,2.1393,2.1656,2.2159,2.2209,2.2234,2.2234,2.2234,2.2234,2.2234,2.2234,2.2904,2.3982,2.2782,2.3039,0.0,2.3068,2.3009,2.3595,2.3595,2.3595,2.3595,2.3595,2.3595,2.3595,2.3595,2.3595,2.3595,2.3595,2.3595,2.3595,2.3595,2.3595,2.3724,2.4246,2.4792,2.5316,2.587,2.5798,2.527,2.3917,2.3494,2.319,2.2448,2.2296,2.2296,2.2296,2.2296,2.2296,2.2296,2.2296,2.2296,2.2296,2.2296,2.231,2.2335,2.255,2.2708,2.2708,2.2708,2.2835,2.3165,2.3224,2.3511,2.4132,2.418,2.419,2.419,2.419,2.419,2.419,2.4218,2.4321,2.4503,2.452,2.4615,2.4804,2.4804,2.4864,1.46,1.4902,1.4893,1.426,1.4104,1.3656,1.1976,0.0,1.0244,0.9219,0.8809,0.8718,0.8955,0.9492,1.0147,0.0,1.1103,1.174,1.3771,0.0,0.0,0.0,0.0,0.0,0.0,0.0,0.0,2.3083,2.2895,2.2681,2.2456,2.1845,2.1493,2.1493,2.1807,2.2083,2.2309,2.2606,2.2606,2.2309,2.2309,2.2309,2.2309,2.2309,2.3036,2.4226,2.2956,2.3185,0.0,2.3204,2.3054,2.3595,2.3595,2.3595,2.3595,2.3595,2.3595,2.3595,2.3595,2.3595,2.3595,2.3595,2.3595,2.3595,2.3595,2.3595,2.3638,2.3858,2.4307,2.4835,2.5373,2.5889,2.5998,2.4966,2.4391,2.3864,2.3122,2.2615,2.2296,2.2296,2.2296,2.2296,2.2296,2.2296,2.2296,2.2296,2.2296,2.2429,2.2798,2.294,2.3081,2.3288,2.3311,2.3357,2.35,2.3682,2.3917,2.418,2.419,2.419,2.419,2.419,2.419,2.419,2.419,2.4247,2.4321,2.4321,2.4357,2.4435,2.4435,2.4607,1.4209,1.4502,1.4492,1.4026,1.3919,1.35,0.0,1.0919,1.0058,0.918,0.8688,0.8522,0.8926,0.9328,0.9893,0.0,1.0771,1.1427,1.3598,0.0,0.0,0.0,0.0,0.0,0.0,0.0,2.3108,2.3108,2.2957,2.2932,2.3095,2.2246,2.1807,2.197,2.2347,2.2531,2.2531,2.2744,2.2669,2.2309,2.2146,2.2159,2.2297,2.2146,2.2894,2.4261,2.3004,2.3259,0.0,2.3393,2.3224,2.3595,2.3595,2.3595,2.3595,2.3595,2.3595,2.3595,2.3595,2.3595,2.3595,2.3595,2.3595,2.3595,2.3595,2.3595,2.3595,2.3595,2.4095,2.4756,2.5297,2.607,2.6454,2.5507,2.488,2.4237,2.3274,2.2682,2.2296,2.2296,2.2296,2.2296,2.2296,2.2296,2.2296,2.2296,2.2296,2.248,2.2984,2.3141,2.33,2.3533,2.3724,2.3806,2.3703,2.3917,2.4094,2.419,2.419,2.419,2.419,2.419,2.419,2.419,2.419,2.419,2.419,2.419,2.419,2.419,2.4257,2.4485,1.3408,1.3802,1.4007,1.3623,1.3516,1.3174,0.0,1.0919,1.0058,0.918,0.8688,0.8522,0.8926,0.9328,0.9893,1.0771,1.1291,1.2172,1.3849,0.0,0.0,0.0,0.0,0.0,0.0,2.2171,2.3108,2.3108,2.2606,0.0,2.307,2.2581,2.2518,2.307,2.3095,2.3095,2.3095,2.2556,2.2322,2.2297,2.1757,2.1782,2.2297,2.1744,2.2553,2.4336,2.3124,2.3359,0.0,2.3857,2.3595,2.3595,2.3595,2.3595,2.3595,2.3595,2.3595,2.3595,2.3595,2.3595,2.3595,2.3595,2.3595,2.3595,2.3595,2.3595,2.3595,2.3595,2.4369,2.5316,2.5852,2.6349,2.6336,2.4863,2.4508,2.4101,2.2632,2.2296,2.2296,2.2296,2.2296,2.2296,2.2296,2.2296,2.2296,2.2296,2.2296,2.2402,2.2673,2.2996,2.32,2.32,2.3795,2.4064,2.3724,2.3703,2.3855,2.418,2.419,2.419,2.419,2.419,2.419,2.419,2.419,2.419,2.419,2.419,2.419,2.4199,2.441,2.467,1.2574,1.2949,1.3174,1.272,1.2613,1.234,1.1348,1.0459,0.9659,0.9121,0.8688,0.8522,0.8926,0.9328,0.9893,1.0771,1.1025,0.0,0.0,0.0,0.0,0.0,0.0,0.0,0.0,0.0,2.3108,2.3108,2.2945,2.292,2.3095,2.2581,2.2543,2.3083,2.3108,2.292,2.2543,2.2368,2.1933,2.1207,2.1031,2.1043,2.1207,2.1031,2.2007,2.3797,2.2945,2.3369,2.4545,2.3879,2.3595,2.3595,2.3595,2.3595,2.3595,2.3595,2.3595,2.3595,2.3595,2.3595,2.3595,2.3595,2.3595,2.3595,2.3595,2.3595,2.3595,2.3595,2.4369,2.524,2.5411,2.607,2.6573,2.6116,2.5235,2.4372,2.3915,2.3004,2.2296,2.2296,2.2296,2.2296,2.2296,2.2296,2.2296,2.2296,2.2296,2.248,2.2972,2.3129,2.33,2.3522,2.3927,2.4064,2.3724,2.3907,2.4084,2.419,2.419,2.419,2.419,2.419,2.419,2.419,2.419,2.419,2.419,2.419,2.419,2.4199,2.441,2.4639,0.0,1.2051,1.2338,1.2041,1.1973,1.1748,1.0869,1.0118,0.9445,0.8887,0.8581,0.857,0.9151,0.9451,0.9891,1.0785,1.1061,0.0,0.0,0.0,0.0,0.0,0.0,0.0,0.0,2.2857,2.3108,2.3108,2.2907,2.2794,2.2794,2.2297,2.2159,2.2498,2.2493,2.2418,2.2309,2.1895,2.1343,2.0691,2.0465,2.0478,2.0679,2.0465,2.1407,2.319,2.2542,2.2998,0.0,2.3774,2.3595,2.3595,2.3595,2.3595,2.3595,2.3595,2.3595,2.3595,2.3595,2.3595,2.3595,2.3595,2.3595,2.3595,2.3595,2.3595,2.3595,2.3595,2.4369,2.5202,2.5202,2.5962,2.6623,2.6353,2.5575,2.4762,2.4203,2.3359,2.2632,2.2347,2.2296,2.2296,2.2296,2.2296,2.2296,2.2296,2.2296,2.2467,2.2947,2.3117,2.3335,2.3671,2.3996,2.4132,2.3907,2.4084,2.419,2.419,2.419,2.419,2.419,2.419,2.419,2.419,2.419,2.419,2.419,2.419,2.4247,2.4321,2.4357,2.4567,0.0,0.0,0.0,0.0,1.142,1.1193,1.0391,0.9853,0.0,0.8583,0.843,0.8706,0.958,0.9692,0.9982,1.0987,1.1398,0.0,0.0,0.0,0.0,0.0,0.0,0.0,2.1606,2.2506,2.3108,2.3108,2.2594,2.2309,2.2309,2.1757,2.1443,2.1493,2.1405,2.1631,2.2184,2.1207,2.0679,2.0629,2.0062,2.0087,2.0616,2.0101,2.0846,0.0,2.1983,2.2469,2.3595,2.3595,2.3595,2.3595,2.3595,2.3595,2.3595,2.3595,2.3595,2.3595,2.3595,2.3595,2.3595,2.3595,2.3595,2.3595,2.3595,2.3595,2.3595,2.3595,2.4369,2.5202,2.5202,2.5962,2.6522,2.5845,2.5642,2.522,2.3782,2.3427,2.3173,2.2431,2.2296,2.2296,2.2296,2.2296,2.2296,2.2296,2.2296,2.2415,2.2712,2.3009,2.3335,2.3671,2.3996,2.419,2.417,2.418,2.419,2.419,2.419,2.419,2.419,2.419,2.419,2.419,2.419,2.419,2.419,2.419,2.4294,2.4469,2.4284,2.4474,0.8933,0.0,0.9991,0.9687,0.96,0.9551,0.0,0.8975,0.8711,0.0,0.0,0.0,0.9929,1.0101,1.0676,1.234,1.2036,1.2428,0.0,0.0,0.0,0.0,2.1619,2.2255,2.2681,2.2957,2.3108,2.3108,2.2594,2.2309,2.2309,2.1393,2.1081,2.1509,2.0639,2.0476,2.1069,2.083,2.0465,1.9999,1.9874,1.9874,2.0025,2.0385,2.1071,2.1941,2.2287,2.2905,2.3595,2.3595,2.3595,2.3595,2.3595,2.3595,2.3595,2.3595,2.3595,2.3595,2.3595,2.3595,2.3595,2.3595,2.3595,2.3595,2.3595,2.3595,2.3595,2.3595,2.4369,2.5202,2.5202,2.5962,2.6657,2.6471,2.6015,2.5355,2.444,2.3814,2.3173,2.2431,2.2296,2.2296,2.2296,2.2296,2.2296,2.2296,2.2296,2.2494,2.3009,2.3153,2.3335,2.3671,2.3996,2.4094,2.3837,2.4046,2.419,2.419,2.419,2.419,2.419,2.419,2.419,2.419,2.419,2.419,2.419,2.419,2.4218,2.4266,2.4218,2.4357,0.8086,0.8984,0.9873,0.9648,0.9736,0.988,0.9908,0.0,0.0,0.0,0.0,0.0,0.0,0.0,0.0,0.0,1.2797,0.0,0.0,0.0,0.0,0.0,2.2196,2.2782,0.0,2.2882,2.2732,2.2732,2.202,2.1556,2.1556,2.0767,2.0413,2.0702,2.0125,2.0075,2.0679,2.0427,2.0112,1.9798,2.0105,2.0258,2.0283,2.0917,2.1558,2.217,2.2543,2.3031,2.3595,2.3595,2.3595,2.3595,2.3595,2.3595,2.3595,2.3595,2.3595,2.3595,2.3595,2.3595,2.3595,2.3595,2.3595,2.3638,2.39,2.3985,2.3921,2.3681,2.4552,2.5505,2.5259,2.5962,2.6691,2.6691,2.6387,2.5896,2.5152,2.4695,2.4086,2.3021,2.2801,2.2699,2.2347,2.2296,2.2296,2.2296,2.2296,2.2453,2.291,2.3105,2.3335,2.3671,2.3996,2.4132,2.3937,2.4094,2.419,2.419,2.419,2.419,2.419,2.419,2.419,2.419,2.419,2.419,2.419,2.419,2.419,2.419,2.419,2.4312,0.8,0.926,1.0446,1.0096,1.0361,1.0716,0.0,0.0,0.0,0.0,0.0,0.0,0.0,0.0,0.0,0.0,0.0,0.0,0.0,0.0,0.0,0.0,2.2309,0.0,2.297,2.2481,2.2184,2.2184,2.127,2.0691,2.0691,2.0138,1.9798,1.9798,1.9798,2.0037,2.0553,2.0075,1.9798,1.9798,2.0472,2.0795,2.082,2.1534,2.217,2.2694,2.2785,2.312,2.3595,2.3595,2.3595,2.3595,2.3595,2.3595,2.3595,2.3595,2.3595,2.3595,2.3595,2.3595,2.3595,2.3595,2.3595,2.3702,2.4225,2.4471,2.443,2.397,2.4891,2.5888,2.543,2.6016,2.6691,2.6691,2.6691,2.6488,2.5761,2.5592,2.5169,2.368,2.3393,2.3173,2.2431,2.2296,2.2296,2.2296,2.2296,2.2429,2.2738,2.3021,2.3357,2.3742,2.4026,2.419,2.419,2.419,2.419,2.419,2.419,2.419,2.419,2.419,2.419,2.419,2.419,2.419,2.419,2.419,2.419,2.419,2.419,2.4312,0.9382,1.0552,1.1111,0.9171,0.9258,0.9817,0.9891,0.0,0.0,0.0,0.0,0.0,0.0,0.0,0.0,0.0,0.0,1.7675,0.0,0.0,2.0326,2.1395,0.0,2.192,2.2397,2.1945,2.1606,2.1606,2.1056,2.0691,2.0691,2.0138,1.9798,1.9798,1.9798,1.9849,1.9936,1.9849,1.9798,1.9798,2.0472,2.0795,2.0845,2.2011,2.2603,2.2717,2.3246,2.3508,2.3595,2.3595,2.3595,2.3595,2.3595,2.3595,2.3595,2.3595,2.3595,2.3595,2.3595,2.3595,2.3595,2.3595,2.3595,2.3702,2.4225,2.4732,2.5067,2.4989,2.5449,2.5995,2.5888,2.6297,2.6691,2.6691,2.6691,2.6488,2.5761,2.5592,2.5169,2.368,2.3393,2.3173,2.2431,2.2296,2.2296,2.2296,2.2296,2.2494,2.3045,2.3165,2.3444,2.4064,2.417,2.419,2.419,2.419,2.419,2.419,2.419,2.419,2.419,2.419,2.419,2.419,2.419,2.419,2.419,2.419,2.419,2.419,2.419,2.4312,0.8989,1.0157,1.108,1.01,1.0961,1.2104,1.2392,0.0,0.0,0.0,0.0,0.0,0.0,0.0,0.0,0.0,0.0,1.8634,1.8597,1.9581,2.049,0.0,0.0,2.1594,2.1845,2.1395,2.1069,2.1069,2.0553,2.02,2.02,1.9949,1.9798,1.9798,1.9798,1.9798,1.9798,1.9798,1.9978,2.0359,2.0991,2.1476,2.187,2.277,2.3201,2.3187,2.3486,2.3595,2.3595,2.3595,2.3595,2.3595,2.3595,2.3595,2.3595,2.3595,2.3595,2.3595,2.3595,2.3595,2.3595,2.3595,2.3794,2.4137,2.4672,2.5221,2.5689,2.5944,2.6192,2.6314,2.6067,2.6349,2.6691,2.6691,2.6691,2.6607,2.6268,2.6184,2.5879,2.4797,2.4272,2.3763,2.3021,2.2564,2.2349,2.2487,2.2385,2.2588,2.3375,2.3311,2.3466,2.4141,2.419,2.419,2.419,2.419,2.419,2.419,2.419,2.419,2.419,2.419,2.419,2.419,2.419,2.419,2.419,2.419,2.419,2.419,2.419,2.4312,0.9109,1.0161,1.1337,1.1716,0.0,1.3858,1.4479,0.0,0.0,0.0,0.0,0.0,0.0,0.0,0.0,1.7461,1.8493,1.9183,1.9183,1.9936,2.0541,2.0679,2.0943,2.1142,2.1307,2.0817,2.049,2.049,2.0049,1.9798,1.9798,1.9798,1.9798,1.9798,1.9798,1.9875,2.0029,2.0029,2.0295,2.0795,2.14,2.2053,2.2717,2.3334,2.3595,2.3595,2.3595,2.3595,2.3595,2.3595,2.3595,2.3595,2.3595,2.3595,2.3595,2.3595,2.3595,2.3595,2.3595,2.3595,2.3616,2.3745,2.4074,2.4532,2.5182,2.567,2.6103,2.6573,2.6691,2.6624,2.6262,2.6436,2.6691,2.6691,2.6691,2.6691,2.6691,2.6691,2.6471,2.5728,2.5,2.4271,2.3528,2.2838,2.2463,2.2673,2.259,2.2803,2.3606,2.3488,2.3544,2.4141,2.419,2.419,2.419,2.419,2.419,2.419,2.419,2.419,2.419,2.419,2.419,2.419,2.419,2.419,2.419,2.419,2.419,2.419,2.419,2.4321,1.122,1.1903,1.2543,1.3618,1.3193,0.0,1.3911,1.4122,0.0,0.0,0.0,0.0,0.0,0.0,1.8053,1.8129,1.9045,1.9748,1.9748,0.0,2.0062,2.0629,2.0251,2.0137,2.0691,2.0239,1.9861,1.9861,1.9823,1.9798,1.9798,1.9798,1.9798,1.9798,1.9798,2.0105,2.0721,2.0721,2.0746,2.0795,2.14,2.2053,2.2717,2.3334,2.3595,2.3595,2.3595,2.3595,2.3595,2.3595,2.3595,2.3595,2.3595,2.3595,2.3595,2.3595,2.3595,2.3595,2.3595,2.3595,2.3681,2.4163,2.4369,2.4576,2.5633,2.5961,2.6103,2.6573,2.6691,2.6691,2.6657,2.6674,2.6691,2.6691,2.6691,2.6691,2.6691,2.6691,2.6471,2.5728,2.5,2.4271,2.3528,2.298,2.2669,2.2695,2.2947,2.3277,2.366,2.3682,2.3806,2.4161,2.419,2.419,2.419,2.419,2.419,2.419,2.419,2.419,2.419,2.419,2.419,2.419,2.419,2.419,2.419,2.419,2.419,2.419,2.419,2.441,1.0223,1.1327,1.2576,1.3358,0.0,0.0,0.0,0.0,0.0,0.0,0.0,0.0,0.0,0.0,1.8204,1.8204,1.9108,1.9798,1.9798,1.9798,1.9874,2.01,1.9936,1.9886,2.0138,1.9924,1.9798,1.9798,1.9798,1.9798,1.9798,1.9798,1.9798,1.9798,1.9798,2.0131,2.0795,2.0795,2.1199,2.1988,2.2207,2.2643,2.3268,2.3486,2.3595,2.3595,2.3595,2.3595,2.3595,2.3595,2.3595,2.3595,2.3595,2.3595,2.3595,2.3595,2.3595,2.3595,2.3595,2.3595,2.3702,2.4241,2.4632,2.5047,2.5779,2.6209,2.647,2.6657,2.6691,2.6691,2.6691,2.6691,2.6691,2.6691,2.6691,2.6691,2.6691,2.6691,2.6623,2.6336,2.5693,2.4949,2.422,2.3727,2.335,2.3054,2.3117,2.3392,2.3937,2.428,2.4378,2.4216,2.419,2.419,2.419,2.419,2.419,2.419,2.419,2.419,2.419,2.419,2.419,2.419,2.419,2.419,2.419,2.419,2.419,2.4199,2.4339,2.4545,1.011,1.1221,1.2526,0.0,0.0,0.0,0.0,0.0,0.0,0.0,0.0,0.0,0.0,0.0,0.0,0.0,1.9221,1.9798,1.9798,1.9798,1.9798,1.9798,1.9798,1.9798,1.9798,1.9798,1.9798,1.9798,1.9798,1.9798,1.9798,1.9798,1.9798,1.9798,1.9798,2.022,2.1064,2.1088,2.1724,2.2987,2.2987,2.3187,2.3595,2.3595,2.3595,2.3595,2.3595,2.3595,2.3595,2.3595,2.3595,2.3595,2.3595,2.3595,2.3595,2.3595,2.3595,2.3595,2.3595,2.3595,2.3724,2.443,2.4894,2.5335,2.6015,2.6436,2.6691,2.6691,2.6691,2.6691,2.6691,2.6691,2.6691,2.6691,2.6691,2.6691,2.6691,2.6691,2.6691,2.6691,2.5913,2.5084,2.4592,2.4035,2.357,2.3242,2.338,2.3772,2.4481,2.4863,2.5029,2.4959,2.4722,2.4667,2.4942,2.4961,2.4961,2.4961,2.4961,2.4722,2.4226,2.419,2.419,2.419,2.419,2.419,2.419,2.419,2.419,2.4199,2.441,2.4599,1.1425,1.1989,1.2538,0.0,0.0,0.0,0.0,0.0,0.0,0.0,0.0,1.8216,1.8216,0.0,0.0,1.8907,1.9434,1.9798,1.9798,1.9798,1.9798,1.9798,1.9798,1.9798,1.9798,1.9798,1.9798,1.9798,1.9798,1.9798,1.9798,1.9798,1.9798,1.9798,1.9798,2.0421,2.1697,2.1697,2.234,2.3595,2.3595,2.3595,2.3595,2.3595,2.3595,2.3595,2.3595,2.3595,2.3595,2.3595,2.3595,2.3595,2.3595,2.3595,2.3595,2.3595,2.3595,2.3595,2.3595,2.3595,2.3773,2.4871,2.5221,2.5392,2.6401,2.6691,2.6691,2.6691,2.6691,2.6691,2.6691,2.6691,2.6691,2.6691,2.6691,2.6691,2.6691,2.6691,2.6691,2.6691,2.5506,2.4508,2.4506,2.3788,2.3218,2.32,2.3774,2.4493,2.5301,2.5411,2.5723,2.6539,2.5888,2.5723,2.6539,2.6602,2.6602,2.6602,2.6602,2.5878,2.4281,2.4208,2.4208,2.419,2.419,2.419,2.419,2.419,2.419,2.4218,2.441,2.4626,1.0921,1.1949,0.0,0.0,0.0,0.0,0.0,0.0,0.0,0.0,0.0,1.8757,1.8757,0.0,0.0,1.897,1.9434,1.9798,1.9798,1.9798,1.9798,1.9798,1.9798,1.9798,1.9798,1.9798,1.9798,1.9798,1.9798,1.9798,1.9798,1.9798,1.9798,1.9798,1.9798,2.0421,2.1697,2.1697,2.234,2.3595,2.3595,2.3595,2.3595,2.3595,2.3595,2.3595,2.3595,2.3595,2.3595,2.3595,2.3595,2.3595,2.3595,2.3595,2.3595,2.3595,2.3595,2.3659,2.4032,2.4158,2.4348,2.5411,2.5744,2.5888,2.6505,2.6691,2.6691,2.6691,2.6691,2.6691,2.6691,2.6691,2.6691,2.6691,2.6691,2.6691,2.6691,2.6691,2.6691,2.6691,2.593,2.518,2.4905,2.4361,2.3892,2.3582,2.3917,2.4704,2.6062,2.6245,2.6557,2.7365,2.6722,2.6337,2.6583,2.6602,2.6602,2.6602,2.6602,2.6135,2.5081,2.5044,2.4787,2.4208,2.419,2.419,2.419,2.419,2.4493,2.5035,2.4823,2.5341,1.157,1.2601,0.0,0.0,0.0,0.0,0.0,0.0,0.0,0.0,0.0,1.907,1.9271,1.9146,0.0,1.9271,1.9597,1.9798,1.9798,1.9798,1.9798,1.9798,1.9798,1.9798,1.9798,1.9798,1.9798,1.9798,1.9798,1.9798,1.9798,1.9798,1.9798,1.9798,1.9798,2.0421,2.1697,2.1697,2.234,2.3595,2.3595,2.3595,2.3595,2.3595,2.3595,2.3595,2.3595,2.3595,2.3595,2.3595,2.3595,2.3595,2.3595,2.3595,2.3595,2.3595,2.373,2.3948,2.4287,2.4552,2.4871,2.5726,2.6013,2.6103,2.6573,2.6691,2.6691,2.6691,2.6691,2.6691,2.6691,2.6691,2.6691,2.6691,2.6691,2.6691,2.6691,2.6691,2.6691,2.6691,2.5862,2.5227,2.5431,2.4839,2.442,2.4615,2.5218,2.597,2.6943,2.709,2.7383,2.8191,2.7567,2.7218,2.7537,2.7556,2.7556,2.7556,2.7556,2.72,2.6384,2.6054,2.5503,2.4695,2.4677,2.453,2.419,2.419,2.4622,2.5403,2.5237,2.5893,1.2839,0.0,0.0,0.0,0.0,0.0,0.0,0.0,0.0,1.971,0.0,1.9221,1.971,1.9384,1.9221,1.9723,1.9798,1.9798,1.9798,1.9798,1.9798,1.9798,1.9798,1.9798,1.9798,1.9798,1.9798,1.9798,1.9798,1.9798,1.9798,1.9798,1.9798,1.9798,1.9798,2.0421,2.1697,2.1697,2.234,2.3595,2.3595,2.3595,2.3595,2.3595,2.3595,2.3595,2.3595,2.3595,2.3595,2.3595,2.3595,2.3595,2.3595,2.3595,2.3595,2.3659,2.397,2.441,2.4511,2.4855,2.5354,2.5888,2.605,2.6139,2.6573,2.6691,2.6691,2.6691,2.6691,2.6691,2.6691,2.6691,2.6691,2.6691,2.6691,2.6691,2.6691,2.6691,2.6691,2.6691,2.5557,2.495,2.6073,2.5292,2.4872,2.5971,2.7082,2.7798,2.7798,2.786,2.8191,2.8932,2.8356,2.8209,2.8932,2.9005,2.9005,2.9005,2.9005,2.8675,2.7934,2.7145,2.6337,2.5521,2.5503,2.5154,2.441,2.441,2.4842,2.5623,2.5773,2.6415,0.0,1.3325,0.0,0.0,0.0,0.0,0.0,0.0,0.0,1.9773,1.971,1.9673,1.9786,1.971,1.9673,1.9786,1.9798,1.9798,1.9798,1.9798,1.9798,1.9798,1.9798,1.9798,1.9798,1.9798,1.9798,1.9798,1.9798,1.9798,1.9798,1.9798,1.9798,1.9798,1.9798,2.0421,2.1697,2.1697,2.234,2.3595,2.3595,2.3595,2.3595,2.3595,2.3595,2.3595,2.3595,2.3595,2.3595,2.3595,2.3595,2.3595,2.3595,2.3595,2.3659,2.4074,2.4287,2.4532,2.5354,2.5726,2.5906,2.6384,2.6556,2.6573,2.6674,2.6691,2.6691,2.6691,2.6691,2.6691,2.6691,2.6691,2.6691,2.6691,2.6691,2.6691,2.6691,2.6691,2.6691,2.6691,2.5981,2.5642,2.6451,2.5848,2.5545,2.6377,2.724,2.7798,2.7798,2.8356,2.8803,2.8987,2.8858,2.8803,2.8987,2.9005,2.9005,2.9005,2.9005,2.8932,2.8748,2.797,2.7163,2.6355,2.6337,2.6264,2.608,2.608,2.6502,2.7276,2.6989,2.7702,0.0,0.0,0.0,0.0,0.0,0.0,0.0,0.0,0.0,1.9798,1.9798,1.9798,1.9798,1.9798,1.9798,1.9798,1.9798,1.9798,1.9798,1.9798,1.9798,1.9798,1.9798,1.9798,1.9798,1.9798,1.9798,1.9798,1.9798,1.9798,1.9798,1.9798,1.9798,1.9798,1.9798,2.0421,2.1697,2.1697,2.234,2.3595,2.3595,2.3595,2.3595,2.3595,2.3595,2.3595,2.3595,2.3595,2.3595,2.3595,2.3595,2.3595,2.3595,2.3595,2.3659,2.4204,2.4572,2.4894,2.5707,2.6156,2.6367,2.6624,2.6691,2.6691,2.6691,2.6691,2.6691,2.6691,2.6691,2.6623,2.6268,2.6167,2.6167,2.6167,2.6437,2.6691,2.6691,2.6691,2.6691,2.6691,2.6099,2.5964,2.707,2.7222,2.7308,2.7695,2.8106,2.8374,2.8374,2.873,2.9005,2.9005,2.9005,2.9005,2.9005,2.9005,2.9005,2.9005,2.9005,2.9005,2.9005,2.8601,2.8007,2.7181,2.7163,2.6979,2.6602,2.6602,2.7016,2.7798,2.768,2.8366,0.0,0.0,0.0,0.0,0.0,0.0,0.0,0.0,0.0,1.9798,1.9798,1.9798,1.9798,1.9798,1.9798,1.9798,1.9798,1.9798,1.9798,1.9798,1.9798,1.9798,1.9798,1.9798,1.9798,1.9798,1.9798,1.9798,1.9798,1.9798,1.9798,1.9798,1.9798,1.9798,1.9901,2.0521,2.1697,2.1805,2.2446,2.3595,2.3595,2.3595,2.3595,2.3595,2.3595,2.3595,2.3595,2.3595,2.3595,2.3595,2.3595,2.3595,2.3595,2.3659,2.3794,2.4348,2.4875,2.5411,2.5943,2.6367,2.6691,2.6691,2.6691,2.6691,2.6691,2.6691,2.6691,2.6691,2.6607,2.637,2.5761,2.5507,2.5439,2.5575,2.6065,2.6539,2.6674,2.6691,2.6691,2.6691,2.6266,2.6332,2.7677,2.8456,2.8917,2.8994,2.9005,2.9005,2.9005,2.9005,2.9005,2.9005,2.9005,2.9005,2.9005,2.9005,2.9005,2.9005,2.9005,2.9005,2.9005,2.9005,2.8693,2.8026,2.8007,2.7677,2.7005,2.7005,2.7386,2.8077,2.8293,2.8876,0.0,0.0,0.0,0.0,0.0,0.0,0.0,0.0,0.0,0.0,1.9798,1.9798,1.9798,1.9798,1.9798,1.9798,1.9798,1.9798,1.9798,1.9798,1.9798,1.9798,1.9798,1.9798,1.9798,1.9798,1.9798,1.9798,1.9798,1.9798,1.9798,1.9798,1.9798,1.9798,2.0346,2.0991,2.1697,2.2276,2.2905,2.3595,2.3595,2.3595,2.3595,2.3595,2.3595,2.3595,2.3595,2.3595,2.3595,2.3595,2.3595,2.3595,2.3595,2.3879,2.4348,2.491,2.543,2.5961,2.6436,2.6657,2.6691,2.6691,2.6691,2.6691,2.6691,2.6691,2.6691,2.6691,2.6234,2.5711,2.5642,2.5118,2.4812,2.5456,2.5693,2.593,2.6556,2.6691,2.6691,2.6691,2.6902,2.7259,2.7808,2.8224,2.859,2.894,2.9005,2.9005,2.9005,2.9005,2.9005,2.9005,2.9005,2.9005,2.9005,2.9005,2.9005,2.9005,2.9005,2.9005,2.9005,2.9005,2.895,2.884,2.884,2.8785,2.8675,2.8675,2.8846,2.9194,2.9401,2.9649,1.147,0.0,0.0,0.0,0.0,0.0,0.0,0.0,1.9447,1.9748,1.9798,1.9798,1.9798,1.9798,1.9798,1.9798,1.9798,1.9798,1.9798,1.9798,1.9798,1.9798,1.9798,1.9798,1.9798,1.9798,1.9798,1.9798,1.9798,1.9798,1.9798,1.9798,1.9798,1.9798,2.0446,2.1088,2.1697,2.1982,2.2462,2.3107,2.343,2.3595,2.3595,2.3595,2.3595,2.3595,2.3595,2.3595,2.3595,2.3595,2.3595,2.3595,2.3595,2.3943,2.4471,2.4992,2.554,2.6067,2.6539,2.6691,2.6691,2.6691,2.6691,2.6691,2.6691,2.6691,2.6691,2.6691,2.6471,2.6116,2.571,2.5372,2.5203,2.5524,2.5592,2.5812,2.6539,2.6691,2.6691,2.6691,2.7019,2.7424,2.784,2.8183,2.854,2.894,2.9005,2.9005,2.9005,2.9005,2.9005,2.9005,2.9005,2.9005,2.9005,2.9005,2.9005,2.9005,2.9005,2.9005,2.9005,2.9005,2.9005,2.9005,2.9005,2.9005,2.9005,2.9005,2.9145,2.9394,2.9607,2.9804,0.0,0.0,0.0,0.0,0.0,0.0,0.0,0.0,1.8945,0.0,1.961,1.9648,1.9773,1.9798,1.9798,1.9798,1.9798,1.9798,1.9798,1.9798,1.9798,1.9798,1.9798,1.9798,1.9798,1.9798,1.9798,1.9798,1.9798,1.9875,2.0055,2.0055,2.0118,2.0283,2.0917,2.1431,2.1699,2.1707,2.2035,2.2703,2.3167,2.3445,2.3595,2.3595,2.3595,2.3595,2.3595,2.3595,2.3595,2.3595,2.3595,2.3616,2.3752,2.4137,2.4672,2.5221,2.5726,2.6227,2.659,2.6691,2.6691,2.6691,2.6691,2.6691,2.6691,2.6691,2.6691,2.6691,2.6573,2.6285,2.5728,2.5456,2.5372,2.5558,2.5592,2.5812,2.6539,2.6691,2.6691,2.6691,2.7019,2.7424,2.784,2.8183,2.854,2.894,2.9005,2.9005,2.9005,2.9005,2.9005,2.9005,2.9005,2.9005,2.9005,2.9005,2.9005,2.9005,2.9005,2.9005,2.9005,2.9005,2.9005,2.9005,2.9005,2.9005,2.9005,2.9005,2.916,2.9474,2.9625,2.9837,0.0,0.0,0.0,0.0,0.0,0.0,0.0,0.0,0.0,1.8933,1.9045,1.9196,1.971,1.9798,1.9798,1.9798,1.9798,1.9798,1.9798,1.9798,1.9798,1.9798,1.9798,1.9798,1.9798,1.9798,1.9798,1.9798,1.9798,2.008,2.0696,2.0759,2.1004,2.1578,2.2253,2.2316,2.1714,2.1692,2.2033,2.2703,2.2733,2.3062,2.3595,2.3595,2.3595,2.3595,2.3595,2.3595,2.3595,2.3595,2.3595,2.3659,2.4158,2.4692,2.5221,2.5744,2.6262,2.6674,2.6691,2.6691,2.6691,2.6691,2.6691,2.6691,2.6691,2.6691,2.6691,2.6691,2.6201,2.5643,2.5609,2.5067,2.4728,2.5439,2.5592,2.5812,2.6539,2.6691,2.6691,2.6691,2.7019,2.7424,2.784,2.8183,2.854,2.894,2.9005,2.9005,2.9005,2.9005,2.9005,2.9005,2.9005,2.9005,2.9005,2.9005,2.9005,2.9005,2.9005,2.9005,2.9005,2.9005,2.9005,2.9005,2.9005,2.9005,2.9005,2.9005,2.9249,2.9687,2.9696,2.9935,0.0,0.0,0.0,0.0,0.0,0.0,0.0,1.7275,1.784,1.8392,1.8481,1.8555,1.8744,1.9346,1.9798,1.9798,1.9798,1.9798,1.9798,1.9798,1.9798,1.9798,1.9798,1.9798,1.9798,1.9798,1.9798,1.9798,2.0207,2.056,2.0795,2.0801,2.0916,2.1112,2.1308,2.1309,2.1059,2.1491,2.1605,2.1425,2.1844,2.2403,2.3032,2.3032,2.3242,2.3595,2.3595,2.3595,2.3595,2.3595,2.3794,2.4137,2.4328,2.495,2.5726,2.5924,2.6297,2.6691,2.6691,2.6691,2.6691,2.6691,2.6691,2.6691,2.6691,2.6691,2.6691,2.6691,2.6505,2.6302,2.6302,2.6099,2.598,2.6234,2.6302,2.637,2.664,2.6691,2.6691,2.6691,2.6825,2.7131,2.7797,2.7992,2.8295,2.8905,2.9005,2.9005,2.9005,2.9005,2.9005,2.9005,2.9005,2.9005,2.9005,2.9005,2.9005,2.9005,2.9005,2.9005,2.9005,2.9005,2.9005,2.9005,2.9005,2.9005,2.9005,2.9005,2.923,2.9705,2.9705,2.9962,0.0,0.0,0.0,0.0,0.0,0.0,0.0,0.0,1.7046,1.7777,1.7928,1.799,1.8179,1.8781,1.9321,1.951,1.9685,1.9798,1.9798,1.9798,1.9798,1.9798,1.9798,1.9798,1.9798,1.9798,1.9798,1.9798,2.0203,2.0554,2.0796,2.0777,2.087,2.1081,2.0829,2.0705,2.0703,2.0917,2.0917,2.0703,2.1156,2.171,2.2358,2.2358,2.2577,2.2966,2.3191,2.34,2.3616,2.3794,2.4074,2.443,2.4796,2.5373,2.6031,2.6191,2.6436,2.6691,2.6691,2.6691,2.6691,2.6691,2.6691,2.6691,2.6691,2.6691,2.6691,2.6691,2.6691,2.6691,2.6691,2.6691,2.6691,2.6691,2.6691,2.6691,2.6691,2.6691,2.6691,2.6691,2.6923,2.727,2.7811,2.8106,2.8443,2.8929,2.9005,2.9005,2.9005,2.9005,2.9005,2.9005,2.9005,2.9005,2.9005,2.9005,2.9005,2.9005,2.9005,2.9005,2.9005,2.9005,2.9005,2.9005,2.9005,2.9005,2.9005,2.9005,2.923,2.9705,2.9705,2.9962,0.0,0.0,0.0,0.0,0.0,0.0,0.0,0.0,1.5944,1.7121,1.7348,1.7498,1.8053,1.8166,1.8355,1.887,1.9384,1.9761,1.9773,1.9773,1.9786,1.9798,1.9798,1.9798,1.9798,1.9798,1.9798,1.9799,1.9829,2.0114,2.0758,2.0755,2.0991,2.1615,2.1021,2.0658,2.0658,2.0019,2.0019,2.0658,2.0658,2.1017,2.1665,2.1665,2.168,2.1739,2.2418,2.3032,2.3608,2.4163,2.441,2.4532,2.5596,2.6013,2.6085,2.6522,2.6691,2.6691,2.6691,2.6691,2.6691,2.6691,2.6691,2.6691,2.6691,2.6691,2.6691,2.6691,2.6691,2.6691,2.6691,2.6691,2.6691,2.6691,2.6691,2.6691,2.6691,2.6708,2.6725,2.6725,2.7348,2.7897,2.7911,2.8507,2.8994,2.9005,2.9005,2.9005,2.9005,2.9005,2.9005,2.9005,2.9005,2.9005,2.9005,2.9005,2.9005,2.9005,2.9005,2.9005,2.9005,2.9005,2.9005,2.9005,2.9005,2.9005,2.9017,2.9005,2.9249,2.9696,2.9705,2.9962,0.9302,0.0,0.0,0.0,0.0,0.0,0.0,0.0,1.4331,1.5856,1.5864,1.5877,1.681,1.7325,1.7664,1.7815,1.8292,1.8781,1.9158,1.9221,1.9359,1.9761,1.9798,1.9798,1.9798,1.9798,1.9788,0.0,2.0254,2.0579,2.0713,2.0721,2.055,2.0258,2.0064,1.9974,1.9974,1.9798,1.9798,1.9974,1.9974,2.0333,2.0991,2.0991,2.1246,2.1739,2.2418,2.2793,2.3014,2.3999,2.4632,2.5047,2.5726,2.6209,2.6505,2.6657,2.6691,2.6691,2.6691,2.6691,2.6691,2.6691,2.6691,2.6691,2.6691,2.6691,2.6691,2.6691,2.6691,2.6691,2.6691,2.6691,2.6691,2.6691,2.6691,2.6691,2.6691,2.6939,2.7131,2.7131,2.7301,2.7634,2.8166,2.842,2.867,2.897,2.9005,2.9005,2.9005,2.9005,2.9005,2.9005,2.9005,2.9005,2.9005,2.9005,2.9005,2.9005,2.9005,2.9005,2.9005,2.9005,2.9005,2.9005,2.9005,2.9089,2.9289,2.9089,2.916,2.9484,2.978,3.0095,0.0,0.0,0.0,0.0,0.0,0.0,1.3559,1.3541,0.0,0.0,1.5462,1.548,1.6337,1.6798,1.7024,1.7024,1.7287,1.7777,1.8556,1.8657,1.877,1.9108,1.9133,1.9133,1.9133,1.9133,1.9241,1.9444,1.9809,2.0083,2.0269,2.0279,2.0094,1.9708,1.9708,1.9708,1.9708,1.9708,1.9708,1.9708,1.9708,1.9884,2.0288,2.0288,2.0498,2.0887,2.156,2.2009,2.2389,2.3751,2.4661,2.5278,2.6015,2.6453,2.6691,2.6691,2.6691,2.6691,2.6691,2.6691,2.6691,2.6691,2.6691,2.6691,2.6691,2.6691,2.6691,2.6691,2.6691,2.6691,2.6691,2.6691,2.6691,2.6691,2.6691,2.6741,2.6923,2.7131,2.7303,2.7303,2.7542,2.7904,2.8324,2.854,2.8737,2.8952,2.9005,2.9005,2.9005,2.9005,2.9005,2.9005,2.9005,2.9005,2.9005,2.9005,2.9005,2.9005,2.9005,2.9005,2.9005,2.9005,2.9005,2.9005,2.9005,2.9078,2.9225,2.9078,2.9181,2.9542,2.9966,3.0254,0.0,0.0,0.0,0.0,0.0,0.0,1.4104,1.3797,1.3554,0.0,1.5417,1.5605,1.6199,1.6312,1.6312,1.6312,1.6362,1.6801,1.7953,1.8116,1.8141,1.8191,1.8204,1.8204,1.8204,1.8251,1.8482,1.8942,1.8991,1.9194,1.9669,1.9708,1.9708,1.9708,1.9708,1.9708,1.9708,1.9708,1.9708,1.9708,1.9708,1.9708,1.9708,1.9708,1.9708,1.9738,2.0423,2.1055,2.1797,2.3509,2.4615,2.5297,2.6315,2.6691,2.6691,2.6691,2.6691,2.6691,2.6691,2.6691,2.6691,2.6691,2.6691,2.6691,2.6691,2.6691,2.6691,2.6691,2.6691,2.6691,2.6691,2.6691,2.6708,2.6758,2.6775,2.6873,2.7288,2.7394,2.7424,2.7424,2.796,2.8402,2.8458,2.8761,2.9005,2.9005,2.9005,2.9005,2.9005,2.9005,2.9005,2.9005,2.9005,2.9005,2.9005,2.9005,2.9005,2.9005,2.9005,2.9005,2.9005,2.9005,2.9005,2.9005,2.9055,2.9055,2.9005,2.904,2.9262,2.9713,3.0148,3.0367,1.3052,0.0,0.0,0.0,0.0,0.0,1.2328,1.2416,1.2776,0.0,1.3686,1.4005,1.5035,1.5211,1.5211,1.5211,1.5567,1.6245,1.741,1.7574,1.7714,1.8154,1.8204,1.8204,1.8204,1.8601,1.8847,1.8907,1.9309,1.9594,1.969,1.9708,1.9708,1.9708,1.9708,1.9708,1.9708,1.9708,1.9708,1.9708,1.9708,1.9708,1.9708,1.9708,1.9708,1.9738,2.0423,2.0959,2.1522,2.3417,2.4615,2.5297,2.6315,2.6691,2.6691,2.6691,2.6691,2.6691,2.6691,2.6691,2.6691,2.6691,2.6691,2.6691,2.6691,2.6691,2.6691,2.6691,2.6691,2.6691,2.6691,2.6691,2.6791,2.7099,2.7194,2.7286,2.771,2.7988,2.8192,2.8192,2.8298,2.8496,2.8827,2.894,2.9005,2.9005,2.9005,2.9005,2.9005,2.9005,2.9005,2.9005,2.9005,2.9005,2.9005,2.9005,2.9005,2.9005,2.9005,2.9005,2.9005,2.9005,2.9005,2.9005,2.9367,2.9377,2.9005,2.9232,2.9455,2.9713,2.9954,3.0196,1.4199,0.0,0.0,1.379,0.0,0.0,0.0,1.2621,1.2701,1.3822,1.3604,1.3629,1.5047,1.4865,1.4676,1.5211,1.5517,1.5894,1.6459,1.6773,1.7061,1.7325,1.734,1.7475,1.7718,1.7991,1.8363,1.8857,1.9401,1.9708,1.9708,1.9708,1.9708,1.9708,1.9708,1.9708,1.9708,1.9708,1.9708,1.9708,1.9708,1.9708,1.9708,1.9708,1.9708,1.9723,2.0049,2.0625,2.1401,2.2643,2.3665,2.4608,2.6117,2.6691,2.6691,2.6691,2.6691,2.6691,2.6691,2.6691,2.6691,2.6691,2.6691,2.6691,2.6691,2.6691,2.6691,2.6691,2.6691,2.6691,2.6691,2.6841,2.7051,2.7257,2.7454,2.7692,2.8075,2.829,2.8458,2.8658,2.8694,2.8761,2.897,2.9005,2.9005,2.9005,2.9005,2.9005,2.9005,2.9005,2.9005,2.9005,2.9005,2.9005,2.9005,2.9005,2.9005,2.9005,2.9005,2.9005,2.9005,2.9005,2.9055,2.9211,2.9425,2.9475,2.9346,2.9588,2.9705,2.9713,3.0032,3.0267,0.0,0.0,0.0,0.0,0.0,1.3817,0.0,0.0,0.0,1.4318,1.383,0.0,0.0,0.0,0.0,0.0,0.0,0.0,0.0,1.5944,0.0,1.6337,1.6437,1.671,1.725,1.7202,1.7681,1.8954,1.9166,1.9367,1.9693,1.9708,1.9708,1.9708,1.9708,1.9708,1.9708,1.9708,1.9708,1.9708,1.9708,1.9708,1.9708,1.9708,1.9708,1.9693,1.9782,2.0358,2.1294,2.195,2.2769,2.3835,2.5748,2.6488,2.6505,2.664,2.6691,2.6691,2.6691,2.6691,2.6691,2.6691,2.6691,2.6691,2.6691,2.6691,2.6691,2.6691,2.6691,2.6691,2.6691,2.6987,2.7334,2.7411,2.7707,2.8088,2.8433,2.8527,2.8602,2.894,2.9005,2.9005,2.9005,2.9005,2.9005,2.9005,2.9005,2.9005,2.9005,2.9005,2.9005,2.9005,2.9005,2.9005,2.9005,2.9005,2.9005,2.9005,2.9005,2.9005,2.9005,2.9005,2.9134,2.9402,2.9434,2.9542,2.9705,2.9947,2.9981,2.9782,3.0202,3.0404,0.0,0.0,0.0,0.0,1.5517,0.0,0.0,0.0,1.3821,1.3466,0.0,0.0,0.0,0.0,0.0,0.0,0.0,0.0,1.4274,1.5148,1.5781,1.5781,1.6199,1.671,1.725,1.6862,1.7434,1.9459,1.8337,1.819,1.963,1.9708,1.9708,1.9708,1.9708,1.9708,1.9708,1.9708,1.9708,1.9708,1.9708,1.9708,1.9708,1.9708,1.9708,1.9711,2.0072,2.0547,2.1118,2.2182,2.2952,2.3604,2.5136,2.5711,2.5812,2.6454,2.6691,2.6691,2.6691,2.6691,2.6691,2.6691,2.6691,2.6691,2.6691,2.6691,2.6691,2.6691,2.6691,2.6691,2.6691,2.6987,2.7378,2.7754,2.8102,2.8446,2.8851,2.8929,2.894,2.8994,2.9005,2.9005,2.9005,2.9005,2.9005,2.9005,2.9005,2.9005,2.9005,2.9005,2.9005,2.9005,2.9005,2.9005,2.9005,2.9005,2.9005,2.9005,2.9005,2.9005,2.9005,2.9005,2.9134,2.9402,2.957,2.9678,2.9705,3.0142,3.0209,2.9977,3.026,3.0404,0.0,0.0,0.0,0.0,0.0,0.0,1.379,0.0,1.4022,0.0,0.0,0.0,0.0,0.0,0.0,0.0,1.3934,0.0,0.0,0.0,1.489,0.0,0.0,0.0,1.7186,1.7242,1.7883,1.9567,1.8344,1.8164,1.9615,1.9708,1.9708,1.9708,1.9708,1.9708,1.9708,1.9708,1.9708,1.9708,1.9708,1.9708,1.9708,1.9708,1.9836,2.0054,2.0229,2.0699,2.1401,2.1865,2.2348,2.2868,2.3917,2.4847,2.5642,2.5947,2.6336,2.6691,2.6691,2.6691,2.6691,2.6691,2.6691,2.6691,2.6691,2.6691,2.6691,2.6691,2.6691,2.6691,2.6691,2.7178,2.7678,2.7869,2.8334,2.8785,2.8952,2.9005,2.9005,2.9005,2.9005,2.9005,2.9005,2.9005,2.9005,2.9005,2.9005,2.9005,2.9005,2.9005,2.9005,2.9005,2.9005,2.9005,2.9005,2.9005,2.9005,2.9005,2.9005,2.9067,2.9243,2.9225,2.9395,2.9729,2.9829,2.9958,3.0107,3.0299,3.0349,3.0222,3.0355,3.0404,1.6835,0.0,0.0,0.0,0.0,0.0,0.0,0.0,0.0,0.0,0.0,0.0,0.0,0.0,0.0,0.0,0.0,1.3896,0.0,1.3584,0.0,0.0,0.0,0.0,0.0,1.6704,1.7277,1.8859,1.7598,1.7543,1.9331,1.9438,1.9513,1.9693,1.9708,1.9708,1.9708,1.9708,1.9708,1.9708,1.9708,1.9708,1.9708,1.9708,1.9927,2.0314,2.0433,2.0911,2.1613,2.1733,2.1988,2.2364,2.3105,2.4171,2.5321,2.5541,2.6065,2.6691,2.6691,2.6691,2.6691,2.6691,2.6691,2.6691,2.6691,2.6691,2.6691,2.6691,2.6691,2.6691,2.6691,2.7303,2.7897,2.7897,2.8469,2.9005,2.9005,2.9005,2.9005,2.9005,2.9005,2.9005,2.9005,2.9005,2.9005,2.9005,2.9005,2.9005,2.9005,2.9005,2.9005,2.9005,2.9005,2.9005,2.9005,2.9067,2.9127,2.9185,2.9195,2.928,2.9465,2.9474,2.9662,2.9999,3.0006,3.0136,3.0404,3.0404,3.0404,3.0404,3.0404,3.0404,0.0,1.7752,0.0,1.5462,0.0,0.0,0.0,0.0,1.5009,0.0,0.0,0.0,0.0,0.0,0.0,0.0,0.0,0.0,0.0,0.0,0.0,0.0,0.0,0.0,0.0,1.4591,1.4759,1.7019,1.5457,1.5668,1.858,1.8732,1.9031,1.9678,1.9708,1.9708,1.9708,1.9708,1.9708,1.9708,1.9708,1.9708,1.9708,1.9708,1.9927,2.0331,2.078,2.1213,2.1643,2.2092,2.2282,2.2364,2.3105,2.3881,2.4626,2.5338,2.6065,2.6691,2.6691,2.6691,2.6691,2.6691,2.6691,2.6691,2.6691,2.6691,2.6691,2.6691,2.6691,2.6691,2.6691,2.7303,2.7897,2.7897,2.8469,2.9005,2.9005,2.9005,2.9005,2.9005,2.9005,2.9005,2.9005,2.9005,2.9005,2.9005,2.9005,2.9005,2.9005,2.9005,2.9005,2.9005,2.9005,2.9005,2.9005,2.9235,2.9465,2.967,2.9678,2.9687,2.9687,2.9696,2.978,2.9999,3.0006,3.0136,3.0404,3.0404,3.0404,3.0404,3.0404,3.0404,1.8734,1.8946,1.8853,1.6528,1.6396,1.6443,1.4979,0.0,0.0,0.0,0.0,0.0,0.0,0.0,0.0,0.0,0.0,0.0,0.0,0.0,0.0,0.0,0.0,0.0,0.0,0.0,1.5234,1.6716,1.6246,1.6708,1.8595,1.9121,1.9468,1.9693,1.9708,1.9708,1.9708,1.9708,1.9708,1.9708,1.9708,1.9708,1.9708,1.9708,2.0087,2.0764,2.0926,2.14,2.2077,2.2237,2.2296,2.2364,2.3105,2.3864,2.4592,2.5338,2.6065,2.6691,2.6691,2.6691,2.6691,2.6691,2.6691,2.6691,2.6691,2.6691,2.6691,2.6691,2.6691,2.6691,2.6691,2.7303,2.7897,2.7897,2.8469,2.9005,2.9005,2.9005,2.9005,2.9005,2.9005,2.9005,2.9005,2.9005,2.9005,2.9005,2.9005,2.9005,2.9005,2.9005,2.9005,2.9005,2.9005,2.9005,2.9005,2.9246,2.9424,2.9494,2.9635,2.9754,2.9893,2.9901,3.0018,3.026,3.026,3.0311,3.0404,3.0404,3.0404,3.0404,3.0404,3.0404,2.0256,2.0384,2.017,1.8034,1.7782,1.7687,1.6169,1.6651,1.7272,0.0,0.0,0.0,0.0,0.0,0.0,0.0,0.0,0.0,0.0,1.232,0.0,0.0,0.0,0.0,0.0,0.0,1.4385,1.6022,1.5832,0.0,0.0,1.8972,1.9453,1.9693,1.9708,1.9708,1.9708,1.9708,1.9708,1.9708,1.9708,1.9708,1.9708,1.9708,2.0174,2.0991,2.0991,2.1493,2.2296,2.2296,2.2296,2.2398,2.3393,2.4085,2.4592,2.5338,2.6065,2.6691,2.6691,2.6691,2.6691,2.6691,2.6691,2.6691,2.6691,2.6691,2.6691,2.6691,2.6691,2.6691,2.6691,2.7303,2.7897,2.7897,2.8469,2.9005,2.9005,2.9005,2.9005,2.9005,2.9005,2.9005,2.9005,2.9005,2.9005,2.9005,2.9005,2.9005,2.9005,2.9005,2.9005,2.9005,2.9005,2.9051,2.9134,2.9373,2.9542,2.9616,2.9815,3.0015,3.0136,3.0143,3.0215,3.0404,3.0404,3.0404,3.0404,3.0404,3.0404,3.0404,3.0404,3.0404]}]]